[[{"header":{"parameterUnit":"m.s-1","parameterCategory":1,"la1":30.6,"la2":28.766,"lo1":-90.7593,"lo2":-88.6598,"dy":0.0162,"dx":0.0183,"nx":116,"ny":114,"refTime":"2023-09-11T06:00:00:Z","depth":0,"parameterNumber":2,"parameterNumberName":"U-component_of_WINDS"},"data":[0.0,0.0,0.0,0.0,0.0,0.0,0.0,0.0,0.0,0.0,0.0,0.0,0.0,0.0,0.0,0.0,0.0,0.0,0.0,0.0,0.0,0.0,0.0,0.0,0.0,0.0,0.0,0.0,0.0,0.0,0.0,0.0,0.0,0.0,0.0,0.0,0.0,0.0,0.0,0.0,0.0,0.0,0.0,0.0,0.0,0.0,0.0,0.0,0.0,0.0,0.0,0.0,0.0,0.0,0.0,0.0,0.0,0.0,0.0,0.0,0.0,0.0,0.0,0.0,0.0,0.0,0.0,0.0,0.0,0.0,0.0,0.0,0.0,0.0,0.0,0.0,0.0,0.0,0.0,0.0,0.0,0.0,0.0,0.0,0.0,0.0,0.0,0.0,0.0,0.0,0.0,0.0,0.0,0.0,0.0,0.0,0.0,0.0,0.0,0.0,0.0,0.0,0.0,0.0,0.0,0.0,0.0,0.0,0.0,0.0,0.0,0.0,0.0,0.0,0.0,0.0,0.0,0.0,0.0,0.0,0.0,0.0,0.0,0.0,0.0,0.0,0.0,0.0,0.0,0.0,0.0,0.0,0.0,0.0,0.0,0.0,0.0,0.0,0.0,0.0,0.0,0.0,0.0,0.0,0.0,0.0,0.0,0.0,0.0,0.0,0.0,0.0,0.0,0.0,0.0,0.0,0.0,0.0,0.0,0.0,0.0,0.0,0.0,0.0,0.0,0.0,0.0,0.0,0.0,0.0,0.0,0.0,0.0,0.0,0.0,0.0,0.0,0.0,0.0,0.0,0.0,0.0,0.0,0.0,0.0,0.0,0.0,0.0,0.0,0.0,0.0,0.0,0.0,0.0,0.0,0.0,0.0,0.0,0.0,0.0,0.0,0.0,0.0,0.0,0.0,0.0,0.0,0.0,0.0,0.0,0.0,0.0,0.0,0.0,0.0,0.0,0.0,0.0,0.0,0.0,0.0,0.0,0.0,0.0,0.0,0.0,0.0,0.0,0.0,0.0,0.0,0.0,0.0,0.0,0.0,0.0,0.0,0.0,0.0,0.0,0.0,0.0,0.0,0.0,0.0,0.0,0.0,0.0,0.0,0.0,0.0,0.0,0.0,0.0,0.0,0.0,0.0,0.0,0.0,0.0,0.0,0.0,0.0,0.0,0.0,0.0,0.0,0.0,0.0,0.0,0.0,0.0,0.0,0.0,0.0,0.0,0.0,0.0,0.0,0.0,0.0,0.0,0.0,0.0,0.0,0.0,0.0,0.0,0.0,0.0,0.0,0.0,0.0,0.0,0.0,0.0,0.0,0.0,0.0,0.0,0.0,0.0,0.0,0.0,0.0,0.0,0.0,0.0,0.0,0.0,0.0,0.0,0.0,0.0,0.0,0.0,0.0,0.0,0.0,0.0,0.0,0.0,0.0,0.0,0.0,0.0,0.0,0.0,0.0,0.0,0.0,0.0,0.0,0.0,0.0,0.0,0.0,0.0,0.0,0.0,0.0,0.0,0.0,0.0,0.0,0.0,0.0,0.0,0.0,0.0,0.0,0.0,0.0,0.0,0.0,0.0,0.0,0.0,0.0,0.0,0.0,0.0,0.0,0.0,0.0,0.0,0.0,0.0,0.0,0.0,0.0,0.0,0.0,0.0,0.0,0.0,0.0,0.0,0.0,0.0,0.0,0.0,0.0,0.0,0.0,0.0,0.0,0.0,0.0,0.0,0.0,0.0,0.0,0.0,0.0,0.0,0.0,0.0,0.0,0.0,0.0,0.0,0.0,0.0,0.0,0.0,0.0,0.0,0.0,0.0,0.0,0.0,0.0,0.0,0.0,0.0,0.0,0.0,0.0,0.0,0.0,0.0,0.0,0.0,0.0,0.0,0.0,0.0,0.0,0.0,0.0,0.0,0.0,0.0,0.0,0.0,0.0,0.0,0.0,0.0,0.0,0.0,0.0,0.0,0.0,0.0,0.0,0.0,0.0,0.0,0.0,0.0,0.0,0.0,0.0,0.0,0.0,0.0,0.0,0.0,0.0,0.0,0.0,0.0,0.0,0.0,0.0,0.0,0.0,0.0,0.0,0.0,0.0,0.0,0.0,0.0,0.0,0.0,0.0,0.0,0.0,0.0,0.0,0.0,0.0,0.0,0.0,0.0,0.0,0.0,0.0,0.0,0.0,0.0,0.0,0.0,0.0,0.0,0.0,0.0,0.0,0.0,0.0,0.0,0.0,0.0,0.0,0.0,0.0,0.0,0.0,0.0,0.0,0.0,0.0,0.0,0.0,0.0,0.0,0.0,0.0,0.0,0.0,0.0,0.0,0.0,0.0,0.0,0.0,0.0,0.0,0.0,0.0,0.0,0.0,0.0,0.0,0.0,0.0,0.0,0.0,0.0,0.0,0.0,0.0,0.0,0.0,0.0,0.0,0.0,0.0,0.0,0.0,0.0,0.0,0.0,0.0,0.0,0.0,0.0,0.0,0.0,0.0,0.0,0.0,0.0,0.0,0.0,0.0,0.0,0.0,0.0,0.0,0.0,0.0,0.0,0.0,0.0,0.0,0.0,0.0,0.0,0.0,0.0,0.0,0.0,0.0,0.0,0.0,0.0,0.0,0.0,0.0,0.0,0.0,0.0,0.0,0.0,0.0,0.0,0.0,0.0,0.0,0.0,0.0,0.0,0.0,0.0,0.0,0.0,0.0,0.0,0.0,0.0,0.0,0.0,0.0,0.0,0.0,0.0,0.0,0.0,0.0,0.0,0.0,0.0,0.0,0.0,0.0,0.0,0.0,0.0,0.0,0.0,0.0,0.0,0.0,0.0,0.0,0.0,0.0,0.0,0.0,0.0,0.0,0.0,0.0,0.0,0.0,0.0,0.0,0.0,0.0,0.0,0.0,0.0,0.0,0.0,0.0,0.0,0.0,0.0,0.0,0.0,0.0,0.0,0.0,0.0,0.0,0.0,0.0,0.0,0.0,0.0,0.0,0.0,0.0,0.0,0.0,0.0,0.0,0.0,0.0,0.0,0.0,0.0,0.0,0.0,0.0,0.0,0.0,0.0,0.0,0.0,0.0,0.0,0.0,0.0,0.0,0.0,0.0,0.0,0.0,0.0,0.0,0.0,0.0,0.0,0.0,0.0,0.0,0.0,0.0,0.0,0.0,0.0,0.0,0.0,0.0,0.0,0.0,0.0,0.0,0.0,0.0,0.0,0.0,0.0,0.0,0.0,0.0,0.0,0.0,0.0,0.0,0.0,0.0,0.0,0.0,0.0,0.0,0.0,0.0,0.0,0.0,0.0,0.0,0.0,0.0,0.0,0.0,0.0,0.0,0.0,0.0,0.0,0.0,0.0,0.0,0.0,0.0,0.0,0.0,0.0,0.0,0.0,0.0,0.0,0.0,0.0,0.0,0.0,0.0,0.0,0.0,0.0,0.0,0.0,0.0,0.0,0.0,0.0,0.0,0.0,0.0,0.0,0.0,0.0,0.0,0.0,0.0,0.0,0.0,0.0,0.0,0.0,0.0,0.0,0.0,0.0,0.0,0.0,0.0,0.0,0.0,0.0,0.0,0.0,0.0,0.0,0.0,0.0,0.0,0.0,0.0,0.0,0.0,0.0,0.0,0.0,0.0,0.0,0.0,0.0,0.0,0.0,0.0,0.0,0.0,0.0,0.0,0.0,0.0,0.0,0.0,0.0,0.0,0.0,0.0,0.0,0.0,0.0,0.0,0.0,0.0,0.0,0.0,0.0,0.0,0.0,0.0,0.0,0.0,0.0,0.0,0.0,0.0,0.0,0.0,0.0,0.0,0.0,0.0,0.0,0.0,0.0,0.0,0.0,0.0,0.0,0.0,0.0,0.0,0.0,0.0,0.0,0.0,0.0,0.0,0.0,0.0,0.0,0.0,0.0,0.0,0.0,0.0,0.0,0.0,0.0,0.0,0.0,0.0,0.0,0.0,0.0,0.0,0.0,0.0,0.0,0.0,0.0,0.0,0.0,0.0,0.0,0.0,0.0,0.0,0.0,0.0,0.0,0.0,0.0,0.0,0.0,0.0,0.0,0.0,0.0,0.0,0.0,0.0,0.0,0.0,0.0,0.0,0.0,0.0,0.0,0.0,0.0,0.0,0.0,0.0,0.0,0.0,0.0,0.0,0.0,0.0,0.0,0.0,0.0,0.0,0.0,0.0,0.0,0.0,0.0,0.0,0.0,0.0,0.0,0.0,0.0,0.0,0.0,0.0,0.0,0.0,0.0,0.0,0.0,0.0,0.0,0.0,0.0,0.0,0.0,0.0,0.0,0.0,0.0,0.0,0.0,0.0,0.0,0.0,0.0,0.0,0.0,0.0,0.0,0.0,0.0,0.0,0.0,0.0,0.0,0.0,0.0,0.0,0.0,0.0,0.0,0.0,0.0,0.0,0.0,0.0,0.0,0.0,0.0,0.0,0.0,0.0,0.0,0.0,0.0,0.0,0.0,0.0,0.0,0.0,0.0,0.0,0.0,0.0,0.0,0.0,0.0,0.0,0.0,0.0,0.0,0.0,0.0,0.0,0.0,0.0,0.0,0.0,0.0,0.0,0.0,0.0,0.0,0.0,0.0,0.0,0.0,0.0,0.0,0.0,0.0,0.0,0.0,0.0,0.0,0.0,0.0,0.0,0.0,0.0,0.0,0.0,0.0,0.0,0.0,0.0,0.0,0.0,0.0,0.0,0.0,0.0,0.0,0.0,0.0,0.0,0.0,0.0,0.0,0.0,0.0,0.0,0.0,0.0,0.0,0.0,0.0,0.0,0.0,0.0,0.0,0.0,0.0,0.0,0.0,0.0,0.0,0.0,0.0,0.0,0.0,0.0,0.0,0.0,0.0,0.0,0.0,0.0,0.0,0.0,0.0,0.0,0.0,0.0,0.0,0.0,0.0,0.0,0.0,0.0,0.0,0.0,0.0,0.0,0.0,0.0,0.0,0.0,0.0,0.0,0.0,0.0,0.0,0.0,0.0,0.0,0.0,0.0,0.0,0.0,0.0,0.0,0.0,0.0,0.0,0.0,0.0,0.0,0.0,0.0,0.0,0.0,0.0,0.0,0.0,0.0,0.0,0.0,0.0,0.0,0.0,0.0,0.0,0.0,0.0,0.0,0.0,0.0,0.0,0.0,0.0,0.0,0.0,0.0,0.0,0.0,0.0,0.0,0.0,0.0,0.0,0.0,0.0,0.0,0.0,0.0,0.0,0.0,0.0,0.0,0.0,0.0,0.0,0.0,0.0,0.0,0.0,0.0,0.0,0.0,0.0,0.0,0.0,0.0,0.0,0.0,0.0,0.0,0.0,0.0,0.0,0.0,0.0,0.0,0.0,0.0,0.0,0.0,0.0,0.0,0.0,0.0,0.0,0.0,0.0,0.0,0.0,0.0,0.0,0.0,0.0,0.0,0.0,0.0,0.0,0.0,0.0,0.0,0.0,0.0,0.0,0.0,0.0,0.0,0.0,0.0,0.0,0.0,0.0,0.0,0.0,0.0,0.0,0.0,0.0,0.0,0.0,0.0,0.0,0.0,0.0,0.0,0.0,0.0,0.0,0.0,0.0,0.0,0.0,0.0,0.0,0.0,0.0,0.0,0.0,0.0,0.0,0.0,0.0,0.0,0.0,0.0,0.0,0.0,0.0,0.0,0.0,0.0,0.0,0.0,0.0,0.0,0.0,0.0,0.0,0.0,0.0,0.0,0.0,0.0,0.0,0.0,0.0,0.0,0.0,0.0,0.0,0.0,0.0,0.0,0.0,0.0,0.0,0.0,0.0,0.0,0.0,0.0,0.0,0.0,0.0,0.0,0.0,0.0,0.0,0.0,0.0,0.0,0.0,0.0,0.0,0.0,0.0,0.0,0.0,0.0,0.0,0.0,0.0,0.0,0.0,0.0,0.0,0.0,0.0,0.0,0.0,0.0,0.0,0.0,0.0,0.0,0.0,0.0,0.0,0.0,0.0,0.0,0.0,0.0,0.0,0.0,0.0,0.0,0.0,0.0,0.0,0.0,0.0,0.0,0.0,0.0,0.0,0.0,0.0,0.0,0.0,0.0,0.0,0.0,0.0,0.0,0.0,0.0,0.0,2.7093,2.7717,0.0,0.0,0.0,0.0,0.0,0.0,0.0,0.0,0.0,0.0,0.0,0.0,0.0,0.0,0.0,0.0,0.0,0.0,0.0,0.0,0.0,0.0,0.0,0.0,0.0,0.0,0.0,0.0,0.0,0.0,0.0,0.0,0.0,0.0,0.0,0.0,0.0,0.0,0.0,0.0,0.0,0.0,0.0,0.0,0.0,0.0,0.0,0.0,0.0,0.0,0.0,0.0,0.0,0.0,0.0,0.0,0.0,0.0,0.0,0.0,0.0,0.0,0.0,0.0,0.0,0.0,0.0,0.0,0.0,0.0,0.0,0.0,0.0,0.0,0.0,0.0,0.0,0.0,0.0,0.0,0.0,0.0,0.0,0.0,0.0,0.0,0.0,0.0,0.0,0.0,0.0,0.0,0.0,0.0,0.0,0.0,0.0,0.0,0.0,0.0,0.0,0.0,0.0,0.0,0.0,0.0,0.0,0.0,0.0,0.0,0.0,0.0,0.0,0.0,2.6606,2.7005,0.0,0.0,0.0,0.0,0.0,0.0,0.0,0.0,0.0,0.0,0.0,0.0,0.0,0.0,0.0,0.0,0.0,0.0,0.0,0.0,0.0,0.0,0.0,0.0,0.0,0.0,0.0,0.0,0.0,0.0,0.0,0.0,0.0,0.0,0.0,0.0,0.0,0.0,0.0,0.0,0.0,0.0,0.0,0.0,0.0,0.0,0.0,0.0,0.0,0.0,0.0,0.0,0.0,0.0,0.0,0.0,0.0,0.0,0.0,0.0,0.0,0.0,0.0,0.0,0.0,0.0,0.0,0.0,0.0,0.0,0.0,0.0,0.0,0.0,0.0,0.0,0.0,0.0,0.0,0.0,0.0,0.0,0.0,0.0,0.0,0.0,0.0,0.0,0.0,0.0,0.0,0.0,0.0,0.0,0.0,0.0,0.0,0.0,0.0,0.0,0.0,0.0,0.0,0.0,0.0,0.0,0.0,0.0,2.6542,2.6491,2.6491,2.6491,2.5891,2.4886,2.5983,2.6145,2.5716,2.7664,0.0,0.0,0.0,0.0,0.0,0.0,0.0,0.0,0.0,0.0,0.0,0.0,0.0,0.0,0.0,0.0,0.0,0.0,0.0,0.0,0.0,0.0,0.0,0.0,0.0,0.0,0.0,0.0,0.0,0.0,0.0,0.0,0.0,0.0,0.0,0.0,0.0,0.0,1.4213,1.4332,1.4392,1.4392,1.5108,0.0,0.0,0.0,0.0,0.0,0.0,0.0,0.0,0.0,0.0,0.0,0.0,0.0,0.0,0.0,0.0,0.0,0.0,0.0,0.0,0.0,0.0,0.0,0.0,0.0,0.0,0.0,0.0,0.0,0.0,0.0,0.0,0.0,0.0,0.0,0.0,0.0,0.0,0.0,0.0,0.0,0.0,0.0,2.4871,2.511,0.0,0.0,0.0,0.0,0.0,0.0,0.0,0.0,0.0,0.0,0.0,0.0,0.0,2.6985,2.6269,2.5731,2.5177,2.4684,2.3995,2.3644,2.3644,2.3644,2.3539,2.3386,2.3539,0.0,2.453,2.5409,0.0,0.0,0.0,0.0,0.0,0.0,0.0,0.0,0.0,0.0,0.0,0.0,0.0,0.0,0.0,0.0,0.0,0.0,0.0,0.0,0.0,0.0,0.0,0.0,0.0,0.0,0.0,0.0,0.0,0.0,0.0,0.0,0.0,0.0,0.0,0.0,1.451,1.4569,1.4213,1.4688,1.4996,1.5283,1.5652,1.5644,1.541,1.541,0.0,0.0,0.0,0.0,0.0,0.0,0.0,0.0,0.0,0.0,0.0,0.0,0.0,0.0,0.0,0.0,0.0,0.0,0.0,0.0,0.0,0.0,0.0,0.0,0.0,0.0,0.0,0.0,0.0,0.0,0.0,0.0,0.0,0.0,0.0,0.0,0.0,0.0,0.0,2.5664,2.542,2.4718,2.6155,2.7493,0.0,0.0,0.0,0.0,0.0,0.0,0.0,0.0,0.0,2.6103,2.5272,2.472,2.4503,2.4187,2.3878,2.359,2.3245,2.3078,2.3078,2.3078,2.3078,2.3078,2.3078,2.3305,2.3708,2.4745,2.5586,2.6227,0.0,0.0,0.0,0.0,2.0095,1.7249,0.0,0.0,0.0,0.0,0.0,0.0,0.0,0.0,0.0,0.0,0.0,0.0,0.0,0.0,0.0,2.1107,0.0,0.0,0.0,0.0,0.0,0.0,0.0,0.0,0.0,0.0,0.0,1.3312,1.4252,1.4607,1.4366,1.5078,1.5597,1.5965,1.6201,1.6096,1.5752,1.5752,1.5937,0.0,0.0,0.0,0.0,0.0,0.0,0.0,0.0,0.0,0.0,0.0,0.0,0.0,0.0,0.0,0.0,0.0,0.0,0.0,0.0,0.0,0.0,0.0,0.0,0.0,0.0,0.0,0.0,0.0,0.0,0.0,0.0,0.0,0.0,0.0,0.0,0.0,0.0,2.4842,2.4446,2.3728,2.4817,2.5824,0.0,0.0,0.0,0.0,0.0,0.0,2.6049,2.4819,2.412,2.4055,2.3141,2.2749,2.2823,2.3017,2.3017,2.2823,2.3005,2.3005,2.2823,2.3017,2.3078,2.3078,2.3078,2.3005,2.2871,2.416,2.4676,2.4622,2.4737,2.3955,2.2372,1.9408,1.674,1.3885,0.0,0.0,0.0,0.0,0.0,0.0,0.0,0.0,0.0,0.0,0.0,0.0,0.0,0.0,2.2252,2.1688,2.0544,1.985,0.0,0.0,0.0,0.0,0.0,0.0,0.0,0.0,0.0,1.4145,1.539,1.559,1.4852,1.5287,1.5533,1.5551,1.6394,1.6727,1.6597,1.6597,1.668,1.6699,0.0,0.0,0.0,0.0,0.0,0.0,0.0,0.0,0.0,0.0,0.0,0.0,0.0,0.0,0.0,0.0,0.0,0.0,0.0,0.0,0.0,0.0,0.0,0.0,0.0,0.0,0.0,0.0,0.0,0.0,0.0,0.0,0.0,0.0,0.0,0.0,0.0,0.0,0.0,2.1803,2.1249,0.0,0.0,0.0,0.0,2.4759,2.4488,2.3817,2.287,2.2201,2.1549,2.0824,2.1542,2.1939,2.1939,2.2702,2.2702,2.1939,2.275,2.2702,2.2013,2.2763,2.3078,2.3078,2.3078,2.2702,2.2002,2.2871,2.3182,2.3022,2.2092,2.1216,1.9998,1.6264,1.3064,1.0092,0.0,0.0,0.0,0.0,0.0,0.0,0.0,0.0,0.0,0.0,0.0,0.0,0.0,2.3109,2.189,2.1697,2.0557,1.9592,1.915,0.0,0.0,0.0,0.0,0.0,0.0,0.0,1.546,1.4653,1.5899,1.6369,1.6046,1.6789,1.7249,1.751,1.8437,1.8932,1.9147,1.7999,1.7677,1.7933,1.7933,1.8607,0.0,0.0,0.0,0.0,0.0,0.0,0.0,0.0,0.0,0.0,0.0,0.0,0.0,0.0,0.0,0.0,0.0,0.0,0.0,0.0,0.0,0.0,0.0,0.0,0.0,0.0,0.0,0.0,0.0,0.0,0.0,0.0,0.0,0.0,0.0,0.0,0.0,2.1037,2.1135,0.0,2.2431,2.2528,2.2611,2.2745,2.2201,2.1673,2.1315,2.0553,2.0289,2.059,2.091,2.1365,2.1877,2.2702,2.2702,2.1877,2.2187,2.2199,2.1877,2.2199,2.2322,2.2322,2.2322,2.1877,2.1037,2.0692,2.0583,2.0486,1.9544,1.7856,1.5618,1.3042,1.0228,0.7195,0.0,0.0,0.0,0.0,0.0,0.0,0.0,0.0,0.0,0.0,0.0,2.6304,2.5309,2.3083,2.1697,2.1697,2.0294,1.9202,1.8715,0.0,0.0,0.0,0.0,0.0,0.0,1.5667,1.5888,1.5526,1.6475,1.6953,1.6953,1.7955,1.8554,1.8901,2.0035,2.0728,2.0939,1.9834,1.931,1.9276,1.9276,1.979,2.0621,0.0,0.0,0.0,0.0,0.0,0.0,0.0,0.0,0.0,0.0,0.0,0.0,0.0,0.0,0.0,0.0,0.0,0.0,0.0,0.0,0.0,0.0,0.0,0.0,0.0,0.0,0.0,0.0,0.0,0.0,0.0,0.0,0.0,0.0,2.1611,2.083,2.0643,2.0523,2.0553,2.0871,2.0871,2.0744,2.0478,2.0289,2.0009,1.9759,1.9431,1.9494,1.9918,2.0511,2.1175,2.1929,2.2452,2.2452,2.1929,2.194,2.1747,2.1476,2.1747,2.1876,2.1876,2.1506,2.083,1.9977,1.8995,1.7987,1.7027,1.6573,1.506,1.2718,1.017,0.7462,0.456,0.0,0.0,0.0,0.0,0.0,0.0,0.0,0.0,0.0,0.0,2.6619,2.5847,2.5249,2.3083,2.1697,2.1649,1.9864,1.8715,1.8661,1.8015,0.0,0.0,0.0,0.0,1.6115,1.6154,1.6318,1.6748,1.7252,1.7468,1.7478,1.8781,1.9365,1.9431,2.1164,2.1939,2.1939,2.1939,2.1428,2.0655,2.0655,2.059,2.0719,0.0,0.0,0.0,0.0,0.0,0.0,0.0,0.0,0.0,0.0,0.0,0.0,0.0,0.0,0.0,0.0,0.0,0.0,0.0,0.0,0.0,0.0,0.0,0.0,0.0,0.0,0.0,0.0,0.0,0.0,0.0,0.0,0.0,2.1413,2.0267,1.9562,2.0398,1.9044,1.8337,1.9177,1.9243,1.8921,1.8095,1.8808,1.8942,1.8115,1.8895,1.9147,1.8713,2.04,2.1487,2.2036,2.1978,2.1978,2.1967,2.1909,2.1435,2.0603,2.1494,2.184,2.176,2.0618,1.9696,1.8797,1.7631,1.5515,1.2968,1.3345,1.2898,1.1569,0.7575,0.4722,0.2003,0.0,0.0,0.0,0.0,0.0,0.0,0.0,0.0,0.0,0.0,2.701,2.5693,2.4579,2.2804,2.152,2.1064,2.008,1.9044,1.795,0.0,0.0,0.0,0.0,0.0,1.6064,1.6689,1.708,1.7207,1.8268,1.8802,1.8802,2.0406,2.1175,2.1227,2.231,2.2763,2.2763,2.2763,2.2628,2.231,2.1101,2.0974,2.1553,0.0,0.0,0.0,0.0,0.0,0.0,0.0,0.0,0.0,0.0,0.0,0.0,0.0,0.0,0.0,0.0,0.0,0.0,0.0,0.0,0.0,0.0,0.0,0.0,0.0,0.0,0.0,0.0,0.0,0.0,0.0,2.0193,1.942,1.9912,1.9023,1.8462,1.8721,1.8269,1.8066,1.8337,1.8327,1.8398,1.8437,1.8666,1.9133,2.0017,2.0237,2.0637,2.1159,2.2263,2.259,2.2036,2.2593,2.2252,2.0945,2.0945,2.0815,2.0603,2.0885,2.049,1.9746,1.9439,1.834,1.6657,1.4866,1.3634,1.2936,1.306,1.1008,0.778,0.5755,0.1612,-0.3308,0.0,0.0,0.0,0.0,0.0,0.0,0.0,0.0,0.0,0.0,2.6909,2.5326,2.4324,2.2715,2.1472,2.0845,1.9876,1.8992,1.8112,0.0,0.0,0.0,0.0,1.5869,1.5875,1.6893,1.7658,1.8213,1.892,1.9497,1.9879,2.1239,2.1877,2.1939,2.2763,2.3078,2.3078,2.3078,2.3078,2.3005,2.2051,2.1928,2.2384,2.2384,2.2702,2.3078,2.3078,2.3078,2.3125,2.3484,0.0,0.0,0.0,0.0,0.0,0.0,0.0,0.0,0.0,0.0,0.0,0.0,0.0,0.0,0.0,0.0,0.0,0.0,0.0,0.0,0.0,0.0,0.0,0.0,1.9299,1.8787,1.8787,1.8337,1.8008,1.8008,1.8008,1.8076,1.8252,1.8271,1.8447,1.8877,1.9252,1.9919,2.0744,2.1516,2.209,2.25,2.3349,2.3442,2.2652,2.2722,2.2226,2.1167,2.0822,2.0612,2.0612,2.0612,1.9989,1.8986,1.8522,1.7115,1.4996,1.3319,1.1752,1.0465,0.0,0.0,0.0,0.0,-0.2298,-0.6283,0.0,0.0,0.0,0.0,0.0,0.0,0.0,0.0,0.0,0.0,0.0,2.5003,2.4259,2.276,2.1534,2.0845,1.9645,1.8821,0.0,0.0,0.0,1.537,1.6414,1.6586,1.5643,1.6862,1.8081,1.9299,1.9431,1.9879,2.0782,2.1741,2.2125,2.2063,2.2871,2.3185,2.3138,2.3198,2.3258,2.3245,2.3305,2.3245,2.3078,2.3078,2.3078,2.3078,2.3078,2.3138,2.3365,2.406,0.0,0.0,0.0,0.0,0.0,0.0,0.0,0.0,0.0,0.0,0.0,0.0,0.0,0.0,0.0,0.0,0.0,0.0,0.0,0.0,0.0,0.0,0.0,0.0,1.8596,1.8027,1.8076,1.8076,1.8076,1.8076,1.8076,1.8242,1.8672,1.8711,1.8887,1.9326,2.0196,2.0789,2.0913,2.2433,0.0,0.0,0.0,2.3885,2.3368,2.2478,2.1962,2.1811,2.0847,2.0479,2.0566,2.0323,1.9678,1.8718,1.7488,1.5741,1.373,1.2304,0.9607,0.6265,0.5858,0.4748,0.2733,-0.3309,-0.6331,-0.7942,0.0,0.0,0.0,0.0,0.0,0.0,0.0,0.0,0.0,2.6867,2.6192,2.5303,2.43,2.3215,2.2035,2.0894,2.0534,1.9645,0.0,0.0,1.5021,1.5391,1.5695,1.6024,1.6465,1.7424,1.8382,1.9299,2.0009,2.0782,2.169,2.3148,2.3518,2.2884,2.3708,2.3708,2.3125,2.3767,2.406,2.4118,2.4724,2.4208,2.3078,2.3078,2.3078,2.3078,2.3078,2.3543,2.4118,2.4234,2.5175,2.6283,2.6457,0.0,0.0,0.0,0.0,0.0,0.0,0.0,0.0,0.0,0.0,0.0,0.0,0.0,0.0,0.0,0.0,0.0,0.0,0.0,0.0,1.9299,1.8596,1.8125,1.8467,1.8446,1.8446,1.8446,1.8446,1.8682,1.9121,1.916,1.9336,1.9756,1.9934,2.0595,2.168,2.2136,2.2622,2.338,2.3525,2.3205,2.2328,2.2103,2.1593,2.0857,1.9835,0.0,2.0566,1.8789,1.7827,1.7496,1.5486,1.3904,1.2395,0.9347,0.5478,0.133,0.1232,-0.0697,-0.364,-0.5927,-0.8627,-1.1483,0.0,0.0,0.0,0.0,0.0,0.0,0.0,0.0,0.0,0.0,2.6708,2.6048,2.5024,2.4222,2.3183,2.1782,2.1148,0.0,0.0,1.7291,1.6306,1.5918,1.6779,1.7317,1.7276,1.8622,1.9748,2.059,2.1049,2.1678,2.2506,2.3754,2.406,2.3708,2.4509,2.461,2.4266,2.4681,2.4851,2.4908,2.5231,2.4951,2.4208,2.3826,2.3424,2.3125,2.3543,2.3943,2.435,2.4738,2.5563,2.651,2.651,2.6774,2.7137,0.0,0.0,0.0,0.0,0.0,0.0,0.0,0.0,0.0,0.0,0.0,0.0,0.0,0.0,2.0462,2.0009,0.0,1.925,1.9015,1.8587,1.8477,1.8906,1.8965,1.8965,1.8965,1.8965,1.9131,1.9561,1.96,1.9775,2.0215,2.0671,2.1271,2.1941,2.2478,2.2999,2.3514,2.3514,2.2999,2.2027,2.2027,2.1517,2.0566,1.952,1.9283,1.9756,1.806,1.6667,1.5569,1.4483,1.2717,1.0255,0.6189,0.2304,-0.1067,-0.2837,-0.4599,-0.6446,-0.8222,-1.0322,-1.2498,0.0,0.0,0.0,0.0,0.0,0.0,0.0,0.0,0.0,0.0,2.7068,2.6685,2.5982,2.5257,2.428,0.0,0.0,0.0,0.0,1.8984,1.7927,1.6669,1.8203,1.878,1.8134,1.9739,2.1037,2.1877,2.1877,2.2322,2.3138,2.406,2.4452,2.435,2.5231,2.5508,2.5398,2.5563,2.5618,2.5618,2.5783,2.5728,2.5508,2.4794,2.3989,2.3424,2.4221,2.4509,2.4624,2.5342,2.6122,2.6721,2.6721,2.6721,2.6826,2.7408,2.6759,0.0,0.0,0.0,0.0,0.0,0.0,0.0,0.0,0.0,2.1894,2.0375,2.0074,1.9911,1.9281,1.9168,1.9043,1.8773,1.874,1.8906,1.9326,1.9404,1.9443,1.9521,1.9463,1.957,2.0,2.0039,2.0185,2.0537,2.1298,2.1735,2.1735,2.2478,2.2936,2.2936,2.2936,2.2563,2.1735,2.1735,2.1211,2.0245,1.9195,1.8638,1.8638,1.7261,1.5674,1.3975,1.3031,1.0716,0.7186,0.2837,-0.0444,-0.3103,-0.6201,-0.7705,-0.8313,-1.0245,-1.1643,-1.2845,0.0,0.0,0.0,0.0,0.0,0.0,0.0,0.0,0.0,0.0,0.0,0.0,0.0,0.0,0.0,0.0,0.0,0.0,2.0398,1.8701,1.7633,1.7446,1.8516,1.9052,1.8981,2.0013,2.1037,2.1877,2.1877,2.2322,2.3138,2.461,2.4951,2.435,2.5728,2.6014,2.5453,2.6122,2.6404,2.6443,2.7086,2.6982,2.6283,2.5563,2.4781,2.4292,2.5007,2.5287,2.5398,2.6122,2.6878,2.7458,2.7458,2.7458,2.7509,2.7575,0.0,2.7408,2.7575,2.6534,2.4924,2.2822,2.2224,2.1717,0.0,0.0,1.942,1.8462,1.8269,1.8388,1.8626,1.8705,1.8783,1.9191,1.9236,1.9336,1.9752,1.987,1.999,2.0381,2.0078,2.0019,2.0449,2.0498,2.0508,2.0634,2.0712,2.0789,2.0789,2.0867,2.0934,2.0934,2.0934,2.0857,2.0789,2.0789,2.0235,1.9204,1.806,1.7496,1.7415,1.5394,1.4294,1.3807,0.967,0.5835,0.2396,-0.0266,-0.3456,-0.6646,-0.8165,-0.9913,-1.1712,-1.198,-1.2857,-1.4153,0.0,0.0,0.0,0.0,0.0,0.0,0.0,0.0,0.0,0.0,0.0,0.0,0.0,0.0,0.0,0.0,0.0,0.0,2.122,1.9736,1.8874,1.8874,1.9905,2.0481,2.0481,2.1512,2.2482,2.3327,2.3327,2.3682,2.4439,2.5563,2.5892,2.5618,2.6654,2.6982,2.6707,2.7034,2.7137,2.7152,2.7473,2.7408,2.7034,2.6336,2.5563,2.4894,2.4794,2.4738,0.0,0.0,2.6721,2.7034,2.7458,2.7306,2.7034,2.7458,2.6967,0.0,2.5823,2.4503,2.3022,2.2163,2.1175,2.0204,1.9497,1.9299,1.9044,1.8212,1.8203,1.8428,1.8603,1.8821,1.9118,1.9604,1.9634,1.9802,2.0232,2.0273,2.0361,2.0547,2.041,2.0361,2.0547,2.0566,2.0566,2.0566,2.0566,2.0566,2.0566,2.0566,2.0566,2.0566,2.0001,2.0001,2.0566,1.9353,1.8789,1.8957,1.7253,1.6355,1.6273,1.4028,1.1958,0.9842,0.653,0.3456,0.0534,-0.1862,-0.4517,-0.7264,-0.9126,-1.0869,-1.2328,-1.2328,-1.3432,-1.5137,0.0,0.0,0.0,0.0,0.0,0.0,0.0,0.0,0.0,0.0,0.0,0.0,0.0,0.0,0.0,0.0,0.0,0.0,0.0,2.0743,2.0003,1.9798,2.0878,2.1592,2.1801,2.284,2.3826,2.4624,2.4624,2.4908,2.5398,2.6176,2.651,2.651,2.7255,2.766,2.786,2.7675,2.771,2.781,2.7675,2.7458,2.7203,2.6496,2.5728,2.5063,2.4738,2.4452,0.0,0.0,2.6176,2.6283,2.6811,2.6654,2.6283,2.6811,2.6215,2.5175,2.4195,2.3,0.0,2.1342,2.0204,1.9233,1.8977,1.9014,1.8904,1.8311,1.8516,1.8857,1.8965,1.9256,1.9604,1.9987,2.0078,2.0242,2.0566,2.0566,2.0459,2.0149,2.0149,2.0042,1.9733,2.0246,2.0566,2.0566,2.0566,2.0566,2.0566,2.0566,2.0479,2.0167,1.9441,1.9195,1.9678,1.806,1.7577,1.806,1.6177,1.5147,1.4733,1.2492,0.9883,0.7032,0.43,0.179,-0.0717,-0.3464,-0.5928,-0.8229,-1.0245,-1.1815,-1.2851,-1.3087,-1.4266,-1.5779,0.0,0.0,0.0,0.0,0.0,0.0,0.0,0.0,0.0,0.0,0.0,0.0,0.0,0.0,0.0,0.0,0.0,0.0,0.0,2.1397,2.0497,1.985,2.0878,2.1856,2.2578,2.3685,2.4624,2.5342,2.5342,2.5398,2.5398,2.6176,2.651,2.651,2.7255,2.7894,2.8415,2.786,2.7959,2.8415,2.786,2.7152,2.6443,2.5728,2.4951,2.4408,2.5119,0.0,0.0,0.0,2.5453,2.5453,2.5453,2.5453,0.0,2.5453,2.5453,2.5036,2.3475,2.3,2.2372,1.9987,1.9365,1.911,1.8202,1.832,1.8613,1.8613,1.8965,1.9394,1.9805,1.9889,2.0007,2.0526,2.0615,2.0615,2.0634,2.0566,2.0236,1.9136,1.9031,1.8629,1.7545,1.9329,2.0566,2.0566,2.0566,2.0566,2.0566,2.0566,2.0079,1.9116,1.9036,1.847,1.7423,1.7334,1.6764,1.5786,1.4774,1.3709,1.2633,1.0428,0.866,0.7143,0.3597,0.0641,-0.2011,-0.5539,-0.8404,-1.0605,-1.1809,-1.2942,-1.4166,-1.5213,-1.5613,-1.5861,0.0,0.0,0.0,0.0,0.0,0.0,0.0,0.0,0.0,0.0,0.0,0.0,0.0,0.0,0.0,0.0,0.0,0.0,0.0,2.2002,2.1239,2.1086,2.1709,2.2644,2.3842,2.4924,2.6105,2.7335,2.7335,2.7549,2.8051,2.8323,2.8434,2.8401,2.8255,2.8319,2.8463,2.8271,2.8091,2.7894,2.814,2.7795,2.7086,2.5892,2.5231,2.4951,0.0,0.0,0.0,0.0,0.0,0.0,2.5231,2.5063,2.4681,2.4681,2.4284,2.3722,2.3179,2.1832,2.0353,1.9486,1.8854,1.8407,1.8429,1.8535,1.8721,1.9014,1.9404,1.9727,1.9889,2.0164,2.0438,2.0537,2.0566,2.0566,2.0566,2.0023,1.9425,1.9031,1.8353,1.7754,1.736,1.8656,1.9223,1.8437,1.9743,1.9953,1.8497,1.914,1.9036,1.7908,1.731,1.7274,1.7622,1.6428,1.5489,1.4925,1.3064,1.1504,1.0346,0.8737,0.6892,0.4729,0.103,-0.159,-0.3376,-0.6236,-0.8881,-1.1055,-1.15,-1.2751,-1.4541,-1.5609,-1.63,-1.6927,0.0,0.0,0.0,0.0,0.0,0.0,0.0,0.0,0.0,0.0,0.0,0.0,0.0,0.0,0.0,0.0,0.0,0.0,0.0,0.0,2.2433,2.2295,2.3018,2.3933,2.5112,2.6279,2.75,2.8685,2.8685,2.8963,2.9406,2.9406,2.9406,2.9361,2.9012,2.8966,2.9088,2.8701,2.8559,2.8528,2.8271,2.7929,2.7348,2.5918,2.5231,0.0,0.0,0.0,0.0,0.0,0.0,2.3943,2.4439,2.4279,2.3826,2.3505,2.3062,2.2482,2.1832,2.0534,1.9243,1.8911,1.8395,1.8115,1.8545,1.876,1.8994,1.9424,1.9853,2.0127,2.0144,2.0419,2.0566,2.0566,2.0566,2.0566,2.0566,1.9646,1.887,1.8452,1.7375,1.6622,1.6224,1.718,1.7661,1.7303,1.8617,1.8806,1.7393,1.7954,1.7929,1.6865,1.6408,1.6335,1.6806,1.5096,1.3495,1.2048,1.0505,0.8969,0.7423,0.6556,0.5021,0.3003,-0.0479,-0.2676,-0.4026,-0.7493,-0.9904,-1.1375,-1.2296,-1.347,-1.4845,-1.5857,-1.6653,-1.7183,0.0,0.0,0.0,0.0,0.0,0.0,0.0,0.0,0.0,0.0,0.0,0.0,0.0,0.0,0.0,0.0,0.0,0.0,0.0,0.0,0.0,2.345,2.4581,2.5636,2.6451,2.7732,2.8775,2.9569,2.9569,2.9569,2.9569,2.9569,2.9569,2.9524,2.948,2.9805,3.0208,2.9088,2.9225,3.0107,2.84,2.76,2.7259,2.5903,0.0,0.0,0.0,0.0,0.0,0.0,0.0,0.0,2.3005,2.2944,2.2811,2.2063,2.1815,2.1428,1.9759,1.9299,1.9044,1.8202,1.8008,1.8125,1.8574,1.8994,1.9414,1.9853,2.0273,2.0566,0.0,2.0557,2.0557,2.0528,2.0449,2.043,2.0411,1.954,1.8435,1.7327,1.6231,1.524,1.4186,1.5043,1.6072,1.7041,1.7216,1.7228,1.7169,1.7245,1.6909,1.6104,1.6048,1.5705,1.4887,1.3513,1.1101,0.7571,0.7475,0.6187,0.4016,0.3915,0.3215,0.1708,-0.0786,-0.2633,-0.4298,-0.9226,-1.1313,-1.1589,-1.3985,-1.4997,-1.5163,-1.619,-1.669,-1.6768,0.0,0.0,0.0,0.0,0.0,0.0,0.0,0.0,0.0,0.0,0.0,0.0,0.0,0.0,0.0,0.0,0.0,0.0,0.0,0.0,0.0,0.0,0.0,0.0,2.8552,2.9332,3.0368,3.1702,3.1702,3.1702,3.1702,3.1702,3.1519,3.1176,3.0734,3.0443,3.0293,2.9978,2.9761,2.9585,0.0,2.8338,2.7259,0.0,0.0,0.0,0.0,0.0,0.0,0.0,0.0,0.0,2.1416,2.1227,2.1227,2.0974,2.0462,1.989,1.9431,1.8854,1.8269,1.8076,1.8008,1.8203,1.8955,1.9209,1.9502,2.0244,2.0488,2.0566,2.0566,1.9936,1.9404,1.9397,1.8694,1.8158,1.8103,1.722,1.6389,1.6126,0.0,1.4375,1.4088,1.4368,1.4587,1.4856,1.6399,1.6651,1.5325,1.6002,1.6048,1.5336,1.5514,1.5002,1.3859,1.1782,0.9757,0.7828,0.686,0.5591,0.4016,0.3015,0.1807,0.0401,-0.2293,-0.4184,-0.5683,-0.8983,-1.0913,-1.1874,-1.3495,-1.4615,-1.5467,-1.6509,-1.732,-1.7959,0.0,0.0,0.0,0.0,0.0,0.0,0.0,0.0,0.0,0.0,0.0,0.0,0.0,0.0,0.0,0.0,0.0,0.0,0.0,0.0,0.0,0.0,0.0,2.7588,2.9173,3.018,3.1105,3.1971,3.2325,0.0,3.2484,3.2484,3.235,3.2092,3.1738,3.137,3.0937,3.068,0.0,0.0,0.0,0.0,0.0,0.0,0.0,0.0,0.0,0.0,0.0,0.0,0.0,2.1227,2.0782,2.059,2.0526,2.0139,0.0,1.9243,1.8844,1.8037,1.7501,1.7862,1.7373,1.7223,1.8938,1.901,1.9075,2.0371,2.0566,2.0566,2.0566,1.9733,1.8991,1.9019,1.8044,1.7335,1.7292,1.6343,1.568,1.5683,1.4754,1.4088,1.4088,1.4088,1.4088,1.4088,1.5339,1.5635,1.4565,1.5244,1.5473,1.5136,1.4792,1.3674,1.1919,1.0015,0.8192,0.6203,0.4916,0.3518,0.2213,0.0905,-0.0201,-0.1003,-0.3712,-0.5617,-0.7111,-0.9784,-1.1556,-1.2915,-1.4172,-1.505,-1.5678,-1.6209,-1.6817,-1.7379,0.0,0.0,0.0,0.0,0.0,0.0,0.0,0.0,0.0,0.0,0.0,0.0,0.0,0.0,0.0,0.0,0.0,0.0,0.0,0.0,0.0,0.0,2.7895,2.8485,2.9001,3.0371,3.12,3.1412,3.2151,0.0,0.0,0.0,0.0,0.0,0.0,0.0,0.0,0.0,0.0,0.0,0.0,0.0,0.0,0.0,0.0,0.0,0.0,0.0,0.0,0.0,1.9586,2.0182,1.9976,1.9976,1.9922,1.9156,1.8957,1.8767,1.7988,1.7207,1.6784,1.7432,1.6367,1.5845,1.8345,1.8385,1.836,2.0072,2.0459,2.0566,2.0566,1.9565,1.8754,1.8742,1.7733,1.6922,1.6922,1.6032,1.5529,1.5529,1.4663,1.4088,1.4088,1.4088,1.4088,1.4179,1.4375,1.4542,1.4593,1.4865,1.5143,1.5232,1.3774,1.1931,0.9751,0.8382,0.6401,0.3715,0.2514,0.131,0.0,-0.141,-0.2113,-0.2413,-0.4922,-0.6816,-0.8484,-1.0858,-1.2716,-1.407,-1.5337,-1.5832,-1.5832,-1.5832,-1.592,-1.6379,0.0,0.0,0.0,0.0,0.0,0.0,0.0,0.0,0.0,0.0,2.2412,0.0,0.0,0.0,0.0,0.0,0.0,0.0,0.0,0.0,0.0,0.0,2.7425,2.7989,2.906,2.9625,3.0556,3.1953,3.2383,0.0,0.0,0.0,0.0,0.0,0.0,0.0,0.0,0.0,0.0,0.0,0.0,0.0,0.0,0.0,0.0,0.0,0.0,0.0,0.0,0.0,1.8255,1.8131,1.6582,1.6678,1.7239,1.7111,1.7042,1.7042,1.6844,1.6706,1.6428,1.5869,1.5446,1.5501,1.6473,1.7304,0.0,1.9084,1.9946,2.0566,2.0566,1.895,1.7554,1.7608,1.5933,1.4663,1.4663,1.4473,1.4375,1.4375,1.4186,1.4088,1.4088,1.4088,1.4179,1.4375,1.4754,1.4904,1.4948,1.5188,1.4949,1.4151,1.1859,0.9867,0.835,0.7003,0.5018,0.2314,0.2113,0.131,0.0,-0.141,-0.2614,-0.3715,-0.5325,-0.7419,-0.9792,-1.1263,-1.2716,-1.407,-1.5337,-1.5832,-1.5832,-1.5832,-1.648,-1.7591,0.0,0.0,0.0,0.0,0.0,0.0,0.0,0.0,0.0,2.231,2.231,2.2581,0.0,0.0,0.0,0.0,0.0,0.0,0.0,0.0,0.0,0.0,0.0,2.739,2.8457,2.9048,2.9835,3.0803,0.0,3.2638,0.0,3.3605,0.0,0.0,0.0,0.0,0.0,0.0,0.0,0.0,0.0,0.0,0.0,0.0,0.0,0.0,0.0,0.0,0.0,0.0,1.6477,1.5668,1.5288,1.5517,1.586,1.586,1.586,1.586,1.586,1.5508,1.5084,1.5163,1.445,1.4118,1.5821,0.0,0.0,0.0,1.8533,1.8897,1.886,1.754,1.6431,1.6431,1.5148,1.4088,1.4088,1.4088,1.4088,1.4088,1.4088,1.4088,1.4088,1.4088,1.4175,1.4475,1.4166,1.4318,1.5164,1.4867,1.3724,1.194,1.0006,0.8336,0.7003,0.4916,0.3317,0.2013,0.131,0.0302,-0.1109,-0.2414,-0.3817,-0.5122,-0.6429,-0.8513,-1.1072,-1.1658,-1.3108,-1.4949,-1.5534,-1.5832,-1.5832,-1.5832,-1.6204,-1.6951,0.0,0.0,0.0,0.0,0.0,0.0,0.0,2.231,2.231,2.231,2.231,2.253,2.3105,2.346,2.4114,0.0,0.0,0.0,0.0,0.0,0.0,0.0,0.0,2.6672,2.7326,0.0,0.0,2.9023,3.0725,0.0,0.0,0.0,0.0,0.0,3.3707,0.0,0.0,0.0,0.0,0.0,0.0,0.0,0.0,0.0,0.0,0.0,0.0,0.0,0.0,0.0,1.4885,1.3513,1.4307,1.4736,1.4879,1.4879,1.4879,1.4879,1.4879,1.4314,1.381,1.445,1.3448,1.2875,1.5072,1.5141,0.0,1.6635,1.7104,1.7329,1.7295,1.6423,1.5727,0.0,1.4761,1.4088,1.4088,1.4088,1.4088,1.4088,1.4088,1.3997,1.373,1.373,1.3709,1.3806,1.3136,1.3295,1.4564,1.3599,1.2017,0.9685,0.8255,0.6755,0.5138,0.3017,0.1811,0.1511,0.0202,-0.1009,-0.2015,-0.3718,-0.502,-0.6029,-0.7434,-0.9513,-1.1863,-1.1935,-1.3482,-1.5832,-1.5832,-1.5832,-1.5832,-1.5832,-1.5832,-1.613,0.0,0.0,0.0,0.0,0.0,0.0,0.0,2.231,2.231,2.231,2.231,2.2344,2.2395,2.3025,2.3752,0.0,0.0,0.0,0.0,0.0,0.0,0.0,0.0,0.0,0.0,0.0,0.0,2.7253,2.8971,0.0,0.0,0.0,0.0,0.0,0.0,3.3437,3.3634,0.0,0.0,0.0,0.0,0.0,0.0,0.0,0.0,0.0,0.0,0.0,0.0,0.0,0.0,1.2384,1.2505,1.3164,1.3818,1.3818,0.0,0.0,1.3818,1.3745,1.3528,1.2732,1.2445,1.2472,1.3307,0.0,1.5013,1.5695,1.6606,1.7327,1.7315,1.6423,1.5727,0.0,0.0,1.4088,1.4088,1.4088,1.4088,1.4088,1.4088,1.3646,1.2589,1.2498,1.2198,1.1615,1.1818,1.2119,1.2189,1.1044,0.9665,0.8244,0.6907,0.491,0.2425,0.211,0.1406,0.0202,-0.1212,-0.192,-0.2121,-0.4628,-0.5929,-0.6029,-0.7434,-0.9529,-1.1908,-1.19,-1.3437,-1.5832,-1.5832,-1.5832,-1.5832,-1.5832,-1.5832,-1.615,0.0,0.0,0.0,0.0,0.0,0.0,0.0,2.231,2.231,2.231,2.231,2.231,2.231,2.2564,2.3038,0.0,0.0,0.0,0.0,0.0,0.0,0.0,0.0,0.0,0.0,0.0,0.0,2.7164,2.8355,0.0,0.0,0.0,0.0,0.0,0.0,3.3522,3.3343,0.0,0.0,0.0,0.0,0.0,0.0,0.0,0.0,0.0,0.0,0.0,0.0,0.0,0.0,0.0,1.1385,1.1236,0.0,0.0,1.197,1.1822,1.123,1.1075,1.1081,1.1316,1.1391,1.17,1.2735,0.0,1.3929,1.4343,1.4951,1.5346,1.5346,1.5043,1.4754,0.0,0.0,0.0,1.4088,1.4088,1.3822,1.3118,1.3027,1.2595,1.1381,1.1295,1.0968,1.014,1.0491,1.0002,0.8434,0.8612,0.8144,0.6816,0.472,0.3123,0.2022,0.121,0.0504,0.0,-0.1314,-0.2423,-0.3221,-0.5131,-0.6437,-0.7235,-0.866,-1.019,-1.1924,-1.2807,-1.4208,-1.5832,-1.5832,-1.5832,-1.5832,-1.5832,-1.6265,-1.7239,0.0,0.0,0.0,0.0,0.0,2.231,2.231,2.231,2.231,2.231,2.231,2.231,2.231,2.231,2.2513,2.3038,0.0,0.0,0.0,0.0,0.0,0.0,0.0,0.0,0.0,0.0,0.0,2.669,2.7646,2.8749,0.0,0.0,3.2244,3.3102,0.0,0.0,0.0,0.0,0.0,0.0,0.0,0.0,0.0,0.0,0.0,0.0,0.0,0.0,0.0,0.0,0.0,0.0,0.0,0.0,0.0,0.0,1.034,1.019,0.9523,0.9296,0.9448,1.019,1.0329,1.0697,0.0,0.0,1.2805,1.3458,1.3795,1.399,1.4088,1.4088,1.4088,0.0,0.0,1.4088,1.4088,1.4088,1.3822,1.2942,1.2504,1.1809,1.0697,1.0031,0.9268,0.8287,0.8542,0.7799,0.5532,0.5929,0.5822,0.4816,0.3024,0.1819,0.1415,0.0505,-0.0202,-0.0606,-0.1921,-0.3327,-0.4612,-0.5929,-0.7138,-0.8041,-0.9383,-1.0735,-1.1989,-1.3333,-1.461,-1.5832,-1.5832,-1.5832,-1.5832,-1.5832,-1.6374,-1.7319,0.0,0.0,0.0,0.0,0.0,0.0,0.0,2.231,2.231,2.231,2.231,2.231,2.231,2.231,2.231,2.2327,0.0,0.0,0.0,0.0,0.0,0.0,0.0,0.0,0.0,0.0,0.0,2.5205,2.664,2.7459,2.7777,2.9929,3.1099,3.1466,0.0,0.0,0.0,0.0,0.0,0.0,0.0,0.0,0.0,0.0,0.0,0.0,0.0,0.0,0.0,0.0,0.0,0.0,0.0,0.0,0.0,0.0,0.9296,0.9301,0.9296,0.9296,0.9296,0.9301,0.9336,0.967,0.0,1.123,1.1708,1.3278,1.3607,1.3704,1.4082,1.4088,1.4088,1.4088,1.4088,0.0,1.4088,1.4088,1.4088,1.4088,1.3027,1.1809,1.0697,0.877,0.7114,0.5782,0.5899,0.5425,0.4116,0.2815,0.2016,0.2021,0.2022,0.1314,0.0,0.0,-0.0707,-0.2022,-0.334,-0.4638,-0.6004,-0.7325,-0.7939,-0.8041,-0.9383,-1.0735,-1.1979,-1.3375,-1.4665,-1.5832,-1.5832,-1.5832,-1.5832,-1.5832,-1.5832,-1.6149,0.0,0.0,0.0,0.0,0.0,0.0,0.0,2.231,2.231,2.231,2.231,2.231,2.231,2.231,2.231,2.231,0.0,0.0,0.0,0.0,0.0,0.0,0.0,0.0,0.0,0.0,0.0,0.0,0.0,2.7363,2.8265,2.8942,3.0017,3.1412,3.1629,0.0,0.0,0.0,0.0,0.0,0.0,0.0,0.0,0.0,0.0,0.0,0.0,0.0,0.0,0.0,0.0,0.0,0.0,0.0,0.0,0.0,0.0,0.0,0.7403,0.7253,0.7399,0.8138,0.8273,0.8543,0.9654,1.0027,1.0335,1.0952,1.1883,1.2683,1.2851,1.3574,1.3822,1.3027,1.3555,0.0,0.0,1.2339,1.2248,1.0707,0.8769,0.7457,0.7112,0.5847,0.4862,0.436,0.4568,0.4067,0.2712,0.2213,0.2014,0.2016,0.111,0.0404,0.0,-0.0909,-0.1617,-0.2022,-0.4325,-0.5615,-0.6004,-0.7425,-0.8038,-0.8141,-1.0319,-1.1545,-1.2032,-1.4297,-1.5406,-1.5832,-1.5832,-1.5832,-1.5832,-1.5832,-1.6367,-1.7319,0.0,0.0,0.0,0.0,0.0,0.0,0.0,2.2377,2.231,2.231,2.231,2.231,2.231,2.231,2.231,2.231,0.0,0.0,0.0,0.0,0.0,0.0,0.0,0.0,0.0,0.0,0.0,0.0,0.0,0.0,0.0,2.8276,2.9204,3.052,3.0949,0.0,0.0,0.0,0.0,0.0,0.0,0.0,2.3078,0.0,0.0,0.0,0.0,0.0,0.0,0.0,0.0,0.0,0.0,0.0,0.0,0.0,0.6718,0.7099,0.0,0.6338,0.6486,0.708,0.7226,0.0,0.0,0.8898,0.9145,0.9683,1.0626,1.1297,1.1521,1.2202,1.2516,1.1815,1.2254,1.2077,1.0159,1.0494,1.0144,0.7804,0.6225,0.5169,0.4732,0.4186,0.3623,0.3035,0.3192,0.2663,0.1308,0.1209,0.1007,0.0503,-0.0302,-0.0706,-0.0705,-0.2116,-0.3022,-0.3522,-0.5211,-0.6307,-0.6813,-0.763,-0.8247,-0.8862,-1.0947,-1.2211,0.0,-1.4975,-1.5832,-1.5832,-1.5832,-1.5832,-1.5832,-1.5832,-1.6265,-1.7137,0.0,0.0,0.0,0.0,0.0,0.0,0.0,0.0,0.0,0.0,2.231,2.231,2.231,2.231,2.231,0.0,0.0,0.0,0.0,0.0,0.0,0.0,0.0,0.0,0.0,0.0,0.0,2.6691,2.6691,2.6691,2.6708,0.0,0.0,2.9045,3.0108,0.0,0.0,0.0,0.0,0.0,0.0,0.0,0.0,0.0,0.0,0.0,0.0,0.0,0.0,0.0,0.0,0.0,0.0,0.0,0.0,0.0,0.0,0.0,0.0,0.6338,0.6338,0.6338,0.6338,0.0,0.0,0.0,0.0,0.9261,0.9663,0.9854,1.0243,1.0459,1.0611,1.0524,1.0519,0.9986,0.874,0.8475,0.7596,0.5406,0.5144,0.4619,0.3568,0.3544,0.2969,0.1802,0.1739,0.1281,-0.0101,-0.0101,-0.0807,-0.2113,-0.2213,-0.2211,-0.2104,-0.351,-0.4812,-0.6004,-0.6103,-0.6813,-0.8038,-0.8134,-0.8847,-1.0095,-1.1444,-1.2715,-1.4028,-1.5292,-1.5832,-1.5832,-1.5832,-1.5832,-1.5832,-1.5832,-1.5832,-1.5947,0.0,0.0,0.0,0.0,0.0,0.0,0.0,0.0,0.0,0.0,2.2426,2.231,2.231,2.231,2.231,0.0,0.0,0.0,0.0,0.0,0.0,0.0,0.0,0.0,0.0,0.0,0.0,2.6691,2.6691,2.6691,2.6708,2.6995,0.0,0.0,0.0,0.0,0.0,0.0,0.0,0.0,0.0,0.0,0.0,0.0,0.0,0.0,2.0846,1.8655,0.0,0.0,0.0,0.0,0.0,0.0,0.0,0.0,0.6338,0.6338,0.6338,0.0,0.6338,0.6338,0.6338,0.6342,0.0,0.0,0.0,0.0,0.0,0.0,0.0,0.9952,1.0351,0.9405,0.9291,0.8487,0.6492,0.5427,0.4625,0.4098,0.321,0.25,0.2236,0.144,0.0729,0.0465,0.0474,-0.0097,-0.1477,-0.1499,-0.2113,-0.3515,-0.452,-0.4518,-0.3506,-0.4906,-0.5705,-0.6004,-0.7018,-0.7733,-0.8038,-0.9068,-0.9734,-1.0138,-1.2475,-1.3605,-1.4028,-1.5292,-1.5832,-1.5832,-1.5832,-1.5832,-1.5832,-1.5832,-1.5832,-1.5947,0.0,0.0,0.0,0.0,0.0,0.0,0.0,0.0,0.0,0.0,0.0,0.0,0.0,0.0,0.0,0.0,0.0,0.0,0.0,0.0,0.0,0.0,0.0,0.0,0.0,0.0,0.0,0.0,0.0,2.6691,0.0,0.0,0.0,0.0,0.0,0.0,0.0,0.0,0.0,0.0,2.5218,0.0,0.0,0.0,0.0,0.0,2.091,1.8787,0.0,1.305,1.0855,0.8917,0.0,0.0,0.0,0.0,0.6338,0.6338,0.6338,0.6338,0.6338,0.6338,0.6338,0.6338,0.6338,0.0,0.0,0.0,0.0,0.0,0.0,0.7655,0.7807,0.6669,0.6477,0.5766,0.4016,0.2683,0.1969,0.1969,0.1344,0.0986,0.0986,0.0359,-0.0272,-0.0738,-0.0847,-0.144,-0.2735,-0.2886,-0.3516,-0.492,-0.5627,-0.5625,-0.4914,-0.6216,-0.6915,-0.6915,-0.763,-0.8038,-0.8038,-0.9363,-1.0277,-1.0986,-1.3037,-1.4236,-1.4867,-1.5514,-1.5832,-1.5832,-1.5832,-1.5832,-1.5832,-1.5832,-1.5832,-1.5933,0.0,0.0,0.0,0.0,0.0,0.0,0.0,0.0,0.0,0.0,0.0,0.0,0.0,0.0,0.0,0.0,0.0,0.0,0.0,0.0,0.0,0.0,0.0,0.0,0.0,0.0,0.0,0.0,0.0,0.0,0.0,0.0,2.752,0.0,0.0,0.0,0.0,0.0,0.0,0.0,2.6466,0.0,0.0,0.0,0.0,0.0,0.0,0.0,0.0,1.2892,1.0701,0.8983,0.6945,0.0,0.0,0.0,0.0,0.0,0.6338,0.618,0.6099,0.6261,0.6338,0.6261,0.6109,0.0,0.0,0.0,0.0,0.0,0.0,0.5023,0.0,0.0,0.3481,0.2948,0.1701,0.0628,0.0,0.0,0.0,0.0,0.0,-0.018,-0.0723,-0.1744,-0.2061,-0.2767,-0.4082,-0.4256,-0.4906,-0.6229,-0.6526,-0.6625,-0.6625,-0.7534,-0.8038,-0.8038,-0.8237,-0.8333,-0.8333,-0.9874,-1.1158,-1.2289,-1.3619,-1.4772,-1.5832,-1.5832,-1.5832,-1.5832,-1.5832,-1.5832,-1.5832,-1.5832,-1.5832,-1.5832,0.0,0.0,0.0,0.0,0.0,0.0,0.0,0.0,0.0,0.0,0.0,0.0,0.0,0.0,0.0,0.0,0.0,0.0,0.0,0.0,0.0,0.0,0.0,0.0,0.0,0.0,0.0,0.0,0.0,0.0,2.6691,2.6691,2.752,2.9042,0.0,3.0393,3.0208,2.8419,2.7263,2.6445,2.5242,0.0,0.0,0.0,0.0,0.0,0.0,0.0,0.0,1.2116,1.0205,0.8939,0.6938,0.0,0.0,0.0,0.0,0.0,0.6338,0.5622,0.5148,0.6099,0.6338,0.6032,0.5121,0.0,0.0,0.0,0.0,0.0,0.0,0.4363,0.3851,0.0,0.2771,0.1612,0.0449,0.009,0.0,0.0,0.0,0.0,0.0,-0.0897,-0.1614,-0.1798,-0.2746,-0.4012,-0.5424,-0.5531,-0.6224,-0.7633,-0.8817,-0.9402,-0.9402,-0.8428,-0.8038,-0.8041,-0.9118,-0.9706,-0.9801,-1.2221,-1.3369,-1.3634,-1.4918,-1.5615,-1.5832,-1.5832,-1.5832,-1.5832,-1.5832,-1.5832,-1.5832,-1.5832,-1.5832,-1.6055,0.0,0.0,0.0,0.0,0.0,0.0,0.0,0.0,0.0,0.0,0.0,0.0,0.0,0.0,0.0,0.0,0.0,0.0,0.0,0.0,0.0,0.0,0.0,0.0,0.0,0.0,0.0,0.0,0.0,2.721,2.7053,2.7658,2.8315,2.9042,0.0,3.0617,3.0208,2.9025,2.7701,2.6378,0.0,0.0,0.0,0.0,0.0,0.0,0.0,0.0,0.0,0.0,1.0948,0.9049,0.7581,0.0,0.0,0.0,0.0,0.0,0.6338,0.5541,0.4836,0.5338,0.5026,0.4472,0.3925,0.4231,0.0,0.0,0.0,0.0,0.0,0.0,0.2443,0.1784,0.1165,0.0628,0.009,0.0,-0.0269,-0.0897,-0.0986,-0.1254,-0.1879,-0.2413,-0.3038,-0.3664,-0.4371,-0.5296,-0.6732,-0.7521,-0.8344,-0.9011,-1.0386,-1.1072,-1.1072,-1.0386,-1.0092,-1.0092,-1.0779,-1.1072,-1.1068,-1.3006,-1.3878,-1.3974,-1.5242,-1.5832,-1.5832,-1.5832,-1.5832,-1.5832,-1.5832,-1.5832,-1.5832,-1.5832,-1.6271,-1.7037,0.0,0.0,0.0,0.0,0.0,0.0,0.0,0.0,0.0,0.0,0.0,0.0,0.0,0.0,0.0,0.0,0.0,0.0,0.0,0.0,0.0,0.0,0.0,0.0,0.0,0.0,2.7348,2.7147,2.7255,2.7241,2.7181,2.8423,2.9011,2.9042,0.0,3.074,3.0251,2.9496,2.8155,2.6441,0.0,0.0,0.0,0.0,0.0,0.0,0.0,0.0,0.0,0.0,0.0,0.0,0.0,0.0,0.0,0.6338,0.6338,0.6338,0.6338,0.5541,0.4683,0.4716,0.0,0.3067,0.2818,0.2895,0.0,0.0,0.0,0.0,0.0,0.1459,0.1055,0.0179,-0.0269,-0.0449,-0.0449,-0.0628,-0.1165,-0.2147,-0.2236,-0.2592,-0.3481,-0.3838,-0.4374,-0.5359,-0.5978,-0.6822,-0.7902,-0.9366,-1.021,-1.0312,-1.1623,-1.2334,-1.2334,-1.2624,-1.2528,-1.1945,-1.2237,-1.2334,-1.2431,-1.3782,-1.4364,-1.4364,-1.5343,-1.5832,-1.5832,-1.5832,-1.5832,-1.5832,-1.5832,-1.5832,-1.5832,-1.5832,-1.6445,-1.7468,0.0,0.0,0.0,0.0,0.0,0.0,0.0,0.0,0.0,0.0,0.0,0.0,0.0,0.0,0.0,0.0,0.0,0.0,0.0,0.0,0.0,0.0,0.0,0.0,0.0,2.7439,2.747,2.6758,2.7115,2.7115,2.6792,2.83,2.9011,2.9042,0.0,3.0335,3.0208,2.9042,2.7714,2.6329,2.5727,0.0,0.0,0.0,0.0,0.0,0.0,0.0,0.0,0.0,0.0,0.0,0.0,0.0,0.6338,0.6338,0.6338,0.6338,0.6338,0.5541,0.4675,0.4678,0.3917,0.0,0.1886,0.2427,0.0,0.188,0.0,0.0,0.0,0.0783,0.009,0.0,-0.0897,-0.17,-0.17,-0.2592,-0.3393,-0.3481,-0.3481,-0.3481,-0.357,-0.4641,-0.527,-0.5359,-0.7401,-0.8722,-0.8984,-1.036,-1.1213,-1.1422,-1.2885,-1.3776,-1.3776,-1.4949,-1.4274,-1.195,-1.3199,-1.3776,-1.3776,-1.5045,-1.5635,-1.5635,-1.573,-1.5832,-1.5832,-1.5832,-1.5832,-1.5832,-1.5832,-1.5832,-1.5832,-1.5832,-1.5825,-1.6292,0.0,0.0,0.0,0.0,0.0,0.0,0.0,0.0,0.0,0.0,0.0,0.0,0.0,0.0,0.0,0.0,0.0,0.0,0.0,0.0,0.0,0.0,0.0,2.7272,2.6725,2.747,2.7619,2.7083,2.7241,2.7324,2.7418,2.8484,0.0,0.0,0.0,0.0,2.9673,2.837,2.6787,2.5175,2.4484,2.3406,0.0,0.0,0.0,0.0,0.0,0.0,0.0,0.0,1.2305,0.9994,0.0,0.7626,0.6338,0.6338,0.6338,0.618,0.5464,0.4535,0.3526,0.2898,0.196,0.0,0.0,0.1879,0.1879,0.0784,0.0628,0.0,0.0,0.0,0.0,0.0,-0.0986,-0.179,-0.179,-0.2858,-0.3837,-0.4641,-0.4732,-0.4999,-0.5708,-0.6858,-0.7566,-0.7566,-0.9048,-1.0012,-1.0131,-1.1615,-1.2584,-1.272,-1.4224,-1.5045,-1.5045,-1.5534,-1.5343,-1.437,-1.4854,-1.5045,-1.514,-1.554,-1.5832,-1.5832,-1.5832,-1.5832,-1.5832,-1.5832,-1.5832,-1.5832,-1.5832,-1.5832,-1.5832,-1.5832,-1.6749,-1.8249,0.0,0.0,0.0,0.0,0.0,0.0,0.0,0.0,0.0,0.0,0.0,0.0,0.0,0.0,0.0,0.0,0.0,0.0,0.0,0.0,0.0,0.0,0.0,2.7241,2.6725,2.7348,2.75,2.7115,2.7115,2.7365,2.7806,0.0,0.0,0.0,0.0,0.0,2.9316,2.8227,2.6688,2.5015,2.4314,2.3188,0.0,0.0,0.0,0.0,0.0,0.0,0.0,0.0,1.3401,0.0,0.0,0.0,0.674,0.6419,0.6022,0.5625,0.4927,0.3923,0.2912,0.0,0.0,0.0,0.1487,0.1331,0.0863,0.0157,0.0,-0.0081,-0.0502,0.0,0.0,-0.0986,-0.179,-0.2504,-0.2861,-0.3927,-0.4996,-0.5802,-0.5894,-0.6425,-0.7577,-0.8452,-0.9065,-0.9405,-1.0524,-1.1197,-1.1273,-1.2767,-1.3664,-1.3927,-1.5058,-1.5732,-1.5832,-1.5832,-1.5832,-1.5832,-1.5832,-1.5832,-1.5832,-1.5832,-1.5832,-1.5832,-1.5832,-1.5832,-1.5832,-1.5832,-1.5832,-1.5832,-1.5832,-1.5832,-1.5832,-1.5832,-1.7117,-1.8996,0.0,0.0,0.0,0.0,0.0,0.0,0.0,0.0,0.0,0.0,0.0,0.0,0.0,0.0,0.0,0.0,0.0,0.0,0.0,0.0,0.0,0.0,0.0,2.75,2.6725,2.7083,2.7083,2.6691,2.6691,2.708,2.7806,2.8619,0.0,0.0,0.0,0.0,2.9361,2.8732,2.761,2.6213,2.5593,2.4482,2.3078,0.0,0.0,0.0,0.0,0.0,0.0,0.0,1.3823,1.1874,0.0,0.0,0.0,0.6581,0.5544,0.4683,0.4726,0.3942,0.3067,0.0,0.0,0.0,0.1802,0.0784,0.0,0.0,0.0,-0.0421,-0.1594,-0.0871,0.0,-0.3213,-0.357,-0.4016,-0.5267,-0.6337,-0.7139,-0.7139,-0.7139,-0.7577,-0.8803,-0.889,-0.9405,-1.0524,-1.1643,-1.2328,-1.2328,-1.3732,-1.4656,-1.495,-1.5244,-1.5538,-1.5825,-1.5832,-1.5832,-1.5832,-1.5832,-1.5832,-1.5832,-1.5832,-1.5832,-1.5832,-1.5832,-1.5832,-1.5832,-1.5832,-1.5832,-1.5832,-1.5832,-1.5832,-1.5832,-1.5825,-1.6662,-1.787,0.0,0.0,0.0,0.0,0.0,0.0,0.0,0.0,0.0,0.0,0.0,0.0,0.0,0.0,0.0,0.0,0.0,0.0,0.0,0.0,0.0,0.0,0.0,0.0,0.0,0.0,2.6808,2.6691,2.6691,2.7368,0.0,0.0,0.0,2.9938,0.0,0.0,2.7891,2.6781,2.5776,2.485,2.4083,2.3526,2.3078,0.0,0.0,0.0,0.0,0.0,0.0,0.0,0.0,0.0,0.0,0.0,0.0,0.6581,0.6099,0.5476,0.4012,0.3381,0.0,0.1255,0.0,0.0,0.0,0.0784,0.0,0.0,-0.0651,-0.1343,-0.1761,-0.2172,-0.2769,-0.3481,-0.4285,-0.4999,-0.5359,-0.6337,-0.7404,-0.8277,-0.8364,-0.8798,-1.0009,-1.0783,-1.1466,-1.1815,-1.2857,-1.3561,-1.3561,-1.4183,-1.4656,-1.495,-1.5244,-1.5538,-1.5825,-1.5832,-1.5832,-1.5832,-1.5832,-1.5832,-1.5832,-1.5832,-1.5832,-1.5832,-1.5832,-1.5832,-1.5832,-1.5832,-1.5832,-1.5832,-1.5832,-1.5832,-1.592,-1.6857,-1.7956,-1.9155,0.0,0.0,0.0,0.0,0.0,0.0,0.0,0.0,0.0,0.0,0.0,0.0,0.0,0.0,0.0,0.0,0.0,0.0,0.0,0.0,0.0,0.0,0.0,0.0,0.0,2.6691,2.6624,0.0,0.0,0.0,0.0,0.0,2.8443,2.954,0.0,2.7692,0.0,2.5859,2.4987,2.4249,2.3752,2.3174,2.2637,0.0,0.0,0.0,0.0,0.0,0.0,0.0,0.0,0.0,0.0,0.0,0.0,0.618,0.5398,0.4626,0.2979,0.2194,0.0,0.0314,0.0,0.0,0.0,0.0,0.0,0.0,-0.1625,-0.2596,-0.3014,-0.3383,-0.3926,-0.4816,-0.5176,-0.5536,-0.5983,-0.7044,-0.8101,-0.8803,-0.9323,-1.0009,-1.1123,-1.1895,-1.2504,-1.2942,-1.373,-1.4088,-1.4088,-1.4255,-1.4536,-1.495,-1.5137,-1.5418,-1.5825,-1.5832,-1.5832,-1.5832,-1.5832,-1.5832,-1.5832,-1.5832,-1.5832,-1.5832,-1.5832,-1.5832,-1.5832,-1.5832,-1.5832,-1.5832,-1.5832,-1.5832,-1.592,-1.7225,-1.845,-1.9696,0.0,0.0,0.0,0.0,0.0,0.0,0.0,0.0,0.0,0.0,0.0,0.0,0.0,0.0,0.0,0.0,0.0,0.0,0.0,0.0,0.0,0.0,0.0,0.0,0.0,0.0,0.0,0.0,0.0,0.0,0.0,0.0,2.7652,2.8386,0.0,2.6956,2.6279,2.5593,2.4887,2.4186,2.4086,2.3228,2.1874,2.1837,0.0,0.0,0.0,0.0,0.0,0.0,0.0,0.0,0.0,0.9266,0.869,0.5702,0.4073,0.2989,0.2031,0.0939,0.0,0.0,0.0,0.0,-0.0157,-0.0941,-0.1725,-0.165,0.0,-0.3853,-0.4949,-0.4426,-0.4639,-0.6782,-0.6337,-0.6068,-0.7136,-0.8277,-0.9061,-0.9235,-1.0096,-1.1214,-1.2328,-1.2498,-1.2942,-1.3997,-1.4088,-1.4088,-1.4088,-1.4088,-1.4355,-1.4943,-1.4963,-1.5244,-1.5818,-1.5832,-1.5832,-1.5832,-1.5832,-1.5832,-1.5832,-1.5832,-1.5832,-1.5832,-1.5832,-1.5832,-1.5832,-1.5832,-1.5832,-1.5832,-1.5832,-1.5832,-1.6015,-1.7311,-1.8597,-1.9728,0.0,0.0,0.0,0.0,0.0,0.0,0.0,0.0,0.0,0.0,0.0,0.0,0.0,0.0,0.0,0.0,0.0,0.0,0.0,0.0,0.0,0.0,0.0,0.0,0.0,0.0,0.0,0.0,0.0,0.0,0.0,0.0,0.0,2.7596,0.0,2.5988,2.4769,2.4595,2.4096,2.3331,2.2665,2.2191,2.1825,2.1175,1.9764,0.0,0.0,0.0,0.0,0.0,0.0,0.0,1.0013,0.9266,0.885,0.6581,0.5182,0.4099,0.3056,0.2035,0.0,0.0,0.0,-0.0236,-0.1097,-0.2034,-0.2592,-0.1923,-0.3367,-0.4878,-0.5222,-0.5877,-0.6514,-0.7051,-0.7661,-0.8273,-0.8452,-0.9492,-1.0611,-1.1466,-1.1809,-1.2419,-1.3561,-1.373,-1.3822,-1.4088,-1.4088,-1.4088,-1.4088,-1.4088,-1.4355,-1.4943,-1.4963,-1.5244,-1.5818,-1.5832,-1.5832,-1.5832,-1.5832,-1.5832,-1.5832,-1.5832,-1.5832,-1.5832,-1.5832,-1.5832,-1.5832,-1.5832,-1.5832,-1.5832,-1.5832,-1.5832,-1.6109,-1.8311,-1.932,-1.9795,0.0,0.0,0.0,0.0,0.0,0.0,0.0,0.0,0.0,0.0,0.0,0.0,0.0,0.0,0.0,0.0,0.0,0.0,0.0,0.0,0.0,0.0,0.0,0.0,0.0,0.0,0.0,0.0,0.0,0.0,0.0,0.0,0.0,2.6928,0.0,2.5374,2.4253,2.3892,2.3249,2.2468,2.2055,2.1407,2.0537,1.966,1.8466,1.7173,1.6211,0.0,0.0,0.0,0.0,0.0,0.0,0.0,0.8932,0.6821,0.5171,0.369,0.2668,0.0,0.0,0.0157,0.0,-0.0157,-0.0706,-0.2034,-0.2999,-0.2697,-0.4398,-0.5898,-0.612,-0.6689,-0.7139,-0.7139,-0.8101,-0.889,-0.889,-1.0351,-1.1638,-1.2242,-1.2851,-1.3379,-1.3997,-1.4088,-1.4088,-1.4088,-1.4088,-1.4088,-1.4088,-1.4088,-1.4355,-1.4943,-1.4963,-1.5244,-1.5818,-1.5832,-1.5832,-1.5832,-1.5832,-1.5832,-1.5832,-1.5832,-1.5832,-1.5832,-1.5832,-1.5832,-1.5825,-1.648,-1.6669,-1.6756,-1.7397,-1.7576,-1.7755,-1.9662,-2.0335,-2.0663,0.0,0.0,0.0,0.0,0.0,0.0,0.0,0.0,0.0,0.0,0.0,0.0,0.0,0.0,0.0,0.0,0.0,0.0,0.0,0.0,0.0,0.0,2.7908,0.0,0.0,0.0,0.0,0.0,0.0,0.0,0.0,0.0,0.0,2.6293,0.0,2.4765,2.4044,2.3257,2.254,2.1886,2.1544,2.0504,1.8937,1.8018,1.7036,1.5878,1.4294,1.3572,1.3314,1.2553,0.0,0.0,0.0,0.0,0.8952,0.7049,0.5002,0.3124,0.2117,0.0,0.0,0.0,0.0,0.0,-0.0236,-0.1721,-0.3245,-0.3733,-0.5358,-0.6756,-0.6932,-0.7061,-0.7139,-0.7404,-0.8452,-0.9235,-0.9492,-1.13,-1.2589,-1.2589,-1.347,-1.4088,-1.4088,-1.4088,-1.4088,-1.4088,-1.4088,-1.4088,-1.4088,-1.4088,-1.4355,-1.4943,-1.4963,-1.5244,-1.5818,-1.5832,-1.5832,-1.5832,-1.5832,-1.5832,-1.5832,-1.5832,-1.5832,-1.5825,-1.6015,-1.6109,-1.6204,-1.7498,-1.8048,-1.8141,-1.9131,-1.9497,-1.9679,-2.0863,-2.1284,-2.1454,0.0,0.0,0.0,0.0,0.0,0.0,0.0,0.0,0.0,0.0,0.0,0.0,0.0,0.0,0.0,0.0,0.0,0.0,2.765,0.0,0.0,2.7924,2.7921,2.753,0.0,0.0,0.0,0.0,0.0,0.0,0.0,0.0,0.0,2.5532,0.0,0.0,2.3196,2.2404,2.197,2.1789,2.0249,1.9028,1.8008,1.7116,1.5677,1.4041,1.3793,1.3145,1.2472,1.2305,1.2305,0.0,0.0,0.0,0.909,0.7889,0.6103,0.4288,0.0,0.0,0.0,0.0,0.0,-0.0235,0.0,0.0,-0.3403,0.0,-0.5859,-0.6783,-0.7061,-0.7129,-0.7401,-0.8452,-0.9662,-1.0697,-1.1724,-1.3033,-1.3822,-1.3822,-1.3997,-1.4088,-1.4088,-1.4088,-1.4088,-1.4088,-1.4088,-1.4088,-1.4088,-1.4088,-1.4355,-1.4943,-1.4963,-1.5244,-1.5818,-1.5832,-1.5832,-1.5832,-1.5832,-1.5832,-1.5832,-1.5832,-1.5832,-1.5825,-1.6943,-1.7412,-1.7498,-1.8772,-1.9222,-1.9314,-1.9405,-1.9497,-1.9687,-2.0835,-2.1329,-2.1454,0.0,0.0,0.0,0.0,0.0,0.0,0.0,0.0,0.0,0.0,0.0,0.0,0.0,0.0,0.0,2.6301,2.7002,2.7714,2.8429,2.8585,2.8452,2.7924,2.768,2.716,2.6337,0.0,0.0,0.0,0.0,0.0,0.0,2.4214,2.4418,0.0,0.0,0.0,0.0,2.2055,2.1369,2.0324,1.9044,1.8008,1.6999,1.5562,1.4408,1.3653,1.3065,1.264,1.2305,1.2305,1.2305,1.2131,1.1144,0.0,0.0,0.0,0.674,0.5076,0.2896,0.1568,0.0786,0.0,0.0,-0.0157,-0.0628,-0.1956,-0.3324,-0.4064,-0.5524,-0.679,-0.7085,-0.7665,-0.8277,-0.8803,-1.0351,-1.1724,-1.2242,-1.3379,-1.4088,-1.4088,-1.4088,-1.4088,-1.4088,-1.4088,-1.4088,-1.4088,-1.4088,-1.4088,-1.4088,-1.4088,-1.4355,-1.4943,-1.4963,-1.5244,-1.5818,-1.5832,-1.5832,-1.5832,-1.5832,-1.5832,-1.5832,-1.5832,-1.5832,-1.5825,-1.7131,-1.7318,-1.685,-1.9397,-2.0124,-1.9588,-2.0953,-2.1498,-2.1596,-2.2078,-2.2321,-2.226,0.0,0.0,0.0,0.0,0.0,0.0,0.0,0.0,0.0,0.0,0.0,0.0,0.0,0.0,0.0,0.0,2.7543,2.8143,2.8962,2.8714,2.8366,2.7911,2.7601,2.6991,2.6034,0.0,0.0,0.0,0.0,0.0,2.4455,2.3752,2.39,0.0,2.404,0.0,0.0,0.0,0.0,1.9213,1.8018,1.7005,1.6044,1.439,1.3564,1.3233,1.2553,1.2305,1.2305,1.2305,1.2305,1.2137,1.1396,1.0804,0.0,0.0,0.0,0.0,0.0,0.0,0.1335,0.0236,0.0,-0.0079,0.0,0.0,-0.3245,0.0,-0.5441,-0.6874,-0.7432,-0.8277,-0.8978,-0.9323,-1.1037,-1.2413,-1.2681,-1.3555,-1.4088,-1.4088,-1.4088,-1.4088,-1.4088,-1.4088,-1.4088,-1.4088,-1.4088,-1.425,-1.4489,-1.425,-1.4527,-1.5377,-1.5136,-1.5244,-1.5818,-1.6103,-1.6292,-1.6292,-1.6292,-1.6292,-1.6292,-1.592,-1.6015,-1.6386,-1.7584,-1.7762,-1.7475,-2.0477,-2.1212,-2.0584,-2.2403,-2.3135,-2.3135,-2.3135,-2.2921,-2.2465,0.0,0.0,0.0,0.0,0.0,0.0,0.0,0.0,0.0,0.0,0.0,0.0,0.0,2.6532,2.6875,2.7677,2.7788,2.8132,2.8962,2.8975,2.8636,2.7939,2.7879,0.0,2.6034,2.5481,0.0,0.0,0.0,0.0,2.4485,2.3702,2.3255,2.3072,2.2381,2.1958,2.1777,0.0,0.0,0.0,0.0,1.6132,0.0,0.0,1.3145,0.0,0.0,1.2305,1.2305,1.2305,1.2305,1.2298,1.2224,1.0895,0.9351,0.0,0.0,0.0,0.0,0.2344,0.0,0.0236,0.0,0.0,0.0,0.0,-0.3482,-0.4724,-0.5942,-0.7122,-0.8562,-0.889,-0.9235,-1.0351,-1.1552,-1.2674,-1.3822,-1.4088,-1.4088,-1.4088,-1.4088,-1.4088,-1.4088,-1.4088,-1.4088,-1.4088,-1.4088,-1.4573,-1.5538,-1.465,-1.485,-1.6484,-1.5569,-1.5244,-1.5818,-1.7037,-1.7598,-1.7598,-1.7598,-1.7598,-1.7598,-1.6386,-1.648,-1.7692,-1.8864,-2.0034,-2.1114,-2.2492,-2.296,-2.296,-2.3047,-2.3135,-2.3135,-2.3135,-2.2349,-2.1425,0.0,0.0,0.0,0.0,0.0,0.0,0.0,0.0,0.0,0.0,0.0,0.0,0.0,2.6662,2.6991,2.7785,2.7845,2.7976,2.8283,2.8066,2.7792,2.7528,2.7267,2.6599,2.5497,2.5314,0.0,0.0,0.0,2.3591,2.3784,2.3451,2.2955,2.2261,2.2043,2.1257,2.0205,1.9546,0.0,0.0,0.0,0.0,0.0,0.0,0.0,0.0,0.0,0.0,1.123,1.058,1.123,1.197,1.0013,0.9776,1.0045,0.868,0.6601,0.0,0.0,0.0,0.0,0.0236,-0.055,-0.1099,-0.1484,-0.2887,-0.4272,-0.4971,-0.5942,-0.7122,-0.8649,-0.9492,-1.0351,-1.1466,-1.2681,-1.3646,-1.3997,-1.4088,-1.4088,-1.4088,-1.4088,-1.4088,-1.4088,-1.4734,-1.5137,-1.5137,-1.5794,-1.6281,-1.6683,-1.5711,-1.5595,-1.6572,-1.5569,-1.5693,-1.703,-1.7505,-1.8048,-1.8864,-1.8048,-1.8141,-1.8772,-1.7584,-1.8126,-2.0034,-2.0486,-2.0486,-2.0305,-2.2315,-2.2677,-2.2031,-2.2775,-2.3135,-2.3028,-2.2224,-2.1664,-2.1092,0.0,0.0,0.0,0.0,0.0,0.0,0.0,0.0,0.0,0.0,0.0,0.0,0.0,0.0,2.7308,2.7864,2.7883,2.7897,2.7897,2.7656,2.7371,2.7068,2.6782,2.6118,2.4979,2.4934,0.0,0.0,0.0,0.0,0.0,2.2967,2.2346,2.1476,2.1148,2.0399,0.0,0.0,0.0,1.6433,0.0,0.0,1.2505,0.0,0.0,0.0,0.0,0.0,1.0168,0.949,1.017,1.0974,0.8931,0.8971,0.9412,0.7338,0.0,0.0,0.2961,0.0,0.0,0.0,-0.055,-0.1255,-0.1948,-0.3195,-0.443,-0.5471,-0.6194,-0.729,-0.9161,-1.0096,-1.095,-1.2151,-1.3294,-1.4088,-1.4088,-1.4088,-1.4088,-1.4088,-1.4412,-1.4657,-1.4657,-1.5628,-1.6273,-1.6273,-1.6927,-1.7504,-1.7827,-1.6846,-1.6499,-1.7177,-1.6729,-1.7054,-1.8319,-1.868,-1.9314,-2.0124,-1.9314,-1.9314,-2.0034,-1.8864,-1.9405,-2.1293,-2.1293,-2.1033,-2.0854,-2.2413,-2.2589,-2.1933,-2.2309,-2.2465,-2.2339,-2.1107,-2.0448,-1.9884,0.0,0.0,0.0,0.0,0.0,0.0,0.0,0.0,0.0,0.0,0.0,0.0,0.0,0.0,0.0,2.7878,2.7878,2.7878,2.7827,2.7843,2.7433,2.6521,2.6438,2.5816,2.4396,2.4365,2.4111,0.0,0.0,0.0,0.0,0.0,2.1404,2.0502,1.9671,1.9223,1.9114,0.0,1.6597,1.6264,0.0,1.2722,1.3361,0.0,0.0,0.0,1.0678,1.0092,0.0,0.925,0.0,0.0,0.0,0.0,0.0,0.0,0.0,0.0,0.0,0.0,0.0,0.0,0.0,0.0,-0.2644,0.0,-0.3795,-0.6217,-0.6702,-0.7541,-1.01,-1.0611,-1.0956,-1.2151,-1.3379,-1.4088,-1.4088,-1.4088,-1.4088,-1.4088,-1.5061,-1.5613,-1.5613,-1.6683,-1.7342,-1.7342,-1.7334,-1.7908,-1.8957,-1.7997,-1.7681,-1.839,-1.91,-1.948,-1.9579,-2.0747,-2.1293,-2.1382,-2.1293,-2.1293,-2.1293,-2.0124,-2.0215,-2.1382,-2.1382,-2.2031,-2.3135,-2.3135,-2.3135,-2.3018,-2.177,-2.1328,-2.1125,-1.9922,-1.8731,-1.7684,0.0,0.0,0.0,0.0,0.0,0.0,0.0,0.0,0.0,0.0,0.0,0.0,0.0,0.0,2.6657,2.6979,2.7046,2.6911,2.6539,2.6541,2.6236,2.5581,2.5547,2.4991,2.3763,2.4143,2.3831,0.0,0.0,0.0,0.0,0.0,0.0,0.0,1.8667,1.793,1.73,1.6847,0.0,1.4392,1.282,1.1533,0.0,0.0,0.0,0.0,0.0,0.7867,0.8103,0.0,0.8132,0.9005,0.0,0.0,0.0,0.0,0.0,0.0,0.1728,0.0,0.0,0.0,0.0,0.0,-0.2824,0.0,-0.4834,-0.6345,-0.6742,-0.7599,-1.0129,-1.0611,-1.1305,-1.3294,-1.3906,-1.4088,-1.4088,-1.4088,-1.4088,-1.4088,-1.4328,-1.4573,-1.4573,-1.6198,-1.7342,-1.7342,-1.8789,-1.9835,-2.0157,-1.9299,-1.8688,-1.8399,-1.8773,-1.9583,-2.0755,-2.1114,-2.1756,-2.2589,-2.1747,-2.1756,-2.258,-2.1391,-2.1489,-2.2589,-2.2589,-2.2775,-2.3135,-2.3135,-2.3135,-2.3018,-2.177,-2.1255,-2.1004,-1.8928,-1.8014,-1.7574,0.0,0.0,0.0,0.0,0.0,0.0,0.0,0.0,0.0,0.0,0.0,0.0,0.0,0.0,0.0,2.5631,2.5442,2.5183,2.4895,2.4883,2.4623,2.4084,2.4068,2.3762,2.315,2.3435,2.3331,2.2867,0.0,0.0,0.0,0.0,0.0,0.0,0.0,0.0,0.0,0.0,0.0,0.0,1.123,0.0,0.0,0.8378,0.7179,0.0,0.0,0.0,0.6338,0.5306,0.578,0.0,0.0,0.0,0.0,0.0,0.0,0.0,0.0,0.0,0.0,0.0,0.0,0.0,-0.2755,-0.3649,-0.4663,-0.6341,-0.681,-0.7651,-1.0139,-1.0611,-1.1214,-1.3033,-1.3737,-1.4088,-1.4088,-1.4088,-1.4088,-1.4088,-1.4489,-1.4734,-1.4734,-1.6281,-1.7504,-1.798,-1.9195,-2.0167,-2.0566,-2.032,-2.0072,-1.9876,-2.0172,-2.0914,-2.2022,-2.2031,-2.212,-2.2306,-2.1658,-2.1667,-2.2306,-2.1658,-2.1943,-2.3135,-2.3135,-2.3135,-2.3135,-2.3135,-2.2804,-2.2224,-2.0992,-2.021,-1.9577,-1.7658,-1.6918,-1.6809,0.0,0.0,0.0,0.0,0.0,0.0,0.0,0.0,0.0,0.0,0.0,0.0,0.0,0.0,0.0,0.0,2.3619,2.3288,2.3303,2.3295,0.0,2.2629,2.2585,2.2595,2.2589,2.2528,2.2701,2.3053,0.0,0.0,0.0,0.0,0.0,0.0,0.0,0.0,0.0,0.0,0.0,1.2709,0.9227,0.8763,0.0,0.0,0.6817,0.586,0.5867,0.5315,0.4365,0.3424,0.3112,0.0,0.0,0.0,0.0,0.0,0.2123,0.0,0.0,0.0,0.0,0.0,0.0,0.0,-0.2596,-0.3241,-0.4014,-0.6241,-0.683,-0.7673,-0.9971,-1.0438,-1.0869,-1.2066,-1.3203,-1.3906,-1.3906,-1.3997,-1.4088,-1.4088,-1.4977,-1.5538,-1.5538,-1.6519,-1.7577,-1.855,-1.8718,-1.9274,-2.0323,-2.0779,-2.1215,-2.1875,-2.2246,-2.2666,-2.3135,-2.3135,-2.258,-2.148,-2.148,-2.148,-2.148,-2.148,-2.212,-2.3135,-2.3135,-2.3135,-2.3047,-2.296,-2.228,-2.1153,-1.9965,-1.8787,-1.7528,-1.6285,-1.5832,-1.5832,0.0,0.0,0.0,0.0,0.0,0.0,0.0,0.0,0.0,0.0,0.0,0.0,0.0,0.0,0.0,0.0,2.3363,2.3287,2.3311,2.3322,2.3278,2.325,2.3236,2.2957,2.2432,2.2211,2.1916,2.1464,0.0,0.0,0.0,0.0,0.0,0.0,0.0,0.0,0.0,0.0,0.0,0.8827,0.8044,0.0,0.7,0.569,0.4595,0.3736,0.3684,0.3614,0.3377,0.3141,0.3062,0.2982,0.0,0.0,0.0,0.0862,0.0,0.0,0.0,0.0,0.0,0.0,0.0,0.0,-0.2596,-0.3322,-0.4122,-0.6225,-0.691,-0.7541,-0.8969,-0.9235,-0.9923,-1.1986,-1.2504,-1.2674,-1.2674,-1.347,-1.4088,-1.4088,-1.425,-1.4412,-1.4412,-1.5379,-1.6108,-1.6355,-1.7172,-1.8149,-1.9274,-1.9356,-2.0155,-2.1865,-2.1963,-2.2373,-2.3135,-2.3135,-2.296,-2.2775,-2.2775,-2.2775,-2.2775,-2.2775,-2.2862,-2.3135,-2.3135,-2.3135,-2.3047,-2.2031,-2.1542,-2.1221,-2.0013,-1.8781,-1.7561,-1.6289,-1.5832,-1.5832,0.0,0.0,0.0,0.0,0.0,0.0,0.0,0.0,0.0,0.0,0.0,0.0,0.0,0.0,0.0,0.0,0.0,0.0,0.0,0.0,2.1562,2.1176,2.117,2.1104,2.1071,2.0974,2.0895,2.082,0.0,0.0,0.0,0.0,0.0,0.0,0.0,0.0,0.0,0.0,0.8237,0.7696,0.6623,0.0,0.5263,0.4231,0.3207,0.2344,0.2356,0.2044,0.1572,0.1572,0.1572,0.0,0.1572,0.1253,0.0781,0.0,0.0393,0.0,0.0,0.0,0.0,0.0,0.0,0.0,0.0,-0.2997,-0.4044,-0.5553,-0.6505,-0.7492,-0.8715,-0.889,-0.9497,-1.1209,-1.1895,-1.2328,-1.2328,-1.3379,-1.4088,-1.4088,-1.4088,-1.4088,-1.4088,-1.4573,-1.5137,-1.5703,-1.6683,-1.7827,-1.8957,-1.847,-1.9236,-2.1461,-2.1244,-2.1297,-2.1907,-2.2669,-2.2501,-2.1311,-2.1311,-2.1311,-2.1311,-2.0683,-2.1042,-2.2217,-2.2217,-2.258,-2.3047,-2.2492,-2.1523,-2.0274,-1.9068,-1.788,-1.6714,-1.6075,-1.5832,-1.5832,2.5524,0.0,0.0,0.0,0.0,0.0,0.0,0.0,0.0,0.0,0.0,0.0,0.0,0.0,0.0,0.0,0.0,0.0,0.0,0.0,0.0,1.9276,1.9215,1.9406,1.9879,1.978,1.9819,2.0055,0.0,0.0,0.0,0.0,0.0,0.0,0.0,0.0,0.0,0.0,0.0,0.6747,0.0,0.43,0.4489,0.3306,0.2201,0.1255,0.0862,0.0157,-0.0549,-0.0392,-0.0157,0.0157,0.1021,0.0864,0.0,0.0,0.0,0.0,0.0,0.0,0.0,0.0,0.0,-0.0314,0.0,0.0,0.0,-0.4851,-0.6145,-0.7401,-0.8364,-0.854,-0.896,-1.0038,-1.1182,-1.2054,-1.2263,-1.3087,-1.3822,-1.4088,-1.4088,-1.4088,-1.4088,-1.4088,-1.4496,-1.5296,-1.6198,-1.7172,-1.831,-1.7496,-1.816,-2.0799,-2.0181,-2.0139,-2.0706,-2.2108,-2.1686,-1.9497,-1.9761,-1.9761,-1.9497,-1.8503,-1.9139,-2.0935,-2.1203,-2.1845,-2.2765,-2.2501,-2.1273,-1.9362,-1.8411,-1.7165,-1.5832,-1.5832,-1.5832,-1.5832,2.5924,2.5577,0.0,0.0,0.0,0.0,0.0,0.0,0.0,0.0,0.0,0.0,0.0,0.0,0.0,0.0,0.0,0.0,1.9759,0.0,0.0,0.0,2.0436,2.0422,2.0514,1.9754,1.9002,1.8209,0.0,0.0,0.0,0.0,0.0,0.0,0.9413,0.0,0.0,0.0,0.5315,0.0,0.2408,0.3029,0.0,0.251,0.1096,-0.0078,-0.187,-0.2646,-0.2646,0.0,-0.0786,0.0,0.0,0.0786,0.1257,0.0393,0.0,0.0,0.0,0.0,0.0,0.0,0.0,-0.0314,-0.1336,0.0,-0.3899,-0.4884,0.0,-0.7139,-0.7316,0.0,0.0,-0.8747,-0.9971,-1.1139,-1.2034,-1.2361,-1.2942,-1.3997,-1.4088,-1.4088,-1.4088,-1.4088,-1.4166,-1.425,-1.4412,-1.4901,-1.6026,-1.5944,-1.7081,-1.9698,-1.8989,-1.9281,-2.0716,-2.1219,-2.0872,-1.9488,-2.0576,-2.0576,-1.9497,-1.9405,-1.9405,-1.9761,-2.0845,-2.1391,-2.1391,-2.0305,-1.9796,-1.9457,-1.9307,-1.7825,-1.5832,-1.5832,-1.5832,-1.5832,2.4733,2.5001,0.0,0.0,0.0,0.0,0.0,0.0,0.0,0.0,0.0,0.0,0.0,0.0,0.0,0.0,0.0,1.8924,0.0,0.0,0.0,0.0,1.9114,1.8813,1.8259,1.7906,1.7278,1.6301,1.6002,0.0,0.0,0.0,0.0,0.0,0.7922,0.0,0.5951,0.0,0.4836,0.0,0.0,0.0,0.0,0.0156,-0.1401,-0.2021,-0.3501,-0.3659,-0.3112,0.0,-0.2271,0.0,0.0,0.0,0.0,-0.0628,0.0,0.0,0.0,0.0,0.0,0.0,0.0,0.0,-0.1572,0.0,-0.3924,-0.5068,0.0,0.0,0.0,0.0,0.0,0.0,-0.9265,-0.9981,-1.1086,-1.1235,-1.1729,-1.2942,-1.3027,-1.3294,-1.4004,-1.4088,-1.4088,-1.4088,-1.4088,-1.4573,-1.5621,-1.5137,-1.5854,-1.8211,-1.7568,-1.758,-1.8272,-1.9445,-1.9479,-1.8503,-1.8956,-1.8956,-1.8411,-1.7669,-1.7762,-1.8503,-1.8948,-1.9588,-2.0206,-1.9661,-1.9052,-1.849,-1.8426,-1.7363,-1.5832,-1.5832,-1.5832,-1.5832,2.3787,0.0,0.0,0.0,0.0,0.0,0.0,0.0,0.0,0.0,0.0,0.0,2.0588,1.9898,0.0,0.0,1.824,1.7842,0.0,0.0,1.7062,0.0,0.0,0.0,0.0,1.605,1.5749,1.48,0.0,0.0,0.0,0.0,0.0,0.0,0.0,0.541,0.4693,0.0,0.3657,0.3267,0.1944,0.101,0.0232,-0.2171,-0.3263,-0.3657,-0.4753,-0.46,-0.4053,-0.452,-0.3515,0.0,-0.2884,-0.1872,-0.0626,0.0,0.0,0.0,-0.055,0.0,0.0,0.0,0.0,0.0,0.0,0.0,0.0,0.0,-0.6325,0.0,0.0,0.0,0.0,0.0,0.0,-0.9218,-0.9928,-1.0144,-1.0524,-1.1724,-1.1809,-1.2163,-1.3039,-1.3385,-1.3646,-1.3646,-1.3906,-1.4412,-1.522,-1.4489,-1.4985,-1.6764,-1.6186,-1.6043,-1.6453,-1.784,-1.8112,-1.7094,-1.7461,-1.7505,-1.7131,-1.6197,-1.6292,-1.7225,-1.7598,-1.8411,-1.948,-1.9175,-1.8656,-1.8146,-1.7401,-1.6564,-1.5832,-1.5832,-1.5832,-1.5832,2.3682,2.4586,0.0,0.0,0.0,0.0,0.0,0.0,0.0,0.0,0.0,0.0,0.0,0.0,0.0,0.0,0.0,1.5295,1.5321,0.0,1.4798,0.0,0.0,1.4798,0.0,0.0,1.4762,1.3726,0.0,0.0,0.0,0.0,0.0,0.0,0.0,0.4696,0.4553,0.2571,0.1089,0.0,-0.2097,-0.4124,-0.5783,0.0,-0.3736,-0.4766,-0.5864,0.0,0.0,-0.5002,-0.3973,0.0,0.0,0.0,0.0,0.0,0.0,0.0,0.0,0.0,0.0,-0.0233,0.0,0.0,0.0,0.0,-0.3901,0.0,0.0,0.0,0.0,0.0,0.0,0.0,0.0,0.0,0.0,-0.8858,-0.941,-1.0524,-1.0611,-1.0697,-1.0697,-1.1729,-1.2328,-1.2328,-1.347,-1.4088,-1.4173,-1.4088,-1.4573,-1.5696,-1.4942,-1.5023,-1.6111,-1.684,-1.6639,-1.5503,-1.6986,-1.7037,-1.5825,-1.5825,-1.5825,-1.592,-1.7131,-1.8411,-1.9397,-1.8241,-1.8433,-1.9206,-1.6814,-1.5812,-1.5832,-1.5832,-1.5832,-1.5832,0.0,0.0,0.0,0.0,0.0,0.0,0.0,2.3251,0.0,0.0,0.0,0.0,0.0,1.6383,1.5438,0.0,0.0,1.4209,1.4243,1.4243,0.0,0.0,0.0,1.4394,0.0,0.0,0.0,0.0,0.0,0.0,0.0,0.0,0.0,0.0,0.0,0.43,0.0,0.0,0.0,0.0,0.0,-0.3969,-0.5234,0.0,-0.5464,-0.5786,-0.618,-0.6338,0.0,-0.5867,-0.5071,-0.4281,-0.5002,-0.3973,-0.2795,-0.3824,-0.3671,-0.3042,0.0,0.0,-0.3385,-0.1488,0.0,0.0,0.0,0.0,0.0,0.0,0.0,0.0,0.0,0.0,0.0,0.0,0.0,0.0,0.0,-0.7716,-0.7837,-0.8273,-0.8969,-1.0096,-1.1552,-1.2072,-1.2589,-1.347,-1.3906,-1.4088,-1.4088,-1.4088,-1.425,-1.4657,-1.4345,-1.4487,-1.5016,-1.5311,-1.5438,-1.5398,-1.5954,-1.6012,-1.5832,-1.5832,-1.5832,-1.5825,-1.6298,-1.6662,-1.7001,-1.6643,-1.6686,-1.6929,-1.6103,-1.5832,-1.5832,-1.5832,-1.5832,-1.5832,2.5052,0.0,0.0,0.0,0.0,0.0,0.0,0.0,0.0,0.0,1.7957,0.0,1.6061,0.0,1.3845,0.0,1.2551,1.2265,1.2631,1.2338,0.0,1.209,1.2698,0.0,0.0,0.0,0.0,0.0,0.0,0.9079,0.0,0.0,0.0,0.0,0.0,0.4292,0.2493,0.1476,0.0,0.0,0.0,-0.4678,0.0,0.0,-0.6099,-0.5786,0.0,-0.6338,-0.6338,-0.6338,-0.586,-0.5384,-0.6099,-0.5384,-0.4438,-0.5464,-0.5068,-0.4281,-0.4281,-0.4616,0.0,-0.2772,-0.2842,0.0,-0.4148,0.0,-0.4793,0.0,0.0,0.0,0.0,0.0,0.0,0.0,0.0,0.0,0.0,-0.7139,-0.7139,-0.7139,-0.7753,-0.8969,-1.0869,-1.1466,-1.2163,-1.3379,-1.3822,-1.4088,-1.4088,-1.4088,-1.4088,-1.4088,-1.4088,-1.4175,-1.4362,-1.4469,-1.4763,-1.5244,-1.5344,-1.5545,-1.5832,-1.5832,-1.5832,-1.5832,-1.5832,-1.6015,-1.6459,-1.5944,-1.6037,-1.6476,-1.5988,-1.5832,-1.5832,-1.5832,-1.5832,-1.5832,2.3245,0.0,0.0,0.0,2.2907,0.0,0.0,0.0,1.8823,0.0,1.6871,1.5913,1.5076,1.3252,1.2084,1.2078,1.0404,0.9669,1.064,0.982,0.0,0.0,0.9296,0.8846,0.7859,0.0,0.0,0.0,0.0,0.0,0.0,0.0,0.0,0.0,0.6338,0.0,0.1632,0.0543,-0.1785,-0.4766,-0.5867,-0.6261,-0.6257,-0.6261,-0.5628,-0.4844,-0.5944,-0.6338,-0.6338,-0.6338,-0.6338,-0.6338,-0.6338,-0.6338,-0.65,-0.7463,-0.7057,-0.6335,-0.6416,-0.5721,-0.4805,-0.3909,-0.3662,0.0,0.0,0.0,-0.5692,0.0,0.0,0.0,0.0,0.0,0.0,0.0,0.0,0.0,0.0,0.0,-0.7139,-0.7139,-0.7139,-0.7577,-0.8803,-0.9923,-1.1042,-1.2242,-1.3294,-1.3997,-1.4088,-1.3997,-1.3997,-1.4088,-1.4088,-1.4088,-1.4088,-1.4362,-1.4649,-1.4943,-1.5224,-1.5511,-1.5805,-1.5805,-1.5812,-1.5832,-1.5832,-1.648,-1.7505,-1.6292,-1.6556,-1.7499,-1.6317,-1.5832,-1.5832,-1.5832,-1.5832,-1.5832,2.3125,2.3078,2.275,0.0,2.1729,2.1365,0.0,0.0,0.0,0.0,1.4988,1.3765,1.2098,1.144,1.0852,1.011,0.9593,0.0,0.0,0.0,0.0,0.8237,0.8922,0.8846,0.7859,0.8309,0.8461,0.8161,0.0,0.0,0.6641,0.0,0.0,0.0,0.0,0.0,0.265,0.1632,-0.1087,-0.4766,-0.5867,-0.5786,-0.5237,0.0,-0.5628,-0.4844,-0.5944,-0.6338,-0.6338,-0.6338,-0.6338,-0.6338,-0.6338,-0.6338,-0.6338,-0.6581,-0.6605,-0.6485,-0.6479,-0.6413,-0.6153,-0.5036,-0.4805,-0.4996,0.0,0.0,0.0,0.0,0.0,0.0,0.0,0.0,0.0,0.0,0.0,0.0,0.0,0.0,-0.7139,-0.7139,-0.7139,-0.7577,-0.8803,-0.9148,-1.0183,-1.2151,-1.1815,-1.2254,-1.3997,-1.3294,-1.3203,-1.4088,-1.4088,-1.4088,-1.4088,-1.4162,-1.4342,-1.4636,-1.471,-1.501,-1.5504,-1.5504,-1.5625,-1.5832,-1.5832,-1.6015,-1.6298,-1.592,-1.5988,-1.6223,-1.5906,-1.5832,-1.5832,-1.5832,-1.5832,-1.5832,2.3078,0.0,0.0,2.0333,0.0,0.0,1.8335,1.7707,0.0,1.5367,1.3932,0.0,1.1508,1.0254,0.9286,0.8694,0.8237,0.0,0.8618,0.0,0.0,0.7783,0.7936,0.7706,0.7176,0.7553,0.0,0.7173,0.0,0.0,0.6338,0.0,0.0,0.0,0.0,0.5074,0.2958,0.0543,-0.2097,-0.4766,-0.5867,-0.5944,0.0,-0.6099,-0.5944,-0.5473,-0.6103,-0.6338,-0.6338,-0.6338,-0.6338,-0.6338,-0.6338,-0.6338,-0.6437,-0.6935,-0.6776,-0.6648,-0.7149,-0.7151,-0.6776,-0.6142,-0.6054,-0.6142,-0.6142,-0.6142,-0.6325,0.0,-0.7139,-0.7139,0.0,0.0,0.0,0.0,0.0,0.0,0.0,-0.7139,-0.7139,-0.7139,-0.7139,-0.7404,-0.8017,-0.8627,-0.9666,-1.1381,-1.095,-1.1386,-1.3209,-1.2681,-1.2851,-1.4088,-1.3555,-1.3561,-1.4088,-1.3561,-1.3696,-1.4522,-1.4522,-1.4763,-1.5211,-1.5337,-1.5484,-1.5651,-1.5772,-1.5832,-1.5832,-1.5832,-1.5832,-1.5832,-1.5832,-1.5832,-1.5832,-1.5832,-1.5832,-1.5832,2.2944,0.0,0.0,0.0,0.0,0.0,0.0,1.628,0.0,1.5092,0.0,1.1937,1.1864,0.9422,0.7783,0.7629,0.0,0.6641,0.7557,0.6795,0.6721,0.7553,0.6795,0.6338,0.6338,0.7176,0.7176,0.0,0.0,0.0,0.0,0.0,0.0,0.0,0.0,0.0,0.0,-0.124,-0.3579,-0.4766,-0.5867,-0.6338,-0.6338,-0.6338,-0.6183,-0.6103,-0.6261,-0.6338,-0.6338,-0.6338,-0.6338,-0.6338,-0.6338,-0.6352,-0.6485,-0.7507,-0.7187,-0.6766,-0.7887,-0.7598,-0.6959,-0.7051,-0.7139,-0.7139,-0.7139,-0.7139,-0.7139,-0.7139,-0.7139,-0.7139,-0.7139,0.0,0.0,0.0,0.0,0.0,0.0,-0.7139,-0.7139,-0.7139,-0.7139,0.0,-0.7139,-0.8017,-0.9148,-1.0265,-1.0265,-1.0692,-1.1986,-1.1901,-1.2419,-1.3568,-1.2595,-1.2595,-1.3652,-1.2595,-1.2709,-1.4015,-1.4015,-1.4252,-1.4724,-1.4975,-1.5114,-1.5357,-1.5645,-1.5765,-1.5758,-1.5812,-1.5832,-1.5832,-1.5832,-1.5832,-1.5825,-1.5772,-1.5765,-1.5778,2.2249,0.0,0.0,0.0,0.0,1.7347,1.572,1.4736,1.4163,1.3954,1.2258,1.0703,0.989,0.8609,0.748,0.6644,0.6412,0.0,0.0,0.0,0.0,0.6567,0.6412,0.6338,0.6338,0.649,0.649,0.0,0.0,0.0,0.0,0.0,0.0,0.0,0.0,0.0,0.1709,-0.0776,0.0,-0.4766,-0.5867,-0.6338,-0.6338,-0.6338,-0.5786,-0.5079,-0.5944,-0.6338,-0.6338,-0.6338,-0.6338,-0.6338,-0.6338,-0.6342,-0.6531,-0.6701,-0.676,-0.6871,-0.7135,-0.7139,-0.7051,-0.7051,-0.7139,-0.7139,-0.7139,-0.7139,-0.7139,-0.7139,-0.7139,-0.7139,-0.7139,0.0,0.0,0.0,0.0,0.0,-0.7228,-0.7139,-0.7139,-0.7139,-0.7139,-0.7139,-0.7139,-0.7316,-0.7925,-0.9148,-0.8273,-0.8615,-1.0778,-1.0009,-1.0009,-1.1214,-1.1042,-1.1042,0.0,-1.1042,-1.1063,-1.1278,-1.1278,-1.1925,-1.3233,-1.3194,-1.3887,-1.5057,-1.5344,-1.5431,-1.5483,-1.5705,-1.5832,-1.5832,-1.5832,-1.5832,-1.5792,-1.5577,-1.5503,-1.5504,2.0782,0.0,0.0,0.0,0.0,0.0,0.0,1.3593,1.3171,1.3673,1.1944,1.053,1.0082,0.8223,0.6795,0.6338,0.6338,0.6338,0.6338,0.6338,0.6338,0.6338,0.6338,0.6338,0.6338,0.6338,0.6338,0.6338,0.0,0.0,0.0,0.0,0.0,0.0,0.0,0.4292,0.0,0.0,0.0,-0.3904,-0.4453,-0.4999,-0.5395,-0.4844,-0.4686,-0.4688,-0.4686,-0.5002,-0.555,-0.6103,-0.6338,-0.6338,-0.6338,-0.6359,-0.6491,-0.66,-0.675,-0.6937,-0.697,-0.7051,-0.7139,-0.7139,-0.7139,-0.7139,-0.7139,-0.7139,-0.7139,-0.7139,-0.7139,-0.7139,-0.7139,-0.7577,0.0,0.0,0.0,0.0,-0.7139,-0.7139,-0.7139,-0.7139,-0.7139,-0.7139,-0.7139,-0.7139,-0.7316,-0.7929,-0.7404,-0.7837,-0.9662,-0.9235,-0.941,0.0,0.0,0.0,-1.0611,0.0,-1.0009,-1.0611,-1.0611,-1.1013,-1.1647,-1.1861,-1.2343,-1.3022,-1.3932,-1.427,-1.4327,-1.5061,-1.5384,-1.5371,-1.5376,-1.5433,-1.5329,-1.5234,-1.5228,-1.519,0.0,1.9177,0.0,0.0,1.579,1.4879,1.3818,1.2879,1.2592,1.331,1.1864,1.073,1.073,0.8286,0.6641,0.6641,0.6416,0.6338,0.6338,0.6338,0.6338,0.6338,0.6338,0.6338,0.6338,0.6338,0.6338,0.0,0.0,0.0,0.0,0.0,0.0,0.0,0.0,0.0,0.0,0.0,-0.1169,-0.3125,-0.3124,-0.3748,-0.4608,-0.3513,-0.3593,-0.4217,-0.3435,-0.3515,-0.4219,-0.5237,-0.5786,-0.5951,-0.598,-0.6245,-0.6552,-0.6705,-0.6857,-0.6932,-0.7078,-0.7139,-0.7139,-0.7139,-0.7139,-0.7139,-0.7139,-0.7139,-0.7139,-0.7139,-0.7139,-0.7139,-0.7139,-0.7316,0.0,0.0,0.0,0.0,0.0,-0.7139,-0.7139,-0.7139,-0.7139,-0.7139,-0.7139,-0.7139,-0.6962,-0.6782,-0.6962,-0.7489,-0.8452,-0.854,0.0,0.0,-0.8973,-0.8973,-0.9831,0.0,-0.8969,-0.9831,-0.9831,-1.0005,-1.0274,-1.0529,-1.0785,-1.1061,-1.2204,-1.2956,-1.3279,-1.4532,-1.498,-1.4974,-1.5035,-1.5001,-1.498,-1.4919,-1.487,-1.4863,0.0,0.0,0.0,0.0,0.0,1.4879,1.3818,1.2879,1.2305,1.2445,1.1459,1.0777,1.0777,0.8908,0.7629,0.7629,0.6795,0.6338,0.6338,0.6338,0.6338,0.6338,0.6338,0.6338,0.6338,0.6338,0.6338,0.0,0.0,0.6338,0.0,0.0,0.0,0.0,0.0,0.0,0.0,0.0078,-0.1171,-0.313,-0.3125,-0.3748,-0.4608,-0.3513,-0.3124,-0.3202,-0.3124,-0.2579,-0.2036,-0.3047,-0.4059,-0.4862,-0.497,-0.5822,-0.6709,-0.6861,-0.6997,-0.7105,-0.7132,-0.7139,-0.7139,-0.7139,-0.7139,-0.7139,-0.7139,-0.7139,-0.7139,-0.7139,-0.7139,-0.7139,-0.7139,-0.8017,-0.8364,0.0,0.0,0.0,0.0,-0.7139,-0.7139,-0.7139,-0.7139,-0.7139,-0.7139,-0.7139,-0.6694,-0.5625,-0.6517,-0.7139,-0.7228,0.0,0.0,-0.7401,-0.7316,-0.7316,-0.7401,-0.7316,-0.7316,-0.7401,-0.7401,-0.8013,-0.9065,-0.9082,-0.9694,-1.0656,-1.1071,-1.2064,-1.3261,-1.4495,-1.5036,-1.4993,-1.5028,-1.5021,-1.496,-1.4683,-1.4563,-1.4522,0.0,0.0,0.0,0.0,0.0,0.0,0.0,1.2519,1.2305,1.2305,1.1391,1.0783,1.0783,0.9513,0.8694,0.8694,0.8313,0.7859,0.7249,0.7176,0.6945,0.6338,0.6338,0.6338,0.6338,0.6338,0.6338,0.0,0.0,0.0,0.0,0.0,0.0,0.0,0.0,0.3041,0.1794,0.0548,-0.0862,-0.2118,-0.1488,-0.1879,-0.2738,-0.1643,-0.1644,-0.2113,-0.1488,-0.141,-0.1568,-0.1331,-0.2345,-0.3763,-0.3776,-0.4243,-0.4724,-0.4772,-0.5418,-0.6054,-0.6054,-0.6596,-0.7139,-0.7139,-0.7139,-0.7139,-0.7139,-0.7139,-0.7139,-0.7139,-0.7139,-0.7139,-0.7139,-0.7489,-0.7665,-0.7139,0.0,0.0,0.0,-0.7139,-0.7139,-0.7139,-0.7139,-0.7139,-0.7139,-0.7139,-0.6874,-0.6428,-0.6871,-0.6786,0.0,0.0,0.0,-0.7139,0.0,-0.7139,-0.7139,-0.7139,-0.7139,-0.7139,-0.7139,-0.7312,-0.7841,-0.7841,-0.844,-0.9561,-0.9703,-1.0885,-1.2689,-1.3218,-1.3783,-1.4487,-1.4441,-1.4482,-1.4415,-1.4282,-1.4262,-1.4156,1.5359,0.0,1.4879,0.0,1.3673,1.3382,1.2445,1.2305,1.2305,1.2305,1.1694,1.1236,1.1236,1.034,0.9744,0.9744,0.9448,0.8993,0.8313,0.7936,0.7476,0.6784,0.6486,0.0,0.6338,0.6338,0.6338,0.6338,0.6338,0.0,0.0,0.0,0.0,0.0,0.39,0.2966,0.2504,0.0784,-0.0471,-0.11,-0.0314,-0.0628,-0.149,-0.0392,-0.0628,-0.1488,-0.0392,-0.0471,-0.102,-0.0235,-0.094,-0.2277,-0.2578,-0.3267,-0.3812,-0.3516,-0.4118,-0.4884,-0.4884,-0.5422,-0.6142,-0.6505,-0.6596,-0.6688,-0.7051,-0.7139,-0.7139,-0.7139,-0.7139,-0.7139,-0.7139,-0.7139,-0.7139,-0.7139,0.0,0.0,0.0,-0.7139,-0.7139,-0.7139,-0.7139,-0.7139,-0.7139,-0.7139,-0.6962,-0.6605,-0.6874,0.0,0.0,0.0,0.0,0.0,0.0,0.0,-0.7139,-0.7139,-0.7139,-0.7139,-0.7139,-0.7139,-0.7139,-0.7139,-0.757,-0.8428,-0.8765,-0.9795,-1.1343,-1.2009,-1.2802,-1.3646,-1.3997,-1.4088,-1.4088,-1.4088,-1.4088,-1.3913,1.5359,1.5234,1.4879,1.389,1.3673,1.3382,1.2445,1.2305,1.2305,1.2305,1.2298,1.2298,1.2298,1.1391,1.0783,1.0783,0.9895,0.9296,0.9296,0.8389,0.777,0.0,0.0,0.6338,0.6338,0.6338,0.6338,0.6338,0.0,0.0,0.6338,0.0,0.5702,0.4673,0.3575,0.2574,0.1572,0.0471,0.0,0.0,0.0,-0.0628,-0.1493,-0.0393,-0.0627,-0.1486,-0.0392,0.0,0.0,0.0,0.0,-0.0237,-0.1461,-0.3228,-0.4741,-0.3879,-0.3645,-0.3632,-0.3632,-0.3632,-0.3899,-0.5151,-0.5422,-0.5692,-0.6868,-0.7139,-0.7139,-0.7139,-0.7139,-0.7139,-0.7139,-0.7139,-0.7139,-0.7139,0.0,0.0,0.0,-0.7139,-0.7139,-0.7139,-0.7139,-0.7139,-0.7139,-0.7139,-0.6605,-0.5536,0.0,0.0,0.0,0.0,0.0,-0.7139,-0.7139,0.0,-0.7139,-0.7139,-0.7139,-0.7139,-0.7139,-0.7139,-0.7139,-0.7139,-0.7139,-0.7231,-0.8424,-0.8886,-0.9143,-1.1365,-1.2277,-1.2413,-1.3646,-1.4088,-1.4088,-1.4088,-1.4088,-1.3913,1.3302,1.3237,1.3091,1.2806,1.2732,1.2659,1.2378,1.2305,1.2305,1.2305,1.2305,1.2305,1.2305,1.1996,1.1848,0.0,1.1545,1.1031,0.0,0.9997,0.9575,0.888,0.7854,0.7305,0.7305,0.6659,0.6338,0.6338,0.0,0.0,0.0,0.6338,0.5702,0.4673,0.3575,0.2574,0.1493,0.0471,0.0,0.0,0.0,-0.0236,-0.0471,-0.0157,-0.0235,-0.047,-0.0157,0.0,0.0,0.0,-0.0471,-0.1023,-0.0714,-0.1038,-0.1465,-0.1229,-0.1702,-0.2417,-0.2417,-0.2956,-0.3676,-0.4037,-0.4821,-0.5513,-0.5871,-0.6505,-0.7139,-0.7139,-0.7139,-0.7139,-0.7139,-0.7139,-0.7139,-0.7139,-0.7139,0.0,-0.7139,-0.7139,-0.7139,-0.7139,-0.7139,-0.7139,-0.7139,-0.7139,-0.6962,-0.6605,0.0,0.0,0.0,0.0,0.0,0.0,-0.7139,0.0,-0.7139,-0.7139,-0.7139,-0.7139,-0.7139,-0.7139,-0.7139,-0.7139,-0.7139,-0.7139,-0.7507,-0.8116,-0.8978,-0.9676,-1.0875,-1.2328,-1.2681,-1.3379,-1.4088,-1.4088,-1.3561,-1.2681,1.2372,1.2592,1.2732,1.2372,1.2305,1.2305,1.2305,1.2305,1.2305,1.2305,1.2305,1.2305,1.2305,1.2305,0.0,1.2305,1.2305,1.2009,1.1428,1.1019,1.0513,0.9905,0.8875,0.8358,0.8358,0.7382,0.0,0.6898,0.65,0.6338,0.6338,0.6338,0.5941,0.5229,0.4217,0.3132,0.2123,0.1021,0.0393,0.0,0.0,0.0,0.0,0.0,0.0,0.0,0.0,0.0,0.0,0.0,-0.0471,-0.087,-0.0246,0.0,0.0,0.0,-0.0539,-0.1169,-0.1169,-0.1709,-0.234,-0.279,-0.3496,-0.4279,-0.5159,-0.5963,-0.6596,-0.7048,-0.7139,-0.7139,-0.7139,-0.7139,-0.7139,-0.7139,-0.7139,-0.7139,-0.7139,-0.7139,-0.7139,-0.7139,-0.7139,-0.7139,-0.7139,-0.7139,-0.7139,-0.7139,0.0,0.0,0.0,0.0,-0.7139,-0.7139,-0.7139,-0.7139,-0.7139,-0.7139,-0.7139,-0.7139,-0.7139,-0.7139,-0.7139,-0.7139,-0.7139,-0.7139,-0.7139,-0.757,-0.8253,-0.8711,-0.9749,-1.1037,-1.1466,-1.2419,-1.3379,-1.3379,-1.2942,-1.2157,1.2645,1.3237,1.3528,1.2592,1.2452,1.2459,1.2385,1.2385,1.2392,1.2472,1.2385,1.2305,1.2385,1.2305,1.2305,1.2305,0.0,0.0,1.2305,1.1396,1.0899,1.0899,0.9905,0.9396,0.9396,0.8331,0.7773,0.7708,0.6821,0.6342,0.6338,0.6338,0.6261,0.618,0.5115,0.4099,0.3067,0.2123,0.11,0.0079,0.0079,0.0079,0.0,0.0,0.0,0.0,0.0,0.0,0.0,0.0,0.0,0.0,0.0,0.0,0.0,0.0,0.0,0.0,0.0,0.0,-0.027,-0.1439,-0.1709,-0.2423,-0.4721,-0.5245,-0.5601,-0.6596,-0.6959,-0.6959,-0.6959,-0.7051,-0.7139,-0.7139,-0.7139,-0.7139,-0.7139,-0.7139,-0.7139,-0.7139,0.0,0.0,-0.7139,-0.7139,-0.7139,0.0,0.0,0.0,0.0,0.0,-0.7139,-0.7139,-0.7139,-0.7139,-0.7139,-0.7139,-0.7139,-0.7139,-0.7139,-0.7139,-0.7139,-0.7139,-0.7139,-0.7139,-0.7139,-0.7139,-0.7228,-0.8277,-0.8803,-0.8978,-1.0096,-1.1214,-1.2328,-1.2328,-1.2237,-1.2066,0.0,0.0,1.4522,1.3528,1.403,1.4237,1.3462,1.3395,1.3653,1.4429,1.3226,1.2553,1.3314,1.2721,1.2305,1.2305,1.2305,1.2305,1.2305,1.2057,1.1964,1.1964,1.0983,1.0456,1.0456,0.8687,0.7438,0.6659,0.7219,0.7061,0.6338,0.6338,0.586,0.5068,0.4841,0.4137,0.3119,0.2824,0.2123,0.1257,0.1257,0.0707,0.0,0.0,0.0,0.0,0.0,0.0,0.0,0.0,0.0,0.0,0.0,0.0,0.0,0.0,0.0,0.0,0.0,0.0,-0.009,-0.036,-0.1079,-0.2158,-0.3683,-0.4014,-0.4078,-0.4347,-0.5151,-0.5783,-0.5783,-0.6505,-0.7139,-0.7139,-0.7139,-0.7139,-0.7139,-0.7139,-0.7139,0.0,-0.7139,-0.7139,-0.7139,-0.7139,-0.7139,0.0,0.0,-0.7139,-0.7139,-0.7139,-0.7139,-0.7139,-0.7139,-0.7139,-0.7139,-0.7139,-0.7139,-0.7139,-0.7139,-0.7139,-0.7139,-0.7139,-0.7139,-0.7139,-0.7139,-0.7139,-0.7139,-0.7401,-0.8101,-0.889,-0.9235,-1.0524,-1.2328,-1.2328,-1.1724,-1.095,1.53,1.5556,1.5494,1.4585,1.484,1.5057,1.4431,1.4359,1.459,1.512,1.4283,1.3645,1.3719,1.366,1.3233,1.2385,1.2305,1.2305,1.2305,1.2305,1.2305,1.2305,1.1803,1.1476,1.1476,0.9933,0.8663,0.7698,0.8241,0.8192,0.7706,0.7706,0.7096,0.6099,0.6099,0.5303,0.3812,0.383,0.3209,0.2267,0.2277,0.165,0.0786,0.1257,0.11,0.0786,0.1257,0.11,0.0707,0.0707,0.0393,0.0,0.0,0.0,0.0,0.0,0.0,0.0,0.0,0.0,0.0,0.0,-0.045,-0.1259,-0.2519,-0.2777,-0.2943,-0.3482,-0.4111,-0.4554,-0.4619,-0.5513,-0.6325,-0.6325,-0.6776,-0.7139,-0.7139,-0.7139,-0.7139,-0.7139,-0.7139,-0.7139,-0.7139,-0.7139,-0.7139,-0.7139,-0.7139,0.0,-0.7139,-0.7139,-0.7139,-0.7139,-0.7139,-0.7139,-0.7139,-0.7139,-0.7139,-0.7139,-0.7139,-0.7139,-0.7139,-0.7139,-0.7139,-0.7139,-0.7139,-0.7139,-0.7139,-0.7139,-0.7489,-0.8101,-0.8101,-0.9483,-1.1466,-1.0956,-1.0697,-1.0524,1.5773,1.6251,1.6533,1.5598,1.5522,1.5598,1.5421,1.5401,1.5451,1.5615,1.5367,1.4934,1.4229,1.4796,1.456,1.291,1.2743,1.2618,1.2298,1.2305,1.2305,1.2305,1.2305,1.2305,1.2305,1.147,1.0495,0.9295,0.9451,0.9448,0.9286,0.9296,0.8794,0.7777,0.7785,0.674,0.491,0.491,0.4358,0.3343,0.3368,0.2747,0.1883,0.2753,0.2594,0.1961,0.2827,0.2512,0.1804,0.1807,0.11,0.024,0.0262,0.009,0.0,0.0,0.0,0.0,0.0,0.0,0.0,0.0,0.0,-0.027,-0.1259,-0.1529,-0.1798,-0.288,-0.3243,-0.3323,-0.3291,-0.4358,-0.5161,-0.5154,-0.6054,-0.6868,-0.6868,0.0,-0.7139,-0.7139,-0.7139,-0.7139,-0.7139,-0.7139,-0.7139,-0.7139,-0.7139,-0.7139,-0.7139,-0.7139,-0.7139,-0.7139,-0.7139,-0.7139,-0.7139,-0.7139,-0.7139,-0.7139,-0.7139,-0.7139,-0.7139,-0.7139,-0.7139,-0.7139,-0.7139,-0.7139,-0.7139,-0.7139,-0.7139,-0.7139,-0.7139,-0.8532,-1.0438,-0.9323,-0.9579,-1.0438,1.7579,1.7696,1.7493,1.6515,1.7064,1.7274,1.6465,1.6395,1.6638,1.743,1.6213,1.5429,1.6094,1.561,1.5049,1.4792,1.4734,1.4018,1.2432,1.2305,1.2305,1.2305,1.2305,1.2305,1.2305,1.2137,1.1144,0.9295,1.014,1.0126,0.9311,0.9276,0.8775,0.7795,0.7769,0.7142,0.6022,0.6022,0.5464,0.4438,0.4445,0.3818,0.288,0.3061,0.2976,0.2879,0.3034,0.3034,0.2882,0.2904,0.2202,0.1359,0.1313,0.0719,0.0,0.0,0.0,0.0,0.0,0.0,0.0,0.0,0.0,-0.009,-0.027,-0.027,-0.036,-0.0539,-0.1349,-0.2068,-0.2064,-0.3054,-0.3855,-0.3905,-0.4884,-0.5692,-0.5692,0.0,-0.7139,-0.7139,-0.7139,-0.7139,-0.7139,-0.7139,-0.7139,-0.7139,-0.7139,-0.7139,-0.7139,-0.7139,-0.7139,-0.7139,-0.7139,-0.7139,-0.7139,-0.7139,-0.7139,-0.7139,-0.7139,-0.7139,-0.7139,-0.7139,-0.7139,-0.7139,-0.7139,-0.7139,-0.7139,-0.7139,-0.7139,-0.7139,-0.7139,-0.8532,-1.0438,-0.9323,-0.9579,-1.0438,1.8008,1.8008,1.7842,1.7464,1.7736,1.7812,1.7432,1.732,1.7483,1.793,1.7281,1.6674,1.6597,1.663,1.6263,1.5257,1.5641,1.5368,1.3927,1.3346,1.2808,1.2305,1.2305,1.2305,1.2305,1.2305,1.1883,1.0905,1.1372,1.1397,1.0908,1.0938,1.0121,0.8618,0.8646,0.7731,0.6338,0.6338,0.6018,0.5544,0.5544,0.491,0.4046,0.4616,0.4455,0.4044,0.4595,0.4438,0.3969,0.4066,0.3363,0.2544,0.2625,0.234,0.1798,0.1169,0.0539,0.0,0.0,0.0,0.0,0.0,0.0,0.0,0.0,0.0,0.0,0.0,-0.045,-0.0809,-0.0809,-0.1798,-0.2606,-0.2592,-0.3666,-0.4467,-0.444,-0.4884,-0.5422,-0.6142,-0.5601,-0.5692,-0.6959,-0.6508,-0.6416,-0.7051,-0.7139,-0.7139,-0.7139,-0.7139,-0.7139,-0.7139,-0.7139,-0.7139,-0.7139,-0.7139,-0.7139,-0.7139,-0.7139,-0.7139,-0.7139,-0.7139,-0.7139,-0.7139,-0.7139,-0.7139,-0.7139,-0.7139,-0.7139,-0.7139,-0.7139,-0.8532,-1.0351,-0.8623,-0.9052,-1.0351,1.8008,1.8008,1.8008,1.8008,1.8008,1.8008,1.8008,1.8008,1.8008,1.8008,1.8008,1.7736,1.702,1.7561,1.7396,1.5984,1.6501,1.6542,1.56,1.48,1.3988,1.3025,1.2732,1.2519,1.2305,1.2305,1.2305,1.2305,1.2305,1.2305,1.2305,1.2305,1.1323,0.9669,0.9669,0.8537,0.6644,0.6655,0.65,0.6338,0.6338,0.5783,0.5148,0.6018,0.5783,0.5148,0.6018,0.578,0.5068,0.5226,0.4582,0.3743,0.3862,0.3771,0.3411,0.251,0.1346,0.036,0.009,0.0,0.0,0.0,0.0,0.0,0.0,0.0,0.0,0.0,0.0,0.0,0.0,-0.0719,-0.1349,-0.1349,0.0,-0.3142,-0.3204,-0.3379,-0.3916,-0.4903,-0.4174,-0.4345,-0.6142,-0.578,-0.578,-0.6596,-0.6959,-0.7139,-0.7139,-0.7139,-0.7139,-0.7139,-0.7139,-0.7139,-0.7139,-0.7139,-0.7139,-0.7139,-0.7139,-0.7139,-0.7139,-0.7139,-0.7139,-0.7139,-0.7139,-0.7139,-0.7139,-0.7139,-0.7139,-0.7139,-0.7139,-0.8356,-0.9923,-0.7837,-0.8444,-0.9918,1.8008,1.8008,1.8008,1.8008,1.8008,1.8008,1.8008,1.8008,1.8008,1.8008,1.8008,1.7998,1.792,1.793,1.793,1.7823,1.7842,1.7491,1.6549,1.6428,1.5948,1.5021,1.4099,1.3171,1.2298,1.2305,1.2305,1.2305,1.2305,1.2305,1.2305,1.2305,1.1694,1.0714,1.0714,0.9588,0.771,0.7683,0.7142,0.6338,0.6338,0.6261,0.618,0.6261,0.6261,0.618,0.6261,0.6261,0.618,0.6338,0.5697,0.4844,0.4968,0.4351,0.3548,0.3459,0.2588,0.1439,0.027,0.0,0.0,0.0,0.0,0.0,0.0,0.0,0.0,0.0,0.0,0.0,0.0,-0.009,-0.009,-0.009,0.0,0.0,-0.1976,-0.2877,-0.36,-0.369,-0.3655,-0.3632,-0.3811,-0.4793,-0.5422,-0.5513,-0.6505,-0.7139,-0.7139,-0.7139,-0.7139,-0.7139,-0.7139,-0.7139,-0.7139,-0.7139,-0.7139,-0.7139,-0.7139,-0.7139,-0.7139,-0.7139,-0.7139,-0.7139,-0.7139,-0.7139,-0.7139,-0.7139,-0.7139,-0.7139,-0.7139,-0.7929,-0.889,-0.7577,-0.7925,-0.8803,1.8008,1.8008,1.8008,1.8008,1.8008,1.8008,1.8008,1.8008,1.8008,1.8008,1.8008,1.8008,1.8008,1.8008,1.8008,1.8008,1.8008,1.7862,1.7501,1.7501,1.6507,1.4378,1.3882,1.3237,1.2298,1.2305,1.2305,1.2305,1.2305,1.2305,1.2305,1.2305,1.1768,1.0783,1.0115,0.9064,0.7787,0.7119,0.6659,0.6338,0.6338,0.6338,0.6338,0.6338,0.6338,0.6419,0.6983,0.7223,0.7301,0.7467,0.7248,0.6868,0.6505,0.6054,0.5604,0.4884,0.3375,0.1693,0.1256,0.0539,0.0,0.0,0.0,0.0,0.0,0.0,0.0,0.0,0.0,0.0,0.0,0.0,0.0,0.0,0.0,-0.0719,-0.0719,-0.1079,-0.1619,-0.243,-0.1792,-0.1966,-0.3491,-0.3312,-0.3486,-0.4188,-0.4725,-0.526,-0.5965,-0.6688,-0.6782,-0.6071,-0.6694,-0.7139,-0.7139,-0.7139,-0.7139,-0.7139,-0.7139,-0.7139,-0.7139,-0.7139,-0.7139,-0.7139,-0.7139,-0.7139,-0.7139,-0.7139,-0.7139,-0.7139,-0.7139,-0.7841,-0.8715,-0.7577,-0.7841,-0.8715,1.8388,1.8193,1.8008,1.8008,1.8008,1.8008,1.8008,1.8008,1.8008,1.8008,1.8008,1.8008,1.8008,1.8008,1.8008,1.8008,1.8008,1.8008,1.8008,1.8008,1.701,1.4728,1.4593,1.4163,1.323,1.2879,1.2732,1.2732,1.2445,1.2305,1.2305,1.2305,1.1922,1.1236,1.0571,0.9669,0.8685,0.8003,0.7553,0.7249,0.7249,0.7253,0.7269,0.7215,0.7204,0.7334,0.8018,0.8304,0.8399,0.8641,0.8556,0.8239,0.7782,0.7415,0.6959,0.6142,0.4524,0.2839,0.2512,0.1529,0.045,0.009,0.0,0.0,0.0,0.0,0.0,0.0,0.0,0.0,0.0,0.0,0.0,0.0,0.0,0.0,0.0,0.0,-0.027,-0.1169,-0.0539,-0.0629,-0.234,-0.2069,-0.2155,-0.2953,-0.3396,-0.3926,-0.4805,-0.5971,-0.6248,-0.5447,-0.6517,-0.7139,-0.7139,-0.7139,-0.7139,-0.7139,-0.7139,-0.7139,-0.7139,-0.7139,-0.7139,-0.7139,-0.7139,-0.7139,-0.7139,-0.7139,-0.7139,-0.7139,-0.7139,-0.7577,-0.8189,-0.7401,-0.7665,-0.8189,1.9301,1.8642,1.8018,1.8008,1.8008,1.8008,1.8008,1.8008,1.8008,1.8008,1.8008,1.8008,1.8008,1.8008,1.8008,1.8008,1.8008,1.8008,1.8008,1.8008,1.7579,1.6636,1.6636,1.614,1.5234,1.4243,1.3673,1.3673,1.2732,1.2305,1.2305,1.2305,1.2305,1.2305,1.2298,1.1694,1.0783,1.0783,1.019,0.9296,0.9296,0.9316,0.9281,0.9304,0.9336,0.9316,0.9299,0.9478,0.9769,0.986,0.9346,0.879,0.8886,0.8055,0.7139,0.7139,0.6322,0.5164,0.3954,0.27,0.1529,0.027,0.0,0.0,0.0,0.0,0.0,0.0,0.0,0.0,0.0,0.0,0.0,0.0,0.0,0.0,0.0,0.0,0.0,0.0,0.0,0.0,0.0,-0.1079,-0.1798,-0.1798,-0.2868,-0.3576,-0.357,-0.4732,-0.5359,-0.5359,-0.6517,-0.7139,-0.7139,-0.7139,-0.7139,-0.7139,-0.7139,-0.7139,-0.7139,-0.7139,-0.7139,-0.7139,-0.7139,-0.7139,-0.7139,-0.7139,-0.7139,-0.7139,-0.7139,-0.7139,-0.7139,-0.7139,-0.7139,-0.7139,1.9391,1.9588,1.9599,1.9026,1.8927,1.8741,1.8105,1.8008,1.8008,1.8008,1.8008,1.8008,1.8008,1.8008,1.8008,1.8008,1.8008,1.8008,1.8008,1.8008,1.7862,1.7569,1.6289,1.5517,1.5234,1.4243,1.3673,1.3673,1.3455,1.2952,1.2305,1.2305,1.2305,1.2305,1.1545,1.1087,1.0783,1.004,0.9599,0.9296,0.9296,0.9301,0.9316,0.9296,0.9276,0.9397,1.0121,1.0545,1.0771,1.0971,1.1023,1.0732,0.9288,0.8609,0.8239,0.7323,0.6322,0.5336,0.4994,0.3403,0.1529,0.027,0.0,0.0,0.0,0.0,0.0,0.0,0.0,0.0,0.0,0.0,0.0,0.0,0.0,0.0,0.0,0.0,0.0,0.0,0.0,0.0,0.0,-0.036,-0.0539,-0.0539,-0.1613,-0.197,-0.1076,-0.3842,-0.5001,-0.4194,-0.6065,-0.7139,-0.7139,-0.7139,-0.7139,-0.7139,-0.7139,-0.7139,-0.7139,-0.7139,-0.7139,-0.7139,-0.7139,-0.7139,-0.7139,-0.7139,-0.7139,-0.7139,-0.7139,-0.7139,-0.7139,-0.7139,-0.7139,-0.7139,2.0431,2.0466,2.0357,1.9436,1.9575,1.9489,1.8616,1.8781,1.9023,1.9017,1.9003,1.8921,1.8529,1.8529,1.8405,1.8008,1.8008,1.8008,1.8008,1.8008,1.8008,1.8008,1.6576,1.5939,1.6298,1.5376,1.4665,1.4307,1.3882,1.3244,1.2305,1.2305,1.2305,1.2305,1.1694,1.1391,1.1316,1.072,1.0496,1.0496,1.0496,1.0496,1.0501,1.0524,1.0519,1.0594,1.1193,1.1671,1.1983,1.2122,1.2108,1.1776,1.0134,0.9542,0.935,0.8147,0.7323,0.6596,0.5692,0.4368,0.2955,0.1707,0.0719,0.0,0.0,0.0,0.0,0.0,0.0,0.0,0.0,0.0,0.0,0.0,0.0,0.0,0.0,0.0,0.0,0.0,0.0,0.0,0.0,0.0,0.0,0.0,-0.0718,-0.0807,0.0,-0.295,-0.4374,-0.3659,-0.5885,-0.7139,-0.7139,-0.7139,-0.7139,-0.7139,-0.7139,-0.7139,-0.7139,-0.7139,-0.7139,-0.7139,-0.7139,-0.7139,-0.7139,-0.7139,-0.7139,-0.7139,-0.7139,-0.7139,-0.7139,-0.7139,-0.7139,-0.7139,2.1922,2.1296,2.0531,1.9689,2.0191,2.0413,1.956,2.0104,2.0628,2.0585,2.0606,2.0268,1.9497,1.9431,1.911,1.8269,1.8134,1.8076,1.8008,1.8008,1.8008,1.8008,1.7207,1.7139,1.8008,1.707,1.614,1.5234,1.4314,1.331,1.2305,1.2305,1.2305,1.2305,1.2305,1.2305,1.2305,1.2305,1.2305,1.2305,1.2305,1.2305,1.2305,1.2305,1.2305,1.2305,1.2305,1.2721,1.3248,1.3225,1.2946,1.2289,1.1095,1.0752,1.0524,0.9222,0.887,0.8424,0.6142,0.551,0.5164,0.4041,0.2066,0.0269,0.018,0.009,0.0,0.0,0.0,0.0,0.0,0.0,0.0,0.0,0.0,0.0,0.0,0.0,0.0,0.0,0.0,0.0,0.0,0.0,0.0,0.0,0.0,0.0,0.0,-0.2147,-0.3481,-0.357,-0.58,-0.6962,-0.7139,-0.7139,-0.7139,-0.7139,-0.7139,-0.7139,-0.7139,-0.7139,-0.7139,-0.7139,-0.7139,-0.7139,-0.7139,-0.7139,-0.7139,-0.7139,-0.7139,-0.7139,-0.7139,-0.7139,-0.7139,-0.7139,2.2007,2.2249,2.2273,2.1476,2.1502,2.1296,2.0479,2.0499,2.0608,2.0626,2.0606,2.0526,2.0333,2.0333,2.0268,2.0074,1.9431,1.8721,1.8008,1.8008,1.8008,1.8008,1.7794,1.7794,1.8008,1.707,1.614,1.5234,1.495,1.4027,1.2305,1.2305,1.2305,1.2305,1.2305,1.2305,1.2305,1.2305,1.2305,1.2305,1.2305,1.2305,1.2305,1.2305,1.2305,1.2305,1.2633,1.2889,1.3255,1.3769,1.3802,1.3516,1.2295,1.1889,1.1492,0.9478,0.8905,0.8609,0.7139,0.6054,0.5336,0.5078,0.3914,0.2582,0.1616,0.0719,0.0,0.0,0.0,0.0,0.0,0.0,0.0,0.0,0.0,0.0,0.0,0.0,0.0,0.0,0.0,0.0,0.0,0.0,0.0,0.0,0.0,0.0,0.0,-0.1433,-0.2592,-0.357,-0.4999,-0.616,-0.7051,-0.7139,-0.7139,-0.7139,-0.7139,-0.7139,-0.7139,-0.7139,-0.7139,-0.7139,-0.7139,-0.7139,-0.7139,-0.7139,-0.7139,-0.7139,-0.7139,-0.7139,-0.7139,-0.7139,-0.7139,-0.7139,2.2552,2.2832,2.2857,2.2043,2.225,2.2211,2.1355,2.1546,2.1773,2.1773,2.1794,2.1678,2.1239,2.1239,2.1037,2.0655,2.0204,1.9562,1.8654,1.8586,1.8462,1.8008,1.8008,1.8008,1.8008,1.7501,1.6576,1.5234,1.5234,1.445,1.2952,1.2519,1.2519,1.2952,1.2519,1.2305,1.2305,1.2305,1.2305,1.2305,1.2305,1.2305,1.2305,1.2305,1.2305,1.2305,1.2714,1.3058,1.3433,1.396,1.4088,1.399,1.3328,1.2759,1.1928,1.0189,0.9311,0.8609,0.7415,0.6684,0.6233,0.6233,0.5331,0.4001,0.2243,0.1349,0.0719,0.009,0.0,0.0,0.0,0.0,0.0,0.0,0.0,0.0,0.0,0.0,0.0,0.0,0.0,0.0,0.0,0.0,0.0,0.0,0.0,0.0,0.0,-0.1165,-0.2057,-0.2681,-0.4465,-0.5716,-0.6248,-0.6871,-0.7139,-0.7139,-0.7139,-0.7139,-0.7139,-0.7139,-0.7139,-0.7139,-0.7139,-0.7139,-0.7139,-0.7139,-0.7139,-0.7139,-0.7139,-0.7139,-0.7139,-0.7139,-0.7139,-0.7139,2.3078,2.3078,2.287,2.2236,2.265,2.287,2.2236,2.2662,2.3078,2.3078,2.3078,2.2823,2.2199,2.2137,2.1753,2.091,2.0846,2.0398,1.9365,1.9299,1.8911,1.8008,1.8008,1.8008,1.8008,1.8008,1.7157,1.5446,1.5446,1.495,1.3954,1.3164,1.3091,1.3673,1.2879,1.2445,1.2305,1.2305,1.2305,1.2305,1.2305,1.2305,1.2305,1.2305,1.2305,1.2318,1.2722,1.3187,1.3717,1.4028,1.4088,1.4088,1.4088,1.3237,1.212,1.0895,0.9812,0.8609,0.7415,0.7139,0.7139,0.7139,0.6413,0.5075,0.2956,0.2066,0.1529,0.0539,0.018,0.0,0.0,0.0,0.0,0.0,0.0,0.0,0.0,0.0,0.0,0.0,0.0,0.0,0.0,0.0,0.0,0.0,0.0,0.0,0.0,-0.0986,-0.1612,-0.179,-0.3931,-0.5179,-0.5359,-0.6517,-0.7139,-0.7139,-0.7139,-0.7139,-0.7139,-0.7139,-0.7139,-0.7139,-0.7139,-0.7139,-0.7139,-0.7139,-0.7139,-0.7139,-0.7139,-0.7139,-0.7139,-0.7139,-0.7139,-0.7139,2.3078,2.3078,2.3065,2.2955,2.304,2.3053,2.2955,2.304,2.3078,2.3078,2.3078,2.3078,2.2944,2.2944,2.2628,2.1815,2.1753,2.1037,1.9431,1.9299,1.8911,1.8008,1.8008,1.8008,1.8008,1.8008,1.7501,1.6419,1.6419,1.593,1.5021,1.4879,1.4378,1.3673,1.36,1.3098,1.2305,1.2305,1.2305,1.2305,1.2305,1.2305,1.2305,1.2305,1.2305,1.2351,1.2968,1.3539,1.4054,1.4119,1.4088,1.4088,1.4088,1.3237,1.2082,1.0896,0.9786,0.8609,0.7415,0.7139,0.7139,0.7139,0.6959,0.6508,0.5252,0.3309,0.1798,0.1619,0.0719,0.0,0.0,0.0,0.0,0.0,0.0,0.0,0.0,0.0,0.0,0.0,0.0,0.0,0.0,0.0,0.0,0.0,0.0,0.0,0.0,-0.018,-0.0718,-0.179,-0.3126,-0.4374,-0.5359,-0.6517,-0.7139,-0.7139,-0.7139,-0.7139,-0.7139,-0.7139,-0.7139,-0.7139,-0.7139,-0.7139,-0.7139,-0.7139,-0.7139,-0.7139,-0.7139,-0.7139,-0.7139,-0.7139,-0.7139,-0.7139,2.3078,2.3078,2.3078,2.3078,2.3078,2.3078,2.3078,2.3078,2.3078,2.3078,2.3078,2.3078,2.3078,2.3078,2.2944,2.2628,2.2567,2.1865,2.0139,2.0009,1.9431,1.8076,1.8008,1.8008,1.8008,1.8008,1.7794,1.7354,1.6853,1.6358,1.6,1.5446,1.495,1.4522,1.3954,1.3164,1.2305,1.2305,1.2305,1.2305,1.2305,1.2305,1.2305,1.2305,1.2405,1.2612,1.325,1.3702,1.4088,1.4088,1.4088,1.399,1.3322,1.2295,1.1165,1.0008,0.8794,0.7779,0.7234,0.7139,0.7139,0.7139,0.7139,0.6959,0.6505,0.4994,0.3396,0.2067,0.1349,0.0809,0.009,0.0,0.0,0.0,0.0,0.0,0.0,0.0,0.0,0.0,0.0,0.0,0.0,0.0,0.0,0.0,0.0,0.0,0.0,0.0,-0.0269,-0.0807,-0.2592,-0.3838,-0.4374,-0.6157,-0.7139,-0.7139,-0.7139,-0.7139,-0.7139,-0.7139,-0.7139,-0.7139,-0.7139,-0.7139,-0.7139,-0.7139,-0.7139,-0.7139,-0.7139,-0.7139,-0.7139,-0.7139,-0.7139,-0.7139]},{"header":{"parameterUnit":"m.s-1","parameterCategory":1,"la1":30.6,"la2":28.766,"lo1":-90.7593,"lo2":-88.6598,"dy":0.0162,"dx":0.0183,"nx":116,"ny":114,"refTime":"2023-09-11T06:00:00:Z","depth":0,"parameterNumber":3,"parameterNumberName":"V-component_of_WINDS"},"data":[0.0,0.0,0.0,0.0,0.0,0.0,0.0,0.0,0.0,0.0,0.0,0.0,0.0,0.0,0.0,0.0,0.0,0.0,0.0,0.0,0.0,0.0,0.0,0.0,0.0,0.0,0.0,0.0,0.0,0.0,0.0,0.0,0.0,0.0,0.0,0.0,0.0,0.0,0.0,0.0,0.0,0.0,0.0,0.0,0.0,0.0,0.0,0.0,0.0,0.0,0.0,0.0,0.0,0.0,0.0,0.0,0.0,0.0,0.0,0.0,0.0,0.0,0.0,0.0,0.0,0.0,0.0,0.0,0.0,0.0,0.0,0.0,0.0,0.0,0.0,0.0,0.0,0.0,0.0,0.0,0.0,0.0,0.0,0.0,0.0,0.0,0.0,0.0,0.0,0.0,0.0,0.0,0.0,0.0,0.0,0.0,0.0,0.0,0.0,0.0,0.0,0.0,0.0,0.0,0.0,0.0,0.0,0.0,0.0,0.0,0.0,0.0,0.0,0.0,0.0,0.0,0.0,0.0,0.0,0.0,0.0,0.0,0.0,0.0,0.0,0.0,0.0,0.0,0.0,0.0,0.0,0.0,0.0,0.0,0.0,0.0,0.0,0.0,0.0,0.0,0.0,0.0,0.0,0.0,0.0,0.0,0.0,0.0,0.0,0.0,0.0,0.0,0.0,0.0,0.0,0.0,0.0,0.0,0.0,0.0,0.0,0.0,0.0,0.0,0.0,0.0,0.0,0.0,0.0,0.0,0.0,0.0,0.0,0.0,0.0,0.0,0.0,0.0,0.0,0.0,0.0,0.0,0.0,0.0,0.0,0.0,0.0,0.0,0.0,0.0,0.0,0.0,0.0,0.0,0.0,0.0,0.0,0.0,0.0,0.0,0.0,0.0,0.0,0.0,0.0,0.0,0.0,0.0,0.0,0.0,0.0,0.0,0.0,0.0,0.0,0.0,0.0,0.0,0.0,0.0,0.0,0.0,0.0,0.0,0.0,0.0,0.0,0.0,0.0,0.0,0.0,0.0,0.0,0.0,0.0,0.0,0.0,0.0,0.0,0.0,0.0,0.0,0.0,0.0,0.0,0.0,0.0,0.0,0.0,0.0,0.0,0.0,0.0,0.0,0.0,0.0,0.0,0.0,0.0,0.0,0.0,0.0,0.0,0.0,0.0,0.0,0.0,0.0,0.0,0.0,0.0,0.0,0.0,0.0,0.0,0.0,0.0,0.0,0.0,0.0,0.0,0.0,0.0,0.0,0.0,0.0,0.0,0.0,0.0,0.0,0.0,0.0,0.0,0.0,0.0,0.0,0.0,0.0,0.0,0.0,0.0,0.0,0.0,0.0,0.0,0.0,0.0,0.0,0.0,0.0,0.0,0.0,0.0,0.0,0.0,0.0,0.0,0.0,0.0,0.0,0.0,0.0,0.0,0.0,0.0,0.0,0.0,0.0,0.0,0.0,0.0,0.0,0.0,0.0,0.0,0.0,0.0,0.0,0.0,0.0,0.0,0.0,0.0,0.0,0.0,0.0,0.0,0.0,0.0,0.0,0.0,0.0,0.0,0.0,0.0,0.0,0.0,0.0,0.0,0.0,0.0,0.0,0.0,0.0,0.0,0.0,0.0,0.0,0.0,0.0,0.0,0.0,0.0,0.0,0.0,0.0,0.0,0.0,0.0,0.0,0.0,0.0,0.0,0.0,0.0,0.0,0.0,0.0,0.0,0.0,0.0,0.0,0.0,0.0,0.0,0.0,0.0,0.0,0.0,0.0,0.0,0.0,0.0,0.0,0.0,0.0,0.0,0.0,0.0,0.0,0.0,0.0,0.0,0.0,0.0,0.0,0.0,0.0,0.0,0.0,0.0,0.0,0.0,0.0,0.0,0.0,0.0,0.0,0.0,0.0,0.0,0.0,0.0,0.0,0.0,0.0,0.0,0.0,0.0,0.0,0.0,0.0,0.0,0.0,0.0,0.0,0.0,0.0,0.0,0.0,0.0,0.0,0.0,0.0,0.0,0.0,0.0,0.0,0.0,0.0,0.0,0.0,0.0,0.0,0.0,0.0,0.0,0.0,0.0,0.0,0.0,0.0,0.0,0.0,0.0,0.0,0.0,0.0,0.0,0.0,0.0,0.0,0.0,0.0,0.0,0.0,0.0,0.0,0.0,0.0,0.0,0.0,0.0,0.0,0.0,0.0,0.0,0.0,0.0,0.0,0.0,0.0,0.0,0.0,0.0,0.0,0.0,0.0,0.0,0.0,0.0,0.0,0.0,0.0,0.0,0.0,0.0,0.0,0.0,0.0,0.0,0.0,0.0,0.0,0.0,0.0,0.0,0.0,0.0,0.0,0.0,0.0,0.0,0.0,0.0,0.0,0.0,0.0,0.0,0.0,0.0,0.0,0.0,0.0,0.0,0.0,0.0,0.0,0.0,0.0,0.0,0.0,0.0,0.0,0.0,0.0,0.0,0.0,0.0,0.0,0.0,0.0,0.0,0.0,0.0,0.0,0.0,0.0,0.0,0.0,0.0,0.0,0.0,0.0,0.0,0.0,0.0,0.0,0.0,0.0,0.0,0.0,0.0,0.0,0.0,0.0,0.0,0.0,0.0,0.0,0.0,0.0,0.0,0.0,0.0,0.0,0.0,0.0,0.0,0.0,0.0,0.0,0.0,0.0,0.0,0.0,0.0,0.0,0.0,0.0,0.0,0.0,0.0,0.0,0.0,0.0,0.0,0.0,0.0,0.0,0.0,0.0,0.0,0.0,0.0,0.0,0.0,0.0,0.0,0.0,0.0,0.0,0.0,0.0,0.0,0.0,0.0,0.0,0.0,0.0,0.0,0.0,0.0,0.0,0.0,0.0,0.0,0.0,0.0,0.0,0.0,0.0,0.0,0.0,0.0,0.0,0.0,0.0,0.0,0.0,0.0,0.0,0.0,0.0,0.0,0.0,0.0,0.0,0.0,0.0,0.0,0.0,0.0,0.0,0.0,0.0,0.0,0.0,0.0,0.0,0.0,0.0,0.0,0.0,0.0,0.0,0.0,0.0,0.0,0.0,0.0,0.0,0.0,0.0,0.0,0.0,0.0,0.0,0.0,0.0,0.0,0.0,0.0,0.0,0.0,0.0,0.0,0.0,0.0,0.0,0.0,0.0,0.0,0.0,0.0,0.0,0.0,0.0,0.0,0.0,0.0,0.0,0.0,0.0,0.0,0.0,0.0,0.0,0.0,0.0,0.0,0.0,0.0,0.0,0.0,0.0,0.0,0.0,0.0,0.0,0.0,0.0,0.0,0.0,0.0,0.0,0.0,0.0,0.0,0.0,0.0,0.0,0.0,0.0,0.0,0.0,0.0,0.0,0.0,0.0,0.0,0.0,0.0,0.0,0.0,0.0,0.0,0.0,0.0,0.0,0.0,0.0,0.0,0.0,0.0,0.0,0.0,0.0,0.0,0.0,0.0,0.0,0.0,0.0,0.0,0.0,0.0,0.0,0.0,0.0,0.0,0.0,0.0,0.0,0.0,0.0,0.0,0.0,0.0,0.0,0.0,0.0,0.0,0.0,0.0,0.0,0.0,0.0,0.0,0.0,0.0,0.0,0.0,0.0,0.0,0.0,0.0,0.0,0.0,0.0,0.0,0.0,0.0,0.0,0.0,0.0,0.0,0.0,0.0,0.0,0.0,0.0,0.0,0.0,0.0,0.0,0.0,0.0,0.0,0.0,0.0,0.0,0.0,0.0,0.0,0.0,0.0,0.0,0.0,0.0,0.0,0.0,0.0,0.0,0.0,0.0,0.0,0.0,0.0,0.0,0.0,0.0,0.0,0.0,0.0,0.0,0.0,0.0,0.0,0.0,0.0,0.0,0.0,0.0,0.0,0.0,0.0,0.0,0.0,0.0,0.0,0.0,0.0,0.0,0.0,0.0,0.0,0.0,0.0,0.0,0.0,0.0,0.0,0.0,0.0,0.0,0.0,0.0,0.0,0.0,0.0,0.0,0.0,0.0,0.0,0.0,0.0,0.0,0.0,0.0,0.0,0.0,0.0,0.0,0.0,0.0,0.0,0.0,0.0,0.0,0.0,0.0,0.0,0.0,0.0,0.0,0.0,0.0,0.0,0.0,0.0,0.0,0.0,0.0,0.0,0.0,0.0,0.0,0.0,0.0,0.0,0.0,0.0,0.0,0.0,0.0,0.0,0.0,0.0,0.0,0.0,0.0,0.0,0.0,0.0,0.0,0.0,0.0,0.0,0.0,0.0,0.0,0.0,0.0,0.0,0.0,0.0,0.0,0.0,0.0,0.0,0.0,0.0,0.0,0.0,0.0,0.0,0.0,0.0,0.0,0.0,0.0,0.0,0.0,0.0,0.0,0.0,0.0,0.0,0.0,0.0,0.0,0.0,0.0,0.0,0.0,0.0,0.0,0.0,0.0,0.0,0.0,0.0,0.0,0.0,0.0,0.0,0.0,0.0,0.0,0.0,0.0,0.0,0.0,0.0,0.0,0.0,0.0,0.0,0.0,0.0,0.0,0.0,0.0,0.0,0.0,0.0,0.0,0.0,0.0,0.0,0.0,0.0,0.0,0.0,0.0,0.0,0.0,0.0,0.0,0.0,0.0,0.0,0.0,0.0,0.0,0.0,0.0,0.0,0.0,0.0,0.0,0.0,0.0,0.0,0.0,0.0,0.0,0.0,0.0,0.0,0.0,0.0,0.0,0.0,0.0,0.0,0.0,0.0,0.0,0.0,0.0,0.0,0.0,0.0,0.0,0.0,0.0,0.0,0.0,0.0,0.0,0.0,0.0,0.0,0.0,0.0,0.0,0.0,0.0,0.0,0.0,0.0,0.0,0.0,0.0,0.0,0.0,0.0,0.0,0.0,0.0,0.0,0.0,0.0,0.0,0.0,0.0,0.0,0.0,0.0,0.0,0.0,0.0,0.0,0.0,0.0,0.0,0.0,0.0,0.0,0.0,0.0,0.0,0.0,0.0,0.0,0.0,0.0,0.0,0.0,0.0,0.0,0.0,0.0,0.0,0.0,0.0,0.0,0.0,0.0,0.0,0.0,0.0,0.0,0.0,0.0,0.0,0.0,0.0,0.0,0.0,0.0,0.0,0.0,0.0,0.0,0.0,0.0,0.0,0.0,0.0,0.0,0.0,0.0,0.0,0.0,0.0,0.0,0.0,0.0,0.0,0.0,0.0,0.0,0.0,0.0,0.0,0.0,0.0,0.0,0.0,0.0,0.0,0.0,0.0,0.0,0.0,0.0,0.0,0.0,0.0,0.0,0.0,0.0,0.0,0.0,0.0,0.0,0.0,0.0,0.0,0.0,0.0,0.0,0.0,0.0,0.0,0.0,0.0,0.0,0.0,0.0,0.0,0.0,0.0,0.0,0.0,0.0,0.0,0.0,0.0,0.0,0.0,0.0,0.0,0.0,0.0,0.0,0.0,0.0,0.0,0.0,0.0,0.0,0.0,0.0,0.0,0.0,0.0,0.0,0.0,0.0,0.0,0.0,0.0,0.0,0.0,0.0,0.0,0.0,0.0,0.0,0.0,0.0,0.0,0.0,0.0,0.0,0.0,0.0,0.0,0.0,0.0,0.0,0.0,0.0,0.0,0.0,0.0,0.0,0.0,0.0,0.0,0.0,0.0,0.0,0.0,0.0,0.0,0.0,0.0,0.0,0.0,0.0,0.0,0.0,0.0,0.0,0.0,0.0,0.0,0.0,0.0,0.0,0.0,0.0,0.0,0.0,0.0,0.0,0.0,0.0,0.0,0.0,0.0,0.0,0.0,0.0,0.0,0.0,0.0,0.0,0.0,0.0,0.0,0.0,0.0,0.0,0.0,0.0,0.0,0.0,0.0,0.0,0.0,0.0,0.0,0.0,0.0,0.0,0.0,0.0,0.0,0.0,0.0,0.0,0.0,0.0,0.0,0.0,0.0,0.0,0.0,0.0,0.0,0.0,0.0,0.0,0.0,0.0,0.0,0.0,0.0,0.0,0.0,0.0,0.0,0.0,0.0,0.0,0.0,0.0,0.0,0.0,0.0,0.0,0.0,0.0,0.0,0.0,0.0,0.0,0.0,0.0,0.0,0.0,0.0,0.0,0.0,1.9059,1.7488,0.0,0.0,0.0,0.0,0.0,0.0,0.0,0.0,0.0,0.0,0.0,0.0,0.0,0.0,0.0,0.0,0.0,0.0,0.0,0.0,0.0,0.0,0.0,0.0,0.0,0.0,0.0,0.0,0.0,0.0,0.0,0.0,0.0,0.0,0.0,0.0,0.0,0.0,0.0,0.0,0.0,0.0,0.0,0.0,0.0,0.0,0.0,0.0,0.0,0.0,0.0,0.0,0.0,0.0,0.0,0.0,0.0,0.0,0.0,0.0,0.0,0.0,0.0,0.0,0.0,0.0,0.0,0.0,0.0,0.0,0.0,0.0,0.0,0.0,0.0,0.0,0.0,0.0,0.0,0.0,0.0,0.0,0.0,0.0,0.0,0.0,0.0,0.0,0.0,0.0,0.0,0.0,0.0,0.0,0.0,0.0,0.0,0.0,0.0,0.0,0.0,0.0,0.0,0.0,0.0,0.0,0.0,0.0,0.0,0.0,0.0,0.0,0.0,0.0,2.1642,2.0535,0.0,0.0,0.0,0.0,0.0,0.0,0.0,0.0,0.0,0.0,0.0,0.0,0.0,0.0,0.0,0.0,0.0,0.0,0.0,0.0,0.0,0.0,0.0,0.0,0.0,0.0,0.0,0.0,0.0,0.0,0.0,0.0,0.0,0.0,0.0,0.0,0.0,0.0,0.0,0.0,0.0,0.0,0.0,0.0,0.0,0.0,0.0,0.0,0.0,0.0,0.0,0.0,0.0,0.0,0.0,0.0,0.0,0.0,0.0,0.0,0.0,0.0,0.0,0.0,0.0,0.0,0.0,0.0,0.0,0.0,0.0,0.0,0.0,0.0,0.0,0.0,0.0,0.0,0.0,0.0,0.0,0.0,0.0,0.0,0.0,0.0,0.0,0.0,0.0,0.0,0.0,0.0,0.0,0.0,0.0,0.0,0.0,0.0,0.0,0.0,0.0,0.0,0.0,0.0,0.0,0.0,0.0,0.0,2.3586,2.3644,2.3644,2.3644,2.4356,2.5546,2.423,2.3853,2.4086,2.2104,0.0,0.0,0.0,0.0,0.0,0.0,0.0,0.0,0.0,0.0,0.0,0.0,0.0,0.0,0.0,0.0,0.0,0.0,0.0,0.0,0.0,0.0,0.0,0.0,0.0,0.0,0.0,0.0,0.0,0.0,0.0,0.0,0.0,0.0,0.0,0.0,0.0,0.0,2.7303,2.7241,2.721,2.721,2.6841,0.0,0.0,0.0,0.0,0.0,0.0,0.0,0.0,0.0,0.0,0.0,0.0,0.0,0.0,0.0,0.0,0.0,0.0,0.0,0.0,0.0,0.0,0.0,0.0,0.0,0.0,0.0,0.0,0.0,0.0,0.0,0.0,0.0,0.0,0.0,0.0,0.0,0.0,0.0,0.0,0.0,0.0,0.0,2.4123,2.4354,0.0,0.0,0.0,0.0,0.0,0.0,0.0,0.0,0.0,0.0,0.0,0.0,0.0,2.3048,2.3861,2.4525,2.5287,2.6011,2.6649,2.696,2.696,2.696,2.7078,2.7261,2.7078,0.0,2.6076,2.497,0.0,0.0,0.0,0.0,0.0,0.0,0.0,0.0,0.0,0.0,0.0,0.0,0.0,0.0,0.0,0.0,0.0,0.0,0.0,0.0,0.0,0.0,0.0,0.0,0.0,0.0,0.0,0.0,0.0,0.0,0.0,0.0,0.0,0.0,0.0,0.0,2.7147,2.7115,2.7303,2.7051,2.7194,2.7571,2.7386,2.7097,2.6691,2.6691,0.0,0.0,0.0,0.0,0.0,0.0,0.0,0.0,0.0,0.0,0.0,0.0,0.0,0.0,0.0,0.0,0.0,0.0,0.0,0.0,0.0,0.0,0.0,0.0,0.0,0.0,0.0,0.0,0.0,0.0,0.0,0.0,0.0,0.0,0.0,0.0,0.0,0.0,0.0,2.4568,2.4763,2.5709,2.4072,2.2563,0.0,0.0,0.0,0.0,0.0,0.0,0.0,0.0,0.0,2.4129,2.4943,2.5598,2.6048,2.6395,2.6753,2.7137,2.7458,2.7625,2.7625,2.7625,2.7625,2.7625,2.7625,2.7408,2.7034,2.5737,2.4817,2.4138,0.0,0.0,0.0,0.0,2.7914,3.0027,0.0,0.0,0.0,0.0,0.0,0.0,0.0,0.0,0.0,0.0,0.0,0.0,0.0,0.0,0.0,2.1015,0.0,0.0,0.0,0.0,0.0,0.0,0.0,0.0,0.0,0.0,0.0,2.7754,2.7525,2.7471,2.7598,2.7483,2.7709,2.8218,2.8061,2.7739,2.7283,2.7283,2.7604,0.0,0.0,0.0,0.0,0.0,0.0,0.0,0.0,0.0,0.0,0.0,0.0,0.0,0.0,0.0,0.0,0.0,0.0,0.0,0.0,0.0,0.0,0.0,0.0,0.0,0.0,0.0,0.0,0.0,0.0,0.0,0.0,0.0,0.0,0.0,0.0,0.0,0.0,2.5725,2.6101,2.6938,2.5586,2.4399,0.0,0.0,0.0,0.0,0.0,0.0,2.387,2.5146,2.5979,2.6251,2.7214,2.772,2.781,2.7675,2.7675,2.781,2.766,2.766,2.781,2.7675,2.7625,2.7625,2.7625,2.766,2.7745,2.6366,2.5776,2.572,2.5063,2.5464,2.6662,2.8372,3.0046,3.1744,0.0,0.0,0.0,0.0,0.0,0.0,0.0,0.0,0.0,0.0,0.0,0.0,0.0,0.0,2.0842,2.1594,2.2817,2.3551,0.0,0.0,0.0,0.0,0.0,0.0,0.0,0.0,0.0,2.7317,2.7623,2.7981,2.838,2.9056,2.9368,2.9402,2.8829,2.8682,2.8892,2.8892,2.889,2.8924,0.0,0.0,0.0,0.0,0.0,0.0,0.0,0.0,0.0,0.0,0.0,0.0,0.0,0.0,0.0,0.0,0.0,0.0,0.0,0.0,0.0,0.0,0.0,0.0,0.0,0.0,0.0,0.0,0.0,0.0,0.0,0.0,0.0,0.0,0.0,0.0,0.0,0.0,0.0,2.8543,2.8716,0.0,0.0,0.0,0.0,2.4544,2.5469,2.6335,2.6778,2.7661,2.8467,2.9194,2.8717,2.8463,2.8463,2.791,2.791,2.8463,2.7845,2.791,2.8431,2.786,2.7625,2.7625,2.7625,2.791,2.8415,2.7745,2.7384,2.7315,2.7649,2.8155,2.8962,3.0749,3.2133,3.3269,0.0,0.0,0.0,0.0,0.0,0.0,0.0,0.0,0.0,0.0,0.0,0.0,0.0,1.9737,2.1418,2.1697,2.2831,2.3767,2.4074,0.0,0.0,0.0,0.0,0.0,0.0,0.0,2.7606,2.7999,2.839,2.864,2.88,2.8645,2.885,2.9286,2.8664,2.8739,2.9205,2.8665,2.8705,2.9121,2.9121,2.9066,0.0,0.0,0.0,0.0,0.0,0.0,0.0,0.0,0.0,0.0,0.0,0.0,0.0,0.0,0.0,0.0,0.0,0.0,0.0,0.0,0.0,0.0,0.0,0.0,0.0,0.0,0.0,0.0,0.0,0.0,0.0,0.0,0.0,0.0,0.0,0.0,0.0,2.9088,2.8824,0.0,2.7576,2.7573,2.7429,2.6986,2.7786,2.8372,2.8545,2.9217,2.952,2.9406,2.918,2.8873,2.8511,2.791,2.791,2.8511,2.8271,2.8286,2.8511,2.8286,2.8189,2.8189,2.8189,2.8511,2.9088,2.9143,2.9125,2.9122,2.9668,3.0465,3.1497,3.269,3.3717,3.4592,0.0,0.0,0.0,0.0,0.0,0.0,0.0,0.0,0.0,0.0,0.0,1.4506,1.7313,2.0066,2.1697,2.1697,2.304,2.4032,2.4389,0.0,0.0,0.0,0.0,0.0,0.0,2.7692,2.8083,2.8596,2.9119,2.9364,2.9364,2.9015,2.9123,2.9527,2.8746,2.8661,2.9087,2.8458,2.8628,2.9261,2.9261,2.934,2.9313,0.0,0.0,0.0,0.0,0.0,0.0,0.0,0.0,0.0,0.0,0.0,0.0,0.0,0.0,0.0,0.0,0.0,0.0,0.0,0.0,0.0,0.0,0.0,0.0,0.0,0.0,0.0,0.0,0.0,0.0,0.0,0.0,0.0,0.0,2.842,2.9069,2.9345,2.931,2.9217,2.8992,2.8992,2.9082,2.9246,2.952,2.9805,2.9995,3.0208,3.0307,3.0381,2.9984,2.9687,2.95,2.9128,2.9128,2.95,2.9516,2.9659,2.9832,2.9659,2.9564,2.9564,2.9737,3.0167,3.0762,3.1149,3.163,3.2024,3.1668,3.2113,3.3131,3.4061,3.4735,3.5233,0.0,0.0,0.0,0.0,0.0,0.0,0.0,0.0,0.0,0.0,1.3055,1.5761,1.7434,2.0066,2.1697,2.1744,2.336,2.4389,2.443,2.491,0.0,0.0,0.0,0.0,2.7772,2.784,2.8264,2.9008,2.9732,3.0104,3.0121,3.0203,3.0251,3.0208,2.8996,2.8463,2.8463,2.8463,2.8826,2.9361,2.9361,2.9406,2.9316,0.0,0.0,0.0,0.0,0.0,0.0,0.0,0.0,0.0,0.0,0.0,0.0,0.0,0.0,0.0,0.0,0.0,0.0,0.0,0.0,0.0,0.0,0.0,0.0,0.0,0.0,0.0,0.0,0.0,0.0,0.0,0.0,0.0,2.8545,2.9488,3.0123,2.954,3.0477,3.0975,3.0393,3.0351,3.0576,3.1185,3.0692,3.0609,3.1219,3.0684,3.0941,3.2249,3.1116,3.0829,3.147,3.1534,3.1534,3.1518,3.1582,3.1929,3.2496,3.1866,3.163,3.1661,3.2208,3.278,3.3393,3.3869,3.4847,3.5872,3.3662,3.3166,3.3839,3.489,3.5271,3.5275,0.0,0.0,0.0,0.0,0.0,0.0,0.0,0.0,0.0,0.0,1.3101,1.5899,1.8105,2.0354,2.1899,2.2392,2.3304,2.4158,2.4934,0.0,0.0,0.0,0.0,0.0,2.7824,2.8907,2.9583,2.9803,3.0106,3.0236,3.0236,2.9416,2.9012,2.895,2.8174,2.786,2.786,2.786,2.7944,2.8174,2.9042,2.9134,2.8732,0.0,0.0,0.0,0.0,0.0,0.0,0.0,0.0,0.0,0.0,0.0,0.0,0.0,0.0,0.0,0.0,0.0,0.0,0.0,0.0,0.0,0.0,0.0,0.0,0.0,0.0,0.0,0.0,0.0,0.0,0.0,2.9657,3.0192,2.98,3.0444,3.0878,3.0699,3.1015,3.1134,3.0975,3.0958,3.1234,3.1935,3.1847,3.1842,3.2034,3.1918,3.1778,3.1667,3.0925,3.0809,3.147,3.1097,3.1341,3.2253,3.2253,3.236,3.2496,3.2315,3.2475,3.2864,3.3001,3.3602,3.4533,3.5235,3.575,3.6029,3.5402,3.5725,3.6604,3.6858,3.6918,3.6883,0.0,0.0,0.0,0.0,0.0,0.0,0.0,0.0,0.0,0.0,1.3785,1.6763,1.8413,2.0453,2.1946,2.2649,2.3478,2.4199,2.4816,0.0,0.0,0.0,0.0,2.8049,2.8493,2.9556,3.0128,3.0162,3.0278,3.0166,2.9892,2.8966,2.8511,2.8463,2.786,2.7625,2.7625,2.7625,2.7625,2.766,2.8352,2.8448,2.814,2.814,2.791,2.7625,2.7625,2.7625,2.756,2.7255,0.0,0.0,0.0,0.0,0.0,0.0,0.0,0.0,0.0,0.0,0.0,0.0,0.0,0.0,0.0,0.0,0.0,0.0,0.0,0.0,0.0,0.0,0.0,0.0,3.0293,3.0658,3.0658,3.0975,3.119,3.119,3.119,3.1309,3.1613,3.1647,3.1952,3.2696,3.2522,3.2347,3.2406,3.1898,3.1694,3.1836,3.1268,3.1393,3.235,3.2301,3.2644,3.3387,3.3649,3.3801,3.3801,3.3801,3.4105,3.4607,3.4835,3.5483,3.6429,3.7095,3.756,3.7736,0.0,0.0,0.0,0.0,3.7566,3.7544,0.0,0.0,0.0,0.0,0.0,0.0,0.0,0.0,0.0,0.0,0.0,1.7752,1.8531,2.0403,2.1913,2.2649,2.3621,2.4307,0.0,0.0,0.0,2.6488,2.705,2.8017,2.942,2.9955,3.0241,3.0293,3.0208,2.9892,2.9271,2.8591,2.8319,2.8367,2.7745,2.7509,2.7575,2.7524,2.7473,2.7458,2.7408,2.7458,2.7625,2.7625,2.7625,2.7625,2.7625,2.7575,2.7357,2.6721,0.0,0.0,0.0,0.0,0.0,0.0,0.0,0.0,0.0,0.0,0.0,0.0,0.0,0.0,0.0,0.0,0.0,0.0,0.0,0.0,0.0,0.0,0.0,0.0,3.0797,3.1224,3.1309,3.1309,3.1309,3.1309,3.1309,3.1596,3.2341,3.2408,3.2713,3.3474,3.2956,3.2632,3.2669,3.1596,0.0,0.0,0.0,3.2426,3.3684,3.4284,3.464,3.4736,3.5391,3.565,3.5622,3.5739,3.6054,3.6539,3.7079,3.7769,3.8504,3.9024,3.9634,4.0119,3.8621,3.7986,3.789,3.7824,3.7833,3.7768,0.0,0.0,0.0,0.0,0.0,0.0,0.0,0.0,0.0,1.1682,1.4668,1.7148,1.8478,2.0003,2.1465,2.2603,2.2905,2.3621,0.0,0.0,2.6822,2.6657,2.8169,2.9058,2.9102,3.0332,3.0744,3.0293,2.9805,2.9271,2.8654,2.7464,2.7174,2.776,2.7034,2.7034,2.756,2.6982,2.6721,2.6669,2.6054,2.6534,2.7625,2.7625,2.7625,2.7625,2.7625,2.7203,2.6669,2.6563,2.5618,2.4509,2.435,0.0,0.0,0.0,0.0,0.0,0.0,0.0,0.0,0.0,0.0,0.0,0.0,0.0,0.0,0.0,0.0,0.0,0.0,0.0,0.0,3.0293,3.0797,3.1393,3.1985,3.211,3.211,3.211,3.211,3.2357,3.3119,3.3186,3.3491,3.4218,3.4182,3.4108,3.4195,3.3924,3.3697,3.339,3.3288,3.3607,3.4382,3.4528,3.4894,3.5407,3.5968,0.0,3.5622,3.6481,3.696,3.7097,3.7853,3.8462,3.9016,3.9696,4.0254,4.0642,4.0333,3.9955,3.9618,3.9657,3.9319,3.8765,0.0,0.0,0.0,0.0,0.0,0.0,0.0,0.0,0.0,0.0,1.3535,1.5806,1.7279,1.8419,1.9801,2.1499,2.2285,0.0,0.0,2.5277,2.5969,2.6232,2.7651,2.8398,2.8469,2.9658,2.9978,2.9406,2.9104,2.8638,2.8042,2.6967,2.6721,2.7034,2.6283,2.6162,2.6481,2.6122,2.596,2.5906,2.5563,2.5837,2.6534,2.693,2.7306,2.756,2.7203,2.6826,2.6457,2.6068,2.5231,2.4292,2.4292,2.4002,2.359,0.0,0.0,0.0,0.0,0.0,0.0,0.0,0.0,0.0,0.0,0.0,0.0,0.0,0.0,2.9496,2.9805,0.0,3.0509,3.1183,3.1554,3.2002,3.2747,3.2848,3.2848,3.2848,3.2848,3.3136,3.388,3.3947,3.4252,3.5013,3.4745,3.4542,3.4607,3.4284,3.3937,3.3582,3.3582,3.3937,3.4576,3.4576,3.4941,3.5622,3.6139,3.6266,3.6011,3.6825,3.7434,3.7819,3.8227,3.885,3.9652,4.021,4.0579,4.0728,4.0565,4.0364,4.013,3.9964,3.9554,3.9044,0.0,0.0,0.0,0.0,0.0,0.0,0.0,0.0,0.0,0.0,1.2335,1.4338,1.5689,1.6796,1.8213,0.0,0.0,0.0,0.0,2.4081,2.4902,2.5668,2.6735,2.7453,2.7791,2.8855,2.9088,2.8511,2.8511,2.8189,2.7575,2.6721,2.6336,2.6457,2.5563,2.5287,2.5398,2.5231,2.5175,2.5175,2.5007,2.5063,2.5287,2.6014,2.6759,2.7306,2.6549,2.6283,2.6176,2.5453,2.4681,2.406,2.406,2.406,2.3943,2.3305,2.3989,0.0,0.0,0.0,0.0,0.0,0.0,0.0,0.0,0.0,2.8276,2.9508,2.9761,2.9941,3.0558,3.0675,3.1075,3.2191,3.2459,3.2747,3.3474,3.3609,3.3677,3.3812,3.3711,3.3897,3.4641,3.4709,3.4962,3.5571,3.5098,3.4783,3.4783,3.4284,3.4003,3.4003,3.4003,3.4252,3.4783,3.4783,3.5128,3.5783,3.6291,3.658,3.658,3.7228,3.7839,3.8395,3.8664,3.9307,4.0242,4.0565,4.0662,4.0565,4.0287,4.0106,3.9965,3.9615,3.9308,3.8952,0.0,0.0,0.0,0.0,0.0,0.0,0.0,0.0,0.0,0.0,0.0,0.0,0.0,0.0,0.0,0.0,0.0,0.0,2.2555,2.4153,2.5182,2.5265,2.6567,2.7336,2.7361,2.8714,2.9088,2.8511,2.8511,2.8189,2.7575,2.6162,2.5837,2.6457,2.5063,2.4794,2.5342,2.4681,2.4408,2.4337,2.3649,2.3767,2.4509,2.5231,2.6,2.651,2.5783,2.5508,2.5398,2.4681,2.3884,2.3245,2.3245,2.3245,2.3185,2.3138,0.0,2.3305,2.3138,2.4208,2.5809,2.7685,2.8192,2.856,0.0,0.0,3.0192,3.0878,3.1015,3.1217,3.1938,3.2073,3.2208,3.258,3.2984,3.3491,3.404,3.4242,3.4624,3.5301,3.4776,3.4675,3.5419,3.5504,3.552,3.556,3.5515,3.547,3.547,3.5424,3.5362,3.5362,3.5362,3.5407,3.547,3.547,3.5766,3.6308,3.6825,3.7097,3.7135,3.8101,3.8486,3.8456,3.9518,4.0243,4.0632,4.0683,4.0517,4.0256,4.0135,3.9759,3.9226,3.9186,3.899,3.8621,0.0,0.0,0.0,0.0,0.0,0.0,0.0,0.0,0.0,0.0,0.0,0.0,0.0,0.0,0.0,0.0,0.0,0.0,2.1974,2.3417,2.4266,2.4266,2.5592,2.6332,2.6332,2.7658,2.8012,2.7312,2.7312,2.7004,2.6322,2.5231,2.4894,2.5175,2.4105,2.3767,2.4047,2.3708,2.359,2.3603,2.3258,2.3305,2.3708,2.4452,2.5231,2.5892,2.6014,2.6068,0.0,0.0,2.406,2.3708,2.3245,2.3424,2.3708,2.3245,2.3754,0.0,2.4937,2.6048,2.7315,2.824,2.9012,2.9673,3.0166,3.0293,3.0477,3.1072,3.1529,3.1918,3.2222,3.2435,3.2782,3.3448,3.3498,3.3785,3.4868,3.5115,3.5267,3.5588,3.5351,3.5267,3.5588,3.5622,3.5622,3.5622,3.5622,3.5622,3.5622,3.5622,3.5622,3.5622,3.5898,3.5898,3.5622,3.6207,3.6481,3.6416,3.721,3.7614,3.7649,3.8542,3.9111,3.9475,4.0097,4.0517,4.0758,4.0621,4.0432,4.0169,3.9927,3.9529,3.9099,3.9099,3.8733,3.8183,0.0,0.0,0.0,0.0,0.0,0.0,0.0,0.0,0.0,0.0,0.0,0.0,0.0,0.0,0.0,0.0,0.0,0.0,0.0,2.2637,2.3421,2.3595,2.4881,2.5506,2.5301,2.6624,2.693,2.6176,2.6176,2.5906,2.5398,2.4624,2.4292,2.4292,2.3484,2.3005,2.2763,2.3017,2.2944,2.2823,2.3017,2.3245,2.3543,2.4279,2.5063,2.5728,2.6068,2.6336,0.0,0.0,2.4624,2.4509,2.393,2.4105,2.4509,2.393,2.4553,2.5618,2.652,2.741,0.0,2.8841,2.9673,3.0335,3.0518,3.0726,3.0999,3.1398,3.207,3.2662,3.2848,3.3018,3.3448,3.4445,3.4257,3.4364,3.5442,3.5622,3.5616,3.5613,3.5613,3.5606,3.56,3.5603,3.5622,3.5622,3.5622,3.5622,3.5622,3.5622,3.565,3.5827,3.6182,3.6291,3.6054,3.6825,3.7058,3.6825,3.7882,3.8452,3.8634,3.962,4.039,4.0924,4.0907,4.0996,4.1087,4.0614,4.0269,4.0002,3.9615,3.9257,3.8971,3.883,3.8413,3.7859,0.0,0.0,0.0,0.0,0.0,0.0,0.0,0.0,0.0,0.0,0.0,0.0,0.0,0.0,0.0,0.0,0.0,0.0,0.0,2.1965,2.2965,2.3551,2.4881,2.5254,2.4531,2.5848,2.6176,2.5453,2.5453,2.5398,2.5398,2.4624,2.4292,2.4292,2.3484,2.2689,2.2002,2.2763,2.2641,2.2002,2.2763,2.3603,2.4337,2.5063,2.5837,2.6404,2.5673,0.0,0.0,0.0,2.5342,2.5342,2.5342,2.5342,0.0,2.5342,2.5342,2.57,2.7004,2.741,2.7875,2.9772,3.0251,3.0435,3.1055,3.1732,3.2239,3.2239,3.2848,3.3592,3.4303,3.4276,3.4479,3.5374,3.5526,3.5526,3.556,3.5622,3.5586,3.5614,3.5604,3.5596,3.5577,3.5599,3.5622,3.5622,3.5622,3.5622,3.5622,3.5622,3.5854,3.6333,3.6374,3.6643,3.7152,3.7173,3.7433,3.7877,3.8994,3.9815,4.0374,4.1825,4.2565,4.2688,4.2171,4.1968,4.1866,4.0699,3.9966,3.958,3.9238,3.8961,3.8658,3.8132,3.7928,3.7825,0.0,0.0,0.0,0.0,0.0,0.0,0.0,0.0,0.0,0.0,0.0,0.0,0.0,0.0,0.0,0.0,0.0,0.0,0.0,2.1247,2.209,2.2317,2.3179,2.3449,2.3024,2.3446,2.3402,2.2937,2.2937,2.271,2.2213,2.193,2.1818,2.1892,2.2175,2.2125,2.1939,2.2187,2.2445,2.2689,2.2384,2.2811,2.3649,2.4894,2.5563,2.5837,0.0,0.0,0.0,0.0,0.0,0.0,2.5563,2.5728,2.6122,2.6122,2.6385,2.6813,2.7259,2.8324,2.9476,3.0149,3.0617,3.1093,3.1759,3.2104,3.2425,3.2933,3.3609,3.4167,3.4276,3.4749,3.5222,3.5571,3.5622,3.5622,3.5622,3.5572,3.5591,3.5604,3.6811,3.7644,3.7656,3.6417,3.5589,3.5607,3.5617,3.5812,3.6301,3.6187,3.6374,3.6921,3.7765,3.8125,3.8008,3.9175,3.9829,3.9918,4.0812,4.1481,4.1886,4.247,4.2907,4.3179,4.2917,4.2842,4.2895,4.2356,4.1781,4.1259,4.1117,4.044,3.9415,3.8878,3.8169,3.736,0.0,0.0,0.0,0.0,0.0,0.0,0.0,0.0,0.0,0.0,0.0,0.0,0.0,0.0,0.0,0.0,0.0,0.0,0.0,0.0,2.0647,2.0882,2.1653,2.193,2.1542,2.1856,2.1777,2.1323,2.1323,2.1043,2.059,2.059,2.059,2.0655,2.1175,2.1239,2.1037,2.1628,2.1815,2.1791,2.2187,2.2616,2.3255,2.4811,2.5563,0.0,0.0,0.0,0.0,0.0,0.0,2.6826,2.6322,2.6496,2.693,2.7159,2.7485,2.7887,2.8324,2.9326,3.0351,3.0559,3.0918,3.1376,3.2121,3.2493,3.2899,3.3643,3.4387,3.4861,3.4715,3.5188,3.5622,3.5622,3.5622,3.5622,3.5622,3.5626,3.5866,3.6609,3.7907,3.869,3.8689,3.7481,3.6412,3.5674,3.5954,3.6318,3.667,3.6812,3.7171,3.788,3.8654,3.9193,3.9354,4.0646,4.1534,4.2018,4.253,4.312,4.3769,4.3868,4.407,4.4332,4.3864,4.3746,4.3819,4.3044,4.2474,4.2084,4.1844,4.1152,4.024,3.9746,3.8995,3.8144,0.0,0.0,0.0,0.0,0.0,0.0,0.0,0.0,0.0,0.0,0.0,0.0,0.0,0.0,0.0,0.0,0.0,0.0,0.0,0.0,0.0,1.9331,2.0353,2.0575,1.9842,2.0803,2.1003,2.0322,2.0322,2.0322,2.0322,2.0322,2.0322,2.0386,2.0451,2.0009,1.9431,2.1037,2.0846,1.9552,2.199,2.2955,2.3179,2.4797,0.0,0.0,0.0,0.0,0.0,0.0,0.0,0.0,2.766,2.771,2.7795,2.8367,2.8559,2.8826,2.9995,3.0293,3.0477,3.1055,3.119,3.1393,3.2171,3.2899,3.3626,3.4387,3.5115,3.5622,0.0,3.5605,3.5605,3.5735,3.5779,3.5745,3.5711,3.5617,3.6377,3.8465,3.8707,3.8689,3.8713,3.8682,3.7863,3.5929,3.671,3.7157,3.6819,3.7408,3.8202,3.912,3.9227,3.987,4.1181,4.159,4.254,4.4061,4.4078,4.473,4.5899,4.5907,4.5981,4.6023,4.5013,4.4649,4.4637,4.2946,4.2221,4.2146,4.1496,4.1203,4.1101,4.0581,4.0293,3.9986,0.0,0.0,0.0,0.0,0.0,0.0,0.0,0.0,0.0,0.0,0.0,0.0,0.0,0.0,0.0,0.0,0.0,0.0,0.0,0.0,0.0,0.0,0.0,0.0,1.6484,1.6175,1.6232,1.6591,1.6591,1.6591,1.6591,1.6591,1.6936,1.7639,1.8285,1.8839,1.9299,1.9748,2.0074,2.0333,0.0,2.1942,2.3179,0.0,0.0,0.0,0.0,0.0,0.0,0.0,0.0,0.0,2.881,2.895,2.895,2.9134,2.9496,2.9908,3.0208,3.0617,3.1015,3.1151,3.119,3.1529,3.2831,3.3271,3.3778,3.5064,3.5487,3.5622,3.5622,3.5598,3.6113,3.7662,3.7907,3.7646,3.6913,3.6103,3.6381,3.8455,0.0,3.8706,3.8707,3.8687,3.8501,3.7958,3.8169,3.8294,3.8171,3.8633,3.9227,3.9951,4.0949,4.1783,4.234,4.3592,4.4469,4.4968,4.5225,4.5537,4.5899,4.5995,4.6,4.5936,4.5665,4.5531,4.5466,4.4652,4.418,4.3931,4.3461,4.2746,4.1925,4.1379,4.0558,3.9637,0.0,0.0,0.0,0.0,0.0,0.0,0.0,0.0,0.0,0.0,0.0,0.0,0.0,0.0,0.0,0.0,0.0,0.0,0.0,0.0,0.0,0.0,0.0,1.5292,1.4545,1.4395,1.4587,1.4993,1.5159,0.0,1.5234,1.5234,1.5517,1.6,1.6522,1.721,1.8133,1.8526,0.0,0.0,0.0,0.0,0.0,0.0,0.0,0.0,0.0,0.0,0.0,0.0,0.0,2.895,2.9271,2.9406,2.9451,2.9717,0.0,3.0351,3.0601,3.1083,3.1411,3.1252,3.1504,3.2053,3.3134,3.343,3.3887,3.5284,3.5622,3.5622,3.5622,3.56,3.6288,3.8356,3.8695,3.8483,3.7945,3.7363,3.7392,3.8574,3.8688,3.8707,3.8707,3.8707,3.8707,3.8707,3.8692,3.8699,3.8697,4.0236,4.111,4.1027,4.1484,4.24,4.3717,4.4712,4.53,4.5576,4.5811,4.5979,4.608,4.6085,4.6054,4.5985,4.5885,4.575,4.5542,4.5063,4.4682,4.4308,4.3943,4.3402,4.2784,4.2502,4.1887,4.1191,0.0,0.0,0.0,0.0,0.0,0.0,0.0,0.0,0.0,0.0,0.0,0.0,0.0,0.0,0.0,0.0,0.0,0.0,0.0,0.0,0.0,0.0,1.4599,1.4435,1.36,1.4082,1.4383,1.4481,1.4652,0.0,0.0,0.0,0.0,0.0,0.0,0.0,0.0,0.0,0.0,0.0,0.0,0.0,0.0,0.0,0.0,0.0,0.0,0.0,0.0,0.0,2.9874,2.9641,2.9756,2.9756,2.9816,3.036,3.0485,3.0625,3.1157,3.1528,3.1733,3.1449,3.195,3.2669,3.3265,3.3511,3.3991,3.5297,3.5616,3.5622,3.5622,3.5848,3.6609,3.8427,3.8688,3.8687,3.8687,3.8705,3.8679,3.8679,3.8702,3.8707,3.8707,3.8707,3.8707,3.8695,3.8706,3.8894,3.9292,4.1977,4.3059,4.2136,4.1772,4.266,4.4911,4.5226,4.5548,4.5924,4.6045,4.6173,4.6308,4.615,4.6084,4.605,4.5869,4.5607,4.5227,4.4796,4.4346,4.3955,4.3612,4.3497,4.3497,4.3497,4.3444,4.3232,0.0,0.0,0.0,0.0,0.0,0.0,0.0,0.0,0.0,0.0,1.2939,0.0,0.0,0.0,0.0,0.0,0.0,0.0,0.0,0.0,0.0,0.0,1.4276,1.4031,1.3474,1.2881,1.2892,1.3399,1.2756,0.0,0.0,0.0,0.0,0.0,0.0,0.0,0.0,0.0,0.0,0.0,0.0,0.0,0.0,0.0,0.0,0.0,0.0,0.0,0.0,0.0,3.0683,3.078,3.1685,3.17,3.1422,3.1514,3.1551,3.1551,3.1679,3.1752,3.1897,3.2179,3.2384,3.2682,3.3405,3.3599,0.0,3.5332,3.5615,3.5622,3.5622,3.6991,3.8297,3.8638,3.8704,3.8702,3.8702,3.8711,3.8706,3.8706,3.8713,3.8707,3.8707,3.8707,3.8695,3.8706,3.8688,3.9863,4.2507,4.3188,4.3416,4.3231,4.3875,4.4505,4.5053,4.5499,4.582,4.6075,4.6084,4.6173,4.6308,4.615,4.6039,4.5924,4.5844,4.5552,4.5101,4.4757,4.4346,4.3955,4.3612,4.3497,4.3497,4.3497,4.3214,4.2732,0.0,0.0,0.0,0.0,0.0,0.0,0.0,0.0,0.0,1.2881,1.2881,1.3037,0.0,0.0,0.0,0.0,0.0,0.0,0.0,0.0,0.0,0.0,0.0,1.4258,1.3194,1.2933,1.2741,1.2602,0.0,1.2366,0.0,1.2231,0.0,0.0,0.0,0.0,0.0,0.0,0.0,0.0,0.0,0.0,0.0,0.0,0.0,0.0,0.0,0.0,0.0,0.0,3.1652,3.2125,3.2415,3.235,3.2161,3.2161,3.2161,3.2161,3.2161,3.2332,3.2533,3.2517,3.284,3.326,3.3546,0.0,0.0,0.0,3.5602,3.5918,3.7015,3.8046,3.8708,3.8708,3.8704,3.8707,3.8707,3.8707,3.8707,3.8707,3.8707,3.8707,3.8707,3.8707,3.8946,3.9502,4.0566,4.1878,4.3424,4.3486,4.386,4.4561,4.4674,4.4976,4.5499,4.5811,4.5994,4.6108,4.6173,4.619,4.6198,4.6069,4.5935,4.5847,4.5742,4.538,4.4825,4.4676,4.4252,4.3726,4.3563,4.3497,4.3497,4.3497,4.3339,4.3032,0.0,0.0,0.0,0.0,0.0,0.0,0.0,1.2881,1.2881,1.2881,1.2881,1.3008,1.334,1.4236,1.4777,0.0,0.0,0.0,0.0,0.0,0.0,0.0,0.0,1.509,1.3999,0.0,0.0,1.3226,1.3042,0.0,0.0,0.0,0.0,0.0,1.2519,0.0,0.0,0.0,0.0,0.0,0.0,0.0,0.0,0.0,0.0,0.0,0.0,0.0,0.0,0.0,3.2474,3.3237,3.2903,3.2713,3.2648,3.2648,3.2648,3.2648,3.2648,3.2921,3.3136,3.284,3.3284,3.3761,3.3654,3.5032,0.0,3.6291,3.6266,3.6743,3.8394,3.869,3.8683,0.0,3.8707,3.8707,3.8707,3.8707,3.8707,3.8707,3.8707,3.8719,3.8773,3.8773,3.9257,4.0381,4.2632,4.3829,4.3526,4.3797,4.4459,4.5564,4.509,4.5201,4.5983,4.6034,4.6097,4.6147,4.6249,4.6239,4.6147,4.5963,4.5839,4.5796,4.5648,4.5241,4.4662,4.4542,4.4098,4.3497,4.3497,4.3497,4.3497,4.3497,4.3497,4.3429,0.0,0.0,0.0,0.0,0.0,0.0,0.0,1.2881,1.2881,1.2881,1.2881,1.29,1.293,1.3361,1.3782,0.0,0.0,0.0,0.0,0.0,0.0,0.0,0.0,0.0,0.0,0.0,0.0,1.6456,1.3663,0.0,0.0,0.0,0.0,0.0,0.0,1.3171,1.2659,0.0,0.0,0.0,0.0,0.0,0.0,0.0,0.0,0.0,0.0,0.0,0.0,0.0,0.0,3.357,3.3671,3.3419,3.3154,3.3154,0.0,0.0,3.3154,3.3184,3.3273,3.3606,3.3734,3.3808,3.3782,0.0,3.6696,3.8126,3.842,3.8465,3.8663,3.869,3.8683,0.0,0.0,3.8707,3.8707,3.8707,3.8707,3.8707,3.8707,3.8803,3.9036,3.9044,3.9589,4.0841,4.3724,4.4836,4.3581,4.4711,4.5468,4.5589,4.5534,4.5753,4.6265,4.6026,4.6033,4.6289,4.6293,4.6288,4.626,4.5959,4.5809,4.5796,4.5648,4.5317,4.4832,4.441,4.3949,4.3497,4.3497,4.3497,4.3497,4.3497,4.3497,4.3484,0.0,0.0,0.0,0.0,0.0,0.0,0.0,1.2881,1.2881,1.2881,1.2881,1.2881,1.2881,1.3027,1.3301,0.0,0.0,0.0,0.0,0.0,0.0,0.0,0.0,0.0,0.0,0.0,0.0,1.5291,1.4215,0.0,0.0,0.0,0.0,0.0,0.0,1.2952,1.3302,0.0,0.0,0.0,0.0,0.0,0.0,0.0,0.0,0.0,0.0,0.0,0.0,0.0,0.0,0.0,3.4025,3.4074,0.0,0.0,3.3802,3.3854,3.4056,3.4086,3.4104,3.4068,3.4043,3.3979,3.3835,0.0,3.6766,3.8363,3.8696,3.871,3.871,3.8682,3.8688,0.0,0.0,0.0,3.8707,3.8707,3.8762,3.8923,3.8933,3.9054,3.9364,3.9389,4.0231,4.2237,4.4121,4.5115,4.4958,4.5361,4.5607,4.5607,4.5871,4.6105,4.6303,4.6195,4.6189,4.6308,4.6309,4.6226,4.6059,4.5925,4.58,4.568,4.5611,4.5494,4.5292,4.4665,4.4055,4.3497,4.3497,4.3497,4.3497,4.3497,4.3504,4.3485,0.0,0.0,0.0,0.0,0.0,1.2881,1.2881,1.2881,1.2881,1.2881,1.2881,1.2881,1.2881,1.2881,1.2998,1.3301,0.0,0.0,0.0,0.0,0.0,0.0,0.0,0.0,0.0,0.0,0.0,1.5177,1.4777,1.4256,0.0,0.0,1.2946,1.2956,0.0,0.0,0.0,0.0,0.0,0.0,0.0,0.0,0.0,0.0,0.0,0.0,0.0,0.0,0.0,0.0,0.0,0.0,0.0,0.0,0.0,0.0,3.4357,3.4401,3.4632,3.4694,3.4653,3.4401,3.4319,3.4186,0.0,0.0,3.6159,3.8269,3.8688,3.8701,3.8707,3.8707,3.8707,0.0,0.0,3.8707,3.8707,3.8707,3.8762,3.8961,3.9063,3.9238,3.9576,4.0233,4.1377,4.3137,4.446,4.5389,4.5879,4.5809,4.5764,4.5822,4.6131,4.6292,4.6306,4.6306,4.6308,4.6305,4.6308,4.613,4.5803,4.5809,4.5715,4.5605,4.5607,4.5589,4.5538,4.4653,4.3984,4.3497,4.3497,4.3497,4.3497,4.3497,4.3505,4.3411,0.0,0.0,0.0,0.0,0.0,0.0,0.0,1.2881,1.2881,1.2881,1.2881,1.2881,1.2881,1.2881,1.2881,1.2891,0.0,0.0,0.0,0.0,0.0,0.0,0.0,0.0,0.0,0.0,0.0,1.7567,1.5303,1.4754,1.5715,1.3639,1.3361,1.4506,0.0,0.0,0.0,0.0,0.0,0.0,0.0,0.0,0.0,0.0,0.0,0.0,0.0,0.0,0.0,0.0,0.0,0.0,0.0,0.0,0.0,0.0,3.4694,3.4713,3.4694,3.4694,3.4694,3.4713,3.4542,3.4287,0.0,3.3809,3.474,3.8022,3.8693,3.87,3.8689,3.8707,3.8707,3.8707,3.8707,0.0,3.8707,3.8707,3.8707,3.8707,3.8933,3.9238,3.9576,4.1705,4.3088,4.3189,4.4809,4.5832,4.589,4.6027,4.6167,4.6284,4.6303,4.6309,4.6308,4.6308,4.6303,4.6303,4.6305,4.6056,4.5602,4.5607,4.5603,4.5605,4.5607,4.5589,4.55,4.409,4.3513,4.3497,4.3497,4.3497,4.3497,4.3497,4.3497,4.3193,0.0,0.0,0.0,0.0,0.0,0.0,0.0,1.2881,1.2881,1.2881,1.2881,1.2881,1.2881,1.2881,1.2881,1.2881,0.0,0.0,0.0,0.0,0.0,0.0,0.0,0.0,0.0,0.0,0.0,0.0,0.0,1.5012,1.5029,1.4351,1.4237,1.4481,1.4665,0.0,0.0,0.0,0.0,0.0,0.0,0.0,0.0,0.0,0.0,0.0,0.0,0.0,0.0,0.0,0.0,0.0,0.0,0.0,0.0,0.0,0.0,0.0,3.5207,3.5258,3.5187,3.4904,3.4792,3.4585,3.3947,3.4124,3.5458,3.9161,3.8868,3.8183,3.8971,3.887,3.8762,3.8933,3.8815,0.0,0.0,3.9136,3.9144,3.9614,3.9967,4.0233,4.0335,4.1603,4.2673,4.3297,4.4394,4.5345,4.5994,4.608,4.6128,4.6167,4.6256,4.6307,4.6308,4.63,4.63,4.6303,4.5969,4.5731,4.5602,4.5591,4.5586,4.5587,4.5605,4.5048,4.4131,4.3677,4.3505,4.3497,4.3497,4.3497,4.3497,4.3497,4.3487,4.3411,0.0,0.0,0.0,0.0,0.0,0.0,0.0,1.2725,1.2881,1.2881,1.2881,1.2881,1.2881,1.2881,1.2881,1.2881,0.0,0.0,0.0,0.0,0.0,0.0,0.0,0.0,0.0,0.0,0.0,0.0,0.0,0.0,0.0,1.4798,1.496,1.53,1.5095,0.0,0.0,0.0,0.0,0.0,0.0,0.0,2.7625,0.0,0.0,0.0,0.0,0.0,0.0,0.0,0.0,0.0,0.0,0.0,0.0,0.0,3.5383,3.5289,0.0,3.5493,3.5427,3.5193,3.5124,0.0,0.0,3.4718,3.5683,3.8126,3.8644,3.8758,3.8896,3.8995,3.91,3.9257,3.9163,3.9197,3.9637,3.9509,3.958,4.0147,4.0442,4.0629,4.0742,4.1567,4.2482,4.341,4.426,4.5156,4.6114,4.6175,4.6141,4.6091,4.6171,4.6205,4.6147,4.6143,4.6112,4.6037,4.5739,4.5601,4.5587,4.5596,4.5608,4.5592,4.5599,4.4791,0.0,4.349,4.3497,4.3497,4.3497,4.3497,4.3497,4.3497,4.3504,4.3504,0.0,0.0,0.0,0.0,0.0,0.0,0.0,0.0,0.0,0.0,1.2881,1.2881,1.2881,1.2881,1.2881,0.0,0.0,0.0,0.0,0.0,0.0,0.0,0.0,0.0,0.0,0.0,0.0,1.541,1.541,1.541,1.542,0.0,0.0,1.6685,1.6178,0.0,0.0,0.0,0.0,0.0,0.0,0.0,0.0,0.0,0.0,0.0,0.0,0.0,0.0,0.0,0.0,0.0,0.0,0.0,0.0,0.0,0.0,0.0,0.0,3.5493,3.5493,3.5493,3.5493,0.0,0.0,0.0,0.0,3.5491,3.805,3.9895,3.8565,3.9033,3.9599,3.9622,3.9603,3.9681,3.9834,3.9871,4.0008,4.0382,4.0436,4.0538,4.0782,4.1548,4.2455,4.3439,4.4263,4.5158,4.6133,4.625,4.6223,4.6084,4.608,4.6021,4.5889,4.5881,4.5783,4.5602,4.5589,4.5587,4.5586,4.5549,4.5515,4.5535,4.5477,4.4711,4.3497,4.3483,4.3497,4.3497,4.3497,4.3497,4.3497,4.3497,4.3497,4.3518,0.0,0.0,0.0,0.0,0.0,0.0,0.0,0.0,0.0,0.0,1.2559,1.2881,1.2881,1.2881,1.2881,0.0,0.0,0.0,0.0,0.0,0.0,0.0,0.0,0.0,0.0,0.0,0.0,1.541,1.541,1.541,1.542,1.5273,0.0,0.0,0.0,0.0,0.0,0.0,0.0,0.0,0.0,0.0,0.0,0.0,0.0,0.0,2.9225,3.0442,0.0,0.0,0.0,0.0,0.0,0.0,0.0,0.0,3.5493,3.5493,3.5493,0.0,3.5493,3.5493,3.5493,3.5512,0.0,0.0,0.0,0.0,0.0,0.0,0.0,3.9186,3.9668,3.9943,3.9849,3.9928,4.0419,4.0537,4.0597,4.0693,4.0792,4.0881,4.0955,4.1225,4.1751,4.2615,4.3474,4.4316,4.5112,4.5776,4.6084,4.594,4.5891,4.5872,4.5823,4.5714,4.5641,4.5602,4.5596,4.5599,4.5586,4.5073,4.4834,4.4805,4.4231,4.3815,4.3497,4.3483,4.3497,4.3497,4.3497,4.3497,4.3497,4.3497,4.3497,4.3518,0.0,0.0,0.0,0.0,0.0,0.0,0.0,0.0,0.0,0.0,0.0,0.0,0.0,0.0,0.0,0.0,0.0,0.0,0.0,0.0,0.0,0.0,0.0,0.0,0.0,0.0,0.0,0.0,0.0,1.541,0.0,0.0,0.0,0.0,0.0,0.0,0.0,0.0,0.0,0.0,2.5439,0.0,0.0,0.0,0.0,0.0,2.918,3.036,0.0,3.2918,3.391,3.4793,0.0,0.0,0.0,0.0,3.5493,3.5493,3.5493,3.5493,3.5493,3.5493,3.5493,3.5493,3.5493,0.0,0.0,0.0,0.0,0.0,0.0,3.938,4.0166,4.0391,4.0323,4.0391,4.0779,4.0928,4.0988,4.0988,4.1052,4.1082,4.1082,4.1151,4.1522,4.2298,4.3156,4.398,4.4721,4.5553,4.5959,4.585,4.5828,4.5808,4.5792,4.5673,4.5592,4.5592,4.5596,4.5586,4.5586,4.5013,4.4513,4.4061,4.3662,4.3491,4.3486,4.3508,4.3497,4.3497,4.3497,4.3497,4.3497,4.3497,4.3497,4.3481,0.0,0.0,0.0,0.0,0.0,0.0,0.0,0.0,0.0,0.0,0.0,0.0,0.0,0.0,0.0,0.0,0.0,0.0,0.0,0.0,0.0,0.0,0.0,0.0,0.0,0.0,0.0,0.0,0.0,0.0,0.0,0.0,1.5889,0.0,0.0,0.0,0.0,0.0,0.0,0.0,2.3935,0.0,0.0,0.0,0.0,0.0,0.0,0.0,0.0,3.2938,3.3939,3.4736,3.532,0.0,0.0,0.0,0.0,0.0,3.5493,3.5501,3.5495,3.5507,3.5493,3.5507,3.5553,0.0,0.0,0.0,0.0,0.0,0.0,3.9486,0.0,0.0,4.0809,4.087,4.1019,4.1128,4.1191,4.1191,4.1191,4.1191,4.1191,4.1171,4.1439,4.2054,4.29,4.3682,4.4422,4.523,4.5714,4.5769,4.5708,4.5694,4.5694,4.5632,4.5586,4.5586,4.555,4.5513,4.5513,4.5004,4.434,4.3574,4.3524,4.3518,4.3497,4.3497,4.3497,4.3497,4.3497,4.3497,4.3497,4.3497,4.3497,4.3497,0.0,0.0,0.0,0.0,0.0,0.0,0.0,0.0,0.0,0.0,0.0,0.0,0.0,0.0,0.0,0.0,0.0,0.0,0.0,0.0,0.0,0.0,0.0,0.0,0.0,0.0,0.0,0.0,0.0,0.0,1.541,1.541,1.5889,1.6768,0.0,1.9177,1.9431,2.1708,2.2474,2.2387,2.3849,0.0,0.0,0.0,0.0,0.0,0.0,0.0,0.0,3.3065,3.3908,3.4566,3.5281,0.0,0.0,0.0,0.0,0.0,3.5493,3.5495,3.5508,3.5495,3.5493,3.5566,3.5867,0.0,0.0,0.0,0.0,0.0,0.0,3.9054,3.9991,0.0,4.0902,4.1023,4.115,4.1191,4.1191,4.1191,4.1191,4.1191,4.1191,4.1103,4.1081,4.1191,4.1902,4.2644,4.3393,4.4245,4.5001,4.5616,4.5362,4.5204,4.5204,4.5475,4.5586,4.5605,4.5322,4.518,4.514,4.4444,4.4071,4.3908,4.3634,4.3493,4.3497,4.3497,4.3497,4.3497,4.3497,4.3497,4.3497,4.3497,4.3497,4.352,0.0,0.0,0.0,0.0,0.0,0.0,0.0,0.0,0.0,0.0,0.0,0.0,0.0,0.0,0.0,0.0,0.0,0.0,0.0,0.0,0.0,0.0,0.0,0.0,0.0,0.0,0.0,0.0,0.0,1.4392,1.4765,1.5648,1.6348,1.6768,0.0,1.8854,1.9431,2.0991,2.1838,2.2133,0.0,0.0,0.0,0.0,0.0,0.0,0.0,0.0,0.0,0.0,3.3696,3.4679,3.5288,0.0,0.0,0.0,0.0,0.0,3.5493,3.5488,3.5532,3.5717,3.5762,3.5776,3.584,3.5747,0.0,0.0,0.0,0.0,0.0,0.0,3.9945,4.0859,4.1077,4.1128,4.1191,4.1191,4.1171,4.1103,4.1082,4.1055,4.0992,4.0925,4.0883,4.0852,4.1587,4.2366,4.311,4.3772,4.4478,4.5304,4.4988,4.4825,4.4825,4.4988,4.5055,4.5055,4.4896,4.4825,4.4806,4.4261,4.4016,4.3986,4.3646,4.3497,4.3497,4.3497,4.3497,4.3497,4.3497,4.3497,4.3497,4.3497,4.3231,4.2976,0.0,0.0,0.0,0.0,0.0,0.0,0.0,0.0,0.0,0.0,0.0,0.0,0.0,0.0,0.0,0.0,0.0,0.0,0.0,0.0,0.0,0.0,0.0,0.0,0.0,0.0,1.4085,1.451,1.4264,1.4332,1.4529,1.5999,1.6665,1.6768,0.0,1.8654,1.9365,2.0462,2.1313,2.2088,0.0,0.0,0.0,0.0,0.0,0.0,0.0,0.0,0.0,0.0,0.0,0.0,0.0,0.0,0.0,3.5493,3.5493,3.5493,3.5493,3.5488,3.5572,3.5824,0.0,3.5963,3.5807,3.5781,0.0,0.0,0.0,0.0,0.0,3.9309,4.0299,4.1074,4.1171,4.115,4.115,4.1128,4.1077,4.0959,4.0955,4.0914,4.0809,4.0796,4.0762,4.0703,4.1229,4.1889,4.2633,4.3135,4.3786,4.4665,4.4543,4.4474,4.4474,4.4392,4.4419,4.458,4.4501,4.4474,4.4447,4.4046,4.3881,4.3881,4.3631,4.3497,4.3497,4.3497,4.3497,4.3497,4.3497,4.3497,4.3497,4.3497,4.3123,4.2698,0.0,0.0,0.0,0.0,0.0,0.0,0.0,0.0,0.0,0.0,0.0,0.0,0.0,0.0,0.0,0.0,0.0,0.0,0.0,0.0,0.0,0.0,0.0,0.0,0.0,1.3906,1.3846,1.5294,1.4569,1.4569,1.5313,1.6257,1.6665,1.6768,0.0,1.9233,1.9431,2.1101,2.1946,2.2191,2.3063,0.0,0.0,0.0,0.0,0.0,0.0,0.0,0.0,0.0,0.0,0.0,0.0,0.0,3.5493,3.5493,3.5493,3.5493,3.5493,3.5488,3.5514,3.5533,3.5763,0.0,3.5986,3.5836,0.0,3.5869,0.0,0.0,0.0,3.9875,4.1113,4.1191,4.1103,4.1,4.1,4.0914,4.0836,4.0809,4.0809,4.0809,4.0801,4.0732,4.0715,4.0703,4.0422,4.0597,4.138,4.1942,4.2591,4.3385,4.3849,4.4028,4.4028,4.3726,4.3931,4.4599,4.4204,4.4028,4.4028,4.3693,4.3548,4.3548,4.3513,4.3497,4.3497,4.3497,4.3497,4.3497,4.3497,4.3497,4.3497,4.3497,4.3479,4.3286,0.0,0.0,0.0,0.0,0.0,0.0,0.0,0.0,0.0,0.0,0.0,0.0,0.0,0.0,0.0,0.0,0.0,0.0,0.0,0.0,0.0,0.0,0.0,1.4273,1.5352,1.3846,1.3545,1.4628,1.4332,1.4758,1.583,1.6445,0.0,0.0,0.0,0.0,2.0204,2.1868,2.2979,2.3579,2.4378,2.4773,0.0,0.0,0.0,0.0,0.0,0.0,0.0,0.0,3.2912,3.4011,0.0,3.5499,3.5493,3.5493,3.5493,3.5501,3.55,3.565,3.5803,3.582,3.5903,0.0,0.0,3.5849,3.5849,3.5948,3.5951,0.0,0.0,0.0,4.1191,4.1191,4.1082,4.0996,4.0996,4.0877,4.0777,4.0732,4.0742,4.071,4.0616,4.0438,4.0332,4.0332,3.9985,4.0157,4.1013,4.1531,4.2146,4.2941,4.3454,4.3693,4.3693,4.3563,4.3631,4.3899,4.3758,4.3693,4.366,4.3582,4.3497,4.3497,4.3497,4.3497,4.3497,4.3497,4.3497,4.3497,4.3497,4.3497,4.3497,4.3497,4.3069,4.2476,0.0,0.0,0.0,0.0,0.0,0.0,0.0,0.0,0.0,0.0,0.0,0.0,0.0,0.0,0.0,0.0,0.0,0.0,0.0,0.0,0.0,0.0,0.0,1.4332,1.5352,1.4085,1.3786,1.4569,1.4569,1.5091,1.6135,0.0,0.0,0.0,0.0,0.0,2.0719,2.2053,2.3302,2.4368,2.4959,2.564,0.0,0.0,0.0,0.0,0.0,0.0,0.0,0.0,3.2354,0.0,0.0,0.0,3.5499,3.5498,3.5509,3.5514,3.5618,3.5821,3.5996,0.0,0.0,0.0,3.5848,3.5874,3.5947,3.5996,3.6445,3.7168,3.8317,0.0,0.0,4.1082,4.0996,4.0939,4.0916,4.0788,4.069,4.0642,4.0649,4.0568,4.0389,4.0195,4.0061,3.9943,3.9622,3.9701,4.0309,4.0803,4.1438,4.2236,4.282,4.3222,4.3497,4.3497,4.3497,4.3497,4.3497,4.3497,4.3497,4.3497,4.3497,4.3497,4.3497,4.3497,4.3497,4.3497,4.3497,4.3497,4.3497,4.3497,4.3497,4.3497,4.2903,4.2169,0.0,0.0,0.0,0.0,0.0,0.0,0.0,0.0,0.0,0.0,0.0,0.0,0.0,0.0,0.0,0.0,0.0,0.0,0.0,0.0,0.0,0.0,0.0,1.3786,1.5352,1.4628,1.4628,1.541,1.541,1.5635,1.6135,1.6523,0.0,0.0,0.0,0.0,2.0655,2.1553,2.276,2.4125,2.45,2.5799,2.7625,0.0,0.0,0.0,0.0,0.0,0.0,0.0,3.2367,3.4002,0.0,0.0,0.0,3.5508,3.5507,3.5572,3.5901,3.5996,3.5963,0.0,0.0,0.0,3.5873,3.5948,3.5996,3.5996,3.7383,3.8552,3.8424,3.9932,0.0,4.0831,4.0801,4.0779,4.0696,4.0582,4.0489,4.0489,4.0489,4.0389,4.012,4.0101,3.9943,3.9622,3.9308,3.9099,3.9099,3.9601,4.0267,4.1075,4.1882,4.269,4.3479,4.3497,4.3497,4.3497,4.3497,4.3497,4.3497,4.3497,4.3497,4.3497,4.3497,4.3497,4.3497,4.3497,4.3497,4.3497,4.3497,4.3497,4.3497,4.3479,4.3124,4.2616,0.0,0.0,0.0,0.0,0.0,0.0,0.0,0.0,0.0,0.0,0.0,0.0,0.0,0.0,0.0,0.0,0.0,0.0,0.0,0.0,0.0,0.0,0.0,0.0,0.0,0.0,1.5167,1.541,1.541,1.5801,0.0,0.0,0.0,1.9165,0.0,0.0,2.1305,2.3076,2.3619,2.3581,2.5826,2.7063,2.7625,0.0,0.0,0.0,0.0,0.0,0.0,0.0,0.0,0.0,0.0,0.0,0.0,3.5508,3.5495,3.5577,3.5909,3.5935,0.0,3.5935,0.0,0.0,0.0,3.5948,0.0,0.0,3.7318,3.8453,3.8417,3.9784,4.0883,4.0809,4.0771,4.071,4.0703,4.0582,4.0441,4.0232,4.0213,4.0101,3.9775,3.9552,3.9339,3.9257,3.899,3.8833,3.8833,3.9504,4.0267,4.1075,4.1882,4.269,4.3479,4.3497,4.3497,4.3497,4.3497,4.3497,4.3497,4.3497,4.3497,4.3497,4.3497,4.3497,4.3497,4.3497,4.3497,4.3497,4.3497,4.3497,4.3444,4.3069,4.2559,4.2032,0.0,0.0,0.0,0.0,0.0,0.0,0.0,0.0,0.0,0.0,0.0,0.0,0.0,0.0,0.0,0.0,0.0,0.0,0.0,0.0,0.0,0.0,0.0,0.0,0.0,1.541,1.5526,0.0,0.0,0.0,0.0,0.0,1.9095,2.0398,0.0,2.2225,0.0,2.3904,2.4341,2.4143,2.536,2.6541,2.7584,0.0,0.0,0.0,0.0,0.0,0.0,0.0,0.0,0.0,0.0,0.0,0.0,3.5501,3.5589,3.5737,3.5853,3.587,0.0,3.5975,3.5996,3.5996,3.5996,0.0,0.0,0.0,3.723,3.833,3.8299,3.9661,4.0768,4.0692,4.0688,4.068,4.0636,4.0466,4.0267,4.012,3.9982,3.9775,3.9438,3.9212,3.9063,3.8961,3.8773,3.8707,3.8707,3.9166,3.9937,4.1075,4.1589,4.2359,4.3479,4.3497,4.3497,4.3497,4.3497,4.3497,4.3497,4.3497,4.3497,4.3497,4.3497,4.3497,4.3497,4.3497,4.3497,4.3497,4.3497,4.3497,4.3444,4.2902,4.2432,4.1998,0.0,0.0,0.0,0.0,0.0,0.0,0.0,0.0,0.0,0.0,0.0,0.0,0.0,0.0,0.0,0.0,0.0,0.0,0.0,0.0,0.0,0.0,0.0,0.0,0.0,0.0,0.0,0.0,0.0,0.0,0.0,0.0,2.009,2.188,0.0,2.3022,2.3147,2.4075,2.4887,2.5487,2.4086,2.5128,2.7622,2.7825,0.0,0.0,0.0,0.0,0.0,0.0,0.0,0.0,0.0,3.4581,3.5515,3.5502,3.5745,3.597,3.5763,3.5847,0.0,3.5996,3.5996,0.0,3.5996,3.5925,3.5916,3.5997,0.0,3.8263,3.8236,3.9617,4.0713,4.053,4.0582,4.0604,4.0469,4.0232,4.0042,4.0002,3.9754,3.9432,3.9099,3.9044,3.8961,3.8719,3.8707,3.8707,3.8707,3.8707,3.9441,4.1056,4.1111,4.1882,4.3461,4.3497,4.3497,4.3497,4.3497,4.3497,4.3497,4.3497,4.3497,4.3497,4.3497,4.3497,4.3497,4.3497,4.3497,4.3497,4.3497,4.3497,4.341,4.2846,4.2517,4.2306,0.0,0.0,0.0,0.0,0.0,0.0,0.0,0.0,0.0,0.0,0.0,0.0,0.0,0.0,0.0,0.0,0.0,0.0,0.0,0.0,0.0,0.0,0.0,0.0,0.0,0.0,0.0,0.0,0.0,0.0,0.0,0.0,0.0,2.156,0.0,2.3093,2.3097,2.3339,2.4843,2.7077,2.6773,2.704,2.781,2.9687,3.0434,0.0,0.0,0.0,0.0,0.0,0.0,0.0,3.3802,3.4581,3.5495,3.5508,3.5739,3.5978,3.5827,3.5841,0.0,0.0,3.5996,3.5995,3.5921,3.5821,3.5942,3.6688,3.7545,3.8343,3.9007,3.9921,4.0554,4.0504,4.0353,4.0212,4.0195,3.9922,3.9599,3.9339,3.9238,3.909,3.8833,3.8773,3.8762,3.8707,3.8707,3.8707,3.8707,3.8707,3.9441,4.1056,4.1111,4.1882,4.3461,4.3497,4.3497,4.3497,4.3497,4.3497,4.3497,4.3497,4.3497,4.3497,4.3497,4.3497,4.3497,4.3497,4.3497,4.3497,4.3497,4.3497,4.3375,4.2364,4.215,4.221,0.0,0.0,0.0,0.0,0.0,0.0,0.0,0.0,0.0,0.0,0.0,0.0,0.0,0.0,0.0,0.0,0.0,0.0,0.0,0.0,0.0,0.0,0.0,0.0,0.0,0.0,0.0,0.0,0.0,0.0,0.0,0.0,0.0,2.2297,0.0,2.3765,2.3217,2.4633,2.6163,2.7622,2.7603,2.828,2.9467,3.0711,3.1194,3.1302,3.2161,0.0,0.0,0.0,0.0,0.0,0.0,0.0,3.5495,3.5503,3.5662,3.5865,3.5897,0.0,0.0,3.5996,0.0,3.5996,3.597,3.5821,3.6086,3.7403,3.787,3.8318,3.9193,3.9971,4.0489,4.0489,4.0267,4.0101,4.0101,3.9668,3.9289,3.9125,3.8971,3.8855,3.8719,3.8707,3.8707,3.8707,3.8707,3.8707,3.8707,3.8707,3.9441,4.1056,4.1111,4.1882,4.3461,4.3497,4.3497,4.3497,4.3497,4.3497,4.3497,4.3497,4.3497,4.3497,4.3497,4.3497,4.3479,4.3214,4.3142,4.3087,4.279,4.2696,4.26,4.169,4.1692,4.1901,0.0,0.0,0.0,0.0,0.0,0.0,0.0,0.0,0.0,0.0,0.0,0.0,0.0,0.0,0.0,0.0,0.0,0.0,0.0,0.0,0.0,0.0,1.294,0.0,0.0,0.0,0.0,0.0,0.0,0.0,0.0,0.0,0.0,2.316,0.0,2.5091,2.4044,2.652,2.7588,2.7638,2.8077,2.9419,3.1208,3.1207,3.1376,3.1847,3.327,3.3803,3.38,3.3799,0.0,0.0,0.0,0.0,3.5248,3.5438,3.5588,3.5703,3.5895,0.0,3.5996,3.5996,3.5996,0.0,3.5995,3.5838,3.6183,3.7902,3.8121,3.8315,3.9315,4.0046,4.0489,4.0441,4.0195,4.0002,3.9922,3.9408,3.9036,3.9036,3.8844,3.8707,3.8707,3.8707,3.8707,3.8707,3.8707,3.8707,3.8707,3.8707,3.9441,4.1056,4.1111,4.1882,4.3461,4.3497,4.3497,4.3497,4.3497,4.3497,4.3497,4.3497,4.3497,4.3479,4.341,4.3375,4.3339,4.277,4.2519,4.248,4.1979,4.181,4.1725,4.1168,4.1325,4.1655,0.0,0.0,0.0,0.0,0.0,0.0,0.0,0.0,0.0,0.0,0.0,0.0,0.0,0.0,0.0,0.0,0.0,0.0,0.9859,0.0,0.0,1.2287,1.2724,1.3726,0.0,0.0,0.0,0.0,0.0,0.0,0.0,0.0,0.0,2.3191,0.0,0.0,2.7039,2.7421,2.762,2.7764,2.9879,3.09,3.119,3.1199,3.2142,3.3484,3.3713,3.3803,3.3808,3.3807,3.3807,0.0,0.0,0.0,3.4223,3.5221,3.5515,3.5563,0.0,0.0,3.5996,0.0,3.5996,3.5976,0.0,0.0,3.6168,0.0,3.8067,3.8469,4.0046,4.0431,4.0422,4.0195,3.9861,3.9576,3.9264,3.8952,3.8762,3.8762,3.8719,3.8707,3.8707,3.8707,3.8707,3.8707,3.8707,3.8707,3.8707,3.8707,3.9441,4.1056,4.1111,4.1882,4.3461,4.3497,4.3497,4.3497,4.3497,4.3497,4.3497,4.3497,4.3497,4.3479,4.3014,4.2826,4.277,4.2162,4.1937,4.1895,4.1853,4.181,4.1743,4.1335,4.1412,4.1655,0.0,0.0,0.0,0.0,0.0,0.0,0.0,0.0,0.0,0.0,0.0,0.0,0.0,0.0,0.0,0.88,0.9166,0.9678,1.0347,1.0546,1.1064,1.2142,1.2687,1.3764,1.5359,0.0,0.0,0.0,0.0,0.0,0.0,2.1236,2.218,0.0,0.0,0.0,0.0,2.7603,2.8358,2.971,3.0775,3.119,3.1308,3.2263,3.3136,3.3791,3.3814,3.3808,3.3807,3.3807,3.3807,3.3787,3.3796,0.0,0.0,0.0,3.5499,3.5557,3.5801,3.5923,3.6007,0.0,3.5996,3.5996,3.5951,3.5825,3.6176,3.7868,3.8098,3.8507,4.0181,4.0372,4.0232,4.012,3.9668,3.9264,3.9125,3.8855,3.8707,3.8707,3.8707,3.8707,3.8707,3.8707,3.8707,3.8707,3.8707,3.8707,3.8707,3.8707,3.9441,4.1056,4.1111,4.1882,4.3461,4.3497,4.3497,4.3497,4.3497,4.3497,4.3497,4.3497,4.3497,4.3479,4.2939,4.2864,4.305,4.1835,4.149,4.1768,4.1122,4.0861,4.0832,4.0662,4.0686,4.0786,0.0,0.0,0.0,0.0,0.0,0.0,0.0,0.0,0.0,0.0,0.0,0.0,0.0,0.0,0.0,0.0,0.9753,1.0104,1.0541,1.0593,1.096,1.1776,1.2578,1.3753,1.5335,0.0,0.0,0.0,0.0,0.0,1.9892,2.2837,2.4215,0.0,2.6582,0.0,0.0,0.0,0.0,3.1199,3.1207,3.1482,3.2004,3.3293,3.3785,3.3811,3.3799,3.3807,3.3807,3.3807,3.3807,3.3805,3.3815,3.4008,0.0,0.0,0.0,0.0,0.0,0.0,3.5991,3.5995,3.5996,3.5996,0.0,0.0,3.6183,0.0,3.811,3.8493,4.0098,4.0232,4.0081,3.9982,3.9462,3.9072,3.9027,3.8815,3.8707,3.8707,3.8707,3.8707,3.8707,3.8707,3.8707,3.8707,3.8707,3.8627,3.8496,3.8627,3.9378,4.0854,4.1027,4.1882,4.3461,4.3356,4.3286,4.3286,4.3286,4.3286,4.3286,4.3444,4.341,4.325,4.2714,4.2619,4.2716,4.1296,4.0967,4.1286,4.0417,4.007,4.007,4.007,4.0103,4.0114,0.0,0.0,0.0,0.0,0.0,0.0,0.0,0.0,0.0,0.0,0.0,0.0,0.0,0.933,0.9649,0.9665,0.9704,0.9962,1.0541,1.0618,1.0635,1.0655,1.2195,0.0,1.5335,1.5386,0.0,0.0,0.0,0.0,1.9916,2.4977,2.7348,2.7375,2.7516,2.7605,2.7748,0.0,0.0,0.0,0.0,3.2179,0.0,0.0,3.3803,0.0,0.0,3.3807,3.3807,3.3807,3.3807,3.3788,3.3815,3.4554,3.5205,0.0,0.0,0.0,0.0,3.5763,0.0,3.5995,3.5996,0.0,0.0,0.0,3.6161,3.7792,3.8054,3.8428,3.9852,4.0101,4.0002,3.9668,3.9314,3.9008,3.8762,3.8707,3.8707,3.8707,3.8707,3.8707,3.8707,3.8707,3.8707,3.8707,3.8707,3.8465,3.798,3.8415,3.9195,4.0293,4.0823,4.1882,4.3461,4.2976,4.275,4.275,4.275,4.275,4.275,4.325,4.3214,4.2711,4.2121,4.1534,4.0995,4.0368,4.0171,4.0171,4.0121,4.007,4.007,4.007,4.0112,4.0083,0.0,0.0,0.0,0.0,0.0,0.0,0.0,0.0,0.0,0.0,0.0,0.0,0.0,1.0168,1.0293,1.1722,1.0898,1.039,1.0575,1.1554,1.1654,1.0636,1.3152,1.482,1.5396,1.7236,0.0,0.0,0.0,2.1523,2.4845,2.674,2.76,2.7613,2.7588,2.8466,2.9955,3.083,0.0,0.0,0.0,0.0,0.0,0.0,0.0,0.0,0.0,0.0,3.3809,3.3813,3.3809,3.3802,3.3802,3.4095,3.4464,3.4813,3.5187,0.0,0.0,0.0,0.0,3.5995,3.5992,3.596,3.5789,3.5684,3.6096,3.776,3.8054,3.8428,3.9834,3.9922,3.9668,3.9339,3.9027,3.8803,3.8719,3.8707,3.8707,3.8707,3.8707,3.8707,3.8707,3.8382,3.8183,3.8183,3.7895,3.7667,3.747,3.7929,3.8842,4.0257,4.0823,4.1695,4.2958,4.2788,4.2519,4.2121,4.2519,4.248,4.2162,4.2714,4.2444,4.1534,4.1313,4.1313,4.1402,4.0466,4.0286,4.0577,4.0254,4.007,4.0087,4.0092,4.0109,4.0303,0.0,0.0,0.0,0.0,0.0,0.0,0.0,0.0,0.0,0.0,0.0,0.0,0.0,0.0,1.223,1.3666,1.2854,1.2202,1.2202,1.2169,1.2186,1.2193,1.424,1.5385,1.5382,1.8282,0.0,0.0,0.0,0.0,0.0,2.7615,2.7595,2.7612,2.845,2.9681,0.0,0.0,0.0,3.1234,0.0,0.0,3.4357,0.0,0.0,0.0,0.0,0.0,3.4326,3.3932,3.4061,3.4282,3.3922,3.4073,3.4521,3.528,0.0,0.0,3.5639,0.0,0.0,0.0,3.5992,3.5935,3.5689,3.5619,3.6077,3.773,3.8034,3.8396,3.9679,3.9754,3.9486,3.9133,3.8884,3.8707,3.8707,3.8707,3.8707,3.8707,3.8546,3.8433,3.8433,3.7964,3.7649,3.7649,3.736,3.7114,3.696,3.7396,3.8403,3.9982,4.089,4.1685,4.2382,4.2203,4.1895,4.149,4.1895,4.1895,4.1534,4.2121,4.1853,4.0903,4.0903,4.1059,4.115,4.0434,4.0336,4.0607,4.0246,4.0114,4.0095,4.0118,4.0568,4.1454,0.0,0.0,0.0,0.0,0.0,0.0,0.0,0.0,0.0,0.0,0.0,0.0,0.0,0.0,0.0,1.5374,1.5374,1.5374,1.5425,1.2469,1.2142,1.5235,1.5418,1.5435,1.5542,1.836,1.9788,0.0,0.0,0.0,0.0,0.0,2.7643,2.7834,3.0146,3.1216,3.1191,0.0,3.1214,3.141,0.0,3.4486,3.5499,0.0,0.0,0.0,3.5479,3.5487,0.0,3.4221,0.0,0.0,0.0,0.0,0.0,0.0,0.0,0.0,0.0,0.0,0.0,0.0,0.0,0.0,3.5585,0.0,3.611,3.7654,3.8007,3.8348,3.941,3.9599,3.9505,3.9133,3.8855,3.8707,3.8707,3.8707,3.8707,3.8707,3.8234,3.7928,3.7928,3.747,3.719,3.719,3.7173,3.6921,3.6416,3.69,3.7916,3.9438,4.0961,4.1775,4.175,4.1161,4.0903,4.0856,4.0903,4.0903,4.0903,4.149,4.1446,4.0856,4.0856,4.0577,4.007,4.007,4.007,4.007,4.0096,4.0112,4.0153,4.0176,4.1581,4.3496,0.0,0.0,0.0,0.0,0.0,0.0,0.0,0.0,0.0,0.0,0.0,0.0,0.0,0.0,1.5391,1.542,1.538,1.5381,1.54,1.4561,1.4468,1.5371,1.5426,1.6385,1.8566,1.9377,1.982,0.0,0.0,0.0,0.0,0.0,0.0,0.0,3.0914,3.1213,3.121,3.119,0.0,3.31,3.3615,3.4469,0.0,0.0,0.0,0.0,0.0,3.5486,3.5453,0.0,3.5226,3.5456,0.0,0.0,0.0,0.0,0.0,0.0,3.5974,0.0,0.0,0.0,0.0,0.0,3.5885,0.0,3.7345,3.7415,3.8238,3.9092,3.9523,3.9599,3.9427,3.8884,3.8732,3.8707,3.8707,3.8707,3.8707,3.8707,3.8578,3.8465,3.8465,3.7703,3.719,3.719,3.6481,3.5968,3.581,3.6876,3.8105,3.9456,4.0488,4.1057,4.1178,4.0995,4.0703,4.0336,4.0685,4.0703,4.0319,4.0874,4.0844,4.0336,4.0336,4.0254,4.007,4.007,4.007,4.007,4.0096,4.0614,4.1446,4.2264,4.2958,4.3498,0.0,0.0,0.0,0.0,0.0,0.0,0.0,0.0,0.0,0.0,0.0,0.0,0.0,0.0,0.0,1.5477,1.6443,1.6589,1.5481,1.6548,1.7241,1.7258,1.7247,1.9071,2.2949,2.195,2.1947,2.3067,0.0,0.0,0.0,0.0,0.0,0.0,0.0,0.0,0.0,0.0,0.0,0.0,3.3809,0.0,0.0,3.4565,3.4515,0.0,0.0,0.0,3.5493,3.5504,3.5489,0.0,0.0,0.0,0.0,0.0,0.0,0.0,0.0,0.0,0.0,0.0,0.0,0.0,3.6008,3.7047,3.7976,3.7891,3.8623,3.9361,3.9561,3.9599,3.9432,3.8952,3.8792,3.8707,3.8707,3.8707,3.8707,3.8707,3.8496,3.8382,3.8382,3.7667,3.7114,3.6865,3.6291,3.5827,3.5622,3.6659,3.7749,3.8799,3.9591,4.0175,4.0559,4.0577,4.0528,4.0449,4.0733,4.075,4.0449,4.0733,4.0625,4.007,4.007,4.007,4.007,4.007,4.0102,4.0092,4.0112,4.0534,4.1276,4.2894,4.3506,4.3506,0.0,0.0,0.0,0.0,0.0,0.0,0.0,0.0,0.0,0.0,0.0,0.0,0.0,0.0,0.0,0.0,1.837,1.8943,1.6469,1.878,0.0,2.0197,2.0247,2.2399,2.704,2.513,2.5212,2.7595,0.0,0.0,0.0,0.0,0.0,0.0,0.0,0.0,0.0,0.0,0.0,3.3991,3.3843,3.3885,0.0,0.0,3.5484,3.5496,3.5534,3.5562,3.5553,3.5558,3.5567,0.0,0.0,0.0,0.0,0.0,3.5992,0.0,0.0,0.0,0.0,0.0,3.5996,0.0,3.6,3.7046,3.8188,3.8857,3.9234,3.9476,3.9624,3.9645,3.9529,3.916,3.8894,3.8732,3.8732,3.8719,3.8707,3.8707,3.8267,3.798,3.798,3.7542,3.7058,3.6603,3.6539,3.6249,3.5739,3.6356,3.7119,3.7889,3.8531,3.9259,4.007,4.007,4.0319,4.0827,4.0827,4.0827,4.0827,4.0827,4.0528,4.007,4.007,4.007,4.0121,4.0171,4.0195,4.0205,4.0263,4.0288,4.0554,4.2703,4.3497,4.3497,0.0,0.0,0.0,0.0,0.0,0.0,0.0,0.0,0.0,0.0,0.0,0.0,0.0,0.0,0.0,0.0,2.1222,2.2586,2.2025,2.2522,2.2875,2.2848,2.2834,2.3362,2.4373,2.6005,2.7063,2.7596,0.0,0.0,0.0,0.0,0.0,0.0,0.0,0.0,0.0,0.0,0.0,3.5078,3.4163,0.0,3.5189,3.5425,3.5505,3.5546,3.5807,3.5893,3.5896,3.5898,3.5905,3.5892,0.0,0.0,0.0,3.5927,0.0,0.0,0.0,0.0,0.0,0.0,3.5996,0.0,3.6,3.7039,3.8412,3.9868,4.0211,4.0197,4.0043,4.0002,3.9797,3.9205,3.9063,3.9008,3.9008,3.8844,3.8707,3.8707,3.8627,3.8546,3.8546,3.8065,3.772,3.7614,3.7248,3.6803,3.6249,3.6404,3.6928,3.7872,3.8041,3.8751,4.007,4.007,4.0171,4.0254,4.0254,4.0254,4.0254,4.0254,4.0204,4.007,4.007,4.007,4.0121,4.0577,4.0728,4.0764,4.1262,4.1451,4.1623,4.2994,4.3497,4.3497,0.0,0.0,0.0,0.0,0.0,0.0,0.0,0.0,0.0,0.0,0.0,0.0,0.0,0.0,0.0,0.0,0.0,0.0,0.0,0.0,2.4914,2.5574,2.6734,2.7134,2.6489,2.721,2.7981,2.8788,0.0,0.0,0.0,0.0,0.0,0.0,0.0,0.0,0.0,0.0,3.4981,3.5444,3.4885,0.0,3.5747,3.5747,3.5755,3.5763,3.5938,3.5997,3.6001,3.6001,3.6001,0.0,3.6001,3.5876,3.5773,0.0,3.5994,3.5996,0.0,0.0,0.0,3.5996,3.5996,0.0,0.0,3.7047,3.8479,4.0145,4.0496,4.0425,4.0139,4.0101,3.9941,3.9414,3.9212,3.9099,3.9099,3.8855,3.8707,3.8707,3.8707,3.8707,3.8707,3.8465,3.8183,3.7911,3.747,3.696,3.6416,3.6643,3.6953,3.736,3.7933,3.8819,3.9932,4.0067,4.0385,4.0938,4.0938,4.0938,4.0938,4.1258,4.1076,4.0497,4.0497,4.0319,4.0121,4.0368,4.0694,4.1112,4.16,4.2124,4.2705,4.3283,4.3497,4.3497,1.7135,0.0,0.0,0.0,0.0,0.0,0.0,0.0,0.0,0.0,0.0,0.0,0.0,0.0,0.0,0.0,0.0,0.0,0.0,0.0,0.0,2.8178,3.0161,3.0757,2.9751,2.878,2.9108,3.0735,0.0,0.0,0.0,0.0,0.0,0.0,0.0,0.0,0.0,0.0,0.0,3.5537,0.0,3.566,3.5912,3.5981,3.5987,3.5935,3.5927,3.5918,3.5914,3.5974,3.5996,3.5996,3.6001,3.6005,0.0,0.0,0.0,0.0,0.0,0.0,0.0,0.0,0.0,3.5995,0.0,0.0,0.0,4.0236,4.0513,4.0422,4.0213,4.0177,4.0005,3.9526,3.932,3.9122,3.8894,3.883,3.8762,3.8707,3.8707,3.8707,3.8707,3.8707,3.8515,3.8099,3.7703,3.7248,3.6724,3.7097,3.7233,3.6951,3.8156,3.9103,3.9777,4.0089,4.0784,4.181,4.1664,4.1664,4.181,4.2302,4.1997,4.1087,4.0949,4.0655,4.0237,4.0385,4.0649,4.1054,4.1596,4.2484,4.3497,4.3497,4.3497,4.3497,1.6595,1.709,0.0,0.0,0.0,0.0,0.0,0.0,0.0,0.0,0.0,0.0,0.0,0.0,0.0,0.0,0.0,0.0,2.9432,0.0,0.0,0.0,3.1022,3.1148,3.0994,3.0859,3.1625,3.3362,0.0,0.0,0.0,0.0,0.0,0.0,3.5754,0.0,0.0,0.0,3.5562,0.0,3.5543,3.5516,0.0,3.5889,3.5882,3.5722,3.5674,3.5605,3.5605,0.0,3.6007,3.5996,0.0,3.6007,3.5994,3.5994,0.0,0.0,0.0,0.0,0.0,0.0,3.5996,3.5995,3.601,0.0,4.0496,4.0507,0.0,4.0489,4.0457,0.0,0.0,3.9052,3.9261,3.9169,3.8167,3.8617,3.8961,3.8719,3.8707,3.8707,3.8707,3.8707,3.8658,3.8627,3.8546,3.8318,3.7755,3.779,3.7698,3.7439,3.8719,3.9533,3.9794,4.0545,4.1185,4.1793,4.1268,4.1268,4.181,4.1853,4.1853,4.1664,4.1133,4.0874,4.0874,4.1402,4.1041,4.0338,4.1403,4.2508,4.3497,4.3497,4.3497,4.3497,1.8553,1.8585,0.0,0.0,0.0,0.0,0.0,0.0,0.0,0.0,0.0,0.0,0.0,0.0,0.0,0.0,0.0,2.914,0.0,0.0,0.0,0.0,3.1191,3.1465,3.1947,3.181,3.2156,3.3055,3.2809,0.0,0.0,0.0,0.0,0.0,3.5734,0.0,3.556,0.0,3.5532,0.0,0.0,0.0,0.0,3.5664,3.5656,3.5587,3.5551,3.5554,3.5567,0.0,3.5846,0.0,0.0,0.0,0.0,3.5991,0.0,0.0,0.0,0.0,0.0,0.0,0.0,0.0,3.6001,0.0,4.0749,4.0544,0.0,0.0,0.0,0.0,0.0,0.0,3.9735,3.9662,3.8982,3.9183,3.9282,3.8961,3.8933,3.8884,3.8738,3.8707,3.8707,3.8707,3.8707,3.8465,3.7946,3.8183,3.8039,3.7338,3.8549,3.9486,4.0095,4.0539,4.1301,4.2302,4.208,4.208,4.2342,4.2657,4.2619,4.2302,4.2062,4.1768,4.1429,4.1453,4.1328,4.1047,4.0905,4.1917,4.3497,4.3497,4.3497,4.3497,2.0953,0.0,0.0,0.0,0.0,0.0,0.0,0.0,0.0,0.0,0.0,0.0,2.8207,2.9362,0.0,0.0,3.0965,3.1218,0.0,0.0,3.0939,0.0,0.0,0.0,0.0,3.2547,3.265,3.2855,0.0,0.0,0.0,0.0,0.0,0.0,0.0,3.5666,3.5649,0.0,3.5535,3.5553,3.5611,3.5591,3.5507,3.55,3.5514,3.5535,3.5503,3.5543,3.5571,3.5534,3.5687,0.0,3.5645,3.5713,3.5873,0.0,0.0,0.0,3.5992,0.0,0.0,0.0,0.0,0.0,0.0,0.0,0.0,0.0,4.0505,0.0,0.0,0.0,0.0,0.0,0.0,3.9926,3.9453,3.958,3.9622,3.9264,3.9238,3.9171,3.897,3.8873,3.8803,3.8803,3.8732,3.8546,3.815,3.8496,3.8285,3.7433,3.8599,3.9461,3.9968,4.0545,4.1407,4.2575,4.268,4.2788,4.2939,4.3321,4.3286,4.2902,4.275,4.2342,4.1775,4.1594,4.1658,4.1733,4.1245,4.205,4.3497,4.3497,4.3497,4.3497,2.3272,2.2431,0.0,0.0,0.0,0.0,0.0,0.0,0.0,0.0,0.0,0.0,0.0,0.0,0.0,0.0,0.0,3.28,3.2486,0.0,3.2471,0.0,0.0,3.2471,0.0,0.0,3.3749,3.3762,0.0,0.0,0.0,0.0,0.0,0.0,0.0,3.5669,3.5786,3.565,3.5628,3.5684,3.5563,3.5503,3.5509,0.0,3.5546,3.56,3.5515,0.0,0.0,3.5588,3.556,0.0,0.0,0.0,0.0,0.0,0.0,0.0,0.0,0.0,0.0,3.5605,0.0,0.0,0.0,0.0,4.0516,0.0,0.0,0.0,0.0,0.0,0.0,0.0,0.0,0.0,0.0,3.9547,3.9962,3.9622,3.9599,3.9576,3.9576,3.9282,3.9099,3.9099,3.8844,3.8707,3.8676,3.8707,3.8465,3.7893,3.9181,3.9652,3.9138,4.0654,4.1706,4.2307,4.2576,4.2976,4.3479,4.3479,4.3479,4.3444,4.2939,4.2342,4.1835,4.2203,4.2141,4.1902,4.2959,4.3442,4.3497,4.3497,4.3497,4.3497,0.0,0.0,0.0,0.0,0.0,0.0,0.0,2.6629,0.0,0.0,0.0,0.0,0.0,3.181,3.2366,0.0,0.0,3.3073,3.2952,3.2952,0.0,0.0,0.0,3.2908,0.0,0.0,0.0,0.0,0.0,0.0,0.0,0.0,0.0,0.0,0.0,3.566,0.0,0.0,0.0,0.0,0.0,3.5521,3.5554,0.0,3.55,3.5528,3.5501,3.5493,0.0,3.5534,3.5519,3.5504,3.5588,3.556,3.5515,3.5635,3.5671,3.5671,0.0,0.0,3.5974,3.5868,0.0,0.0,0.0,0.0,0.0,0.0,0.0,0.0,0.0,0.0,0.0,0.0,0.0,0.0,0.0,4.0164,4.0319,4.0212,4.0043,3.9754,3.9314,3.9178,3.9036,3.8844,3.8732,3.8707,3.8707,3.8707,3.8627,3.8433,3.8884,3.9268,3.9634,4.0148,4.1019,4.2304,4.239,4.2827,4.3497,4.3497,4.3497,4.3479,4.3304,4.3124,4.2886,4.225,4.2359,4.2977,4.3356,4.3497,4.3497,4.3497,4.3497,4.3497,2.5493,0.0,0.0,0.0,0.0,0.0,0.0,0.0,0.0,0.0,3.0791,0.0,3.1865,0.0,3.3015,0.0,3.357,3.3697,3.3561,3.367,0.0,3.3905,3.3515,0.0,0.0,0.0,0.0,0.0,0.0,3.4792,0.0,0.0,0.0,0.0,0.0,3.5601,3.5655,3.5594,3.5605,0.0,0.0,3.5533,0.0,0.0,3.5495,3.5528,0.0,3.5493,3.5493,3.5493,3.5496,3.5492,3.5495,3.5492,3.5505,3.55,3.5499,3.5504,3.5504,3.5659,0.0,3.7299,3.9409,0.0,4.1198,0.0,4.0498,0.0,0.0,0.0,0.0,0.0,0.0,0.0,0.0,0.0,0.0,4.0489,4.0489,4.0489,4.0356,4.0043,3.9529,3.9339,3.9171,3.8855,3.8762,3.8707,3.8707,3.8707,3.8707,3.8707,3.8707,3.8946,3.946,3.9753,4.0561,4.1882,4.2158,4.2708,4.3497,4.3497,4.3497,4.3497,4.3497,4.341,4.3159,4.2644,4.2609,4.2923,4.3336,4.3497,4.3497,4.3497,4.3497,4.3497,2.7458,0.0,0.0,0.0,2.7665,0.0,0.0,0.0,3.0269,0.0,3.1399,3.1917,3.2515,3.3216,3.3658,3.364,3.4297,3.4572,3.4265,3.4529,0.0,0.0,3.4694,3.4832,3.5088,0.0,0.0,0.0,0.0,0.0,0.0,0.0,0.0,0.0,3.5493,0.0,3.5607,3.5523,3.5541,3.56,3.5534,3.5507,3.5488,3.5507,3.5534,3.559,3.5522,3.5493,3.5493,3.5493,3.5493,3.5493,3.5493,3.5493,3.5504,3.5493,3.5477,3.5474,3.5479,3.5618,3.6501,3.9691,4.0832,0.0,0.0,0.0,4.05,0.0,0.0,0.0,0.0,0.0,0.0,0.0,0.0,0.0,0.0,0.0,4.0489,4.0489,4.0489,4.0389,4.012,3.9797,3.9481,3.9125,3.8884,3.8719,3.8707,3.8719,3.8719,3.8707,3.8707,3.8707,3.8707,3.946,4.0249,4.1056,4.1827,4.2616,4.3424,4.3424,4.3442,4.3497,4.3497,4.3214,4.2788,4.3286,4.285,4.1988,4.3067,4.3497,4.3497,4.3497,4.3497,4.3497,2.756,2.7625,2.7845,0.0,2.8575,2.8873,0.0,0.0,0.0,0.0,3.2512,3.3028,3.3695,3.3944,3.4157,3.4405,3.4593,0.0,0.0,0.0,0.0,3.4981,3.4812,3.4832,3.5088,3.4944,3.4907,3.4999,0.0,0.0,3.5398,0.0,0.0,0.0,0.0,0.0,3.5663,3.5607,3.5589,3.56,3.5534,3.5528,3.5574,0.0,3.5534,3.559,3.5522,3.5493,3.5493,3.5493,3.5493,3.5493,3.5493,3.5493,3.5493,3.5508,3.5206,3.499,3.5388,3.7324,3.9405,4.0292,4.0595,4.069,0.0,0.0,0.0,0.0,0.0,0.0,0.0,0.0,0.0,0.0,0.0,0.0,0.0,0.0,4.0489,4.0489,4.0489,4.0389,4.012,4.0022,3.9731,3.9133,3.9257,3.9163,3.8719,3.8884,3.8894,3.8707,3.8707,3.8707,3.8707,3.8909,3.9405,4.0212,4.0414,4.124,4.2598,4.2598,4.2928,4.3497,4.3497,4.341,4.3304,4.3444,4.3336,4.3103,4.3408,4.3497,4.3497,4.3497,4.3497,4.3497,2.7625,0.0,0.0,2.9585,0.0,0.0,3.0818,3.1138,0.0,3.24,3.3021,0.0,3.3901,3.4342,3.4656,3.487,3.4981,0.0,3.4889,0.0,0.0,3.5105,3.507,3.5122,3.5273,3.5155,0.0,3.5254,0.0,0.0,3.5493,0.0,0.0,0.0,0.0,3.5538,3.56,3.5562,3.5563,3.56,3.5534,3.5522,0.0,3.5495,3.5522,3.5558,3.5515,3.5493,3.5493,3.5493,3.5493,3.5493,3.5493,3.5493,3.5595,3.6098,3.5691,3.5436,3.721,3.9058,4.0492,4.0494,4.0507,4.0494,4.0494,4.0494,4.0505,0.0,4.0489,4.0489,0.0,0.0,0.0,0.0,0.0,0.0,0.0,4.0489,4.0489,4.0489,4.0489,4.0441,4.0304,4.0158,3.988,3.9364,3.9486,3.9383,3.8913,3.9027,3.8971,3.8707,3.8815,3.8833,3.8707,3.8833,3.922,3.99,3.99,4.0561,4.1791,4.2139,4.2543,4.3002,4.3332,4.3497,4.3497,4.3497,4.3497,4.3497,4.3497,4.3497,4.3497,4.3497,4.3497,4.3497,2.771,0.0,0.0,0.0,0.0,0.0,0.0,3.1951,0.0,3.255,0.0,3.371,3.3736,3.4559,3.5105,3.5138,0.0,3.5398,3.5174,3.5369,3.5403,3.5155,3.5369,3.5493,3.5493,3.5273,3.5273,0.0,0.0,0.0,0.0,0.0,0.0,0.0,0.0,0.0,0.0,3.5506,3.5543,3.56,3.5534,3.5493,3.5493,3.5493,3.552,3.5515,3.5507,3.5493,3.5493,3.5493,3.5493,3.5493,3.5493,3.557,3.5864,3.69,3.6546,3.6507,3.9653,4.0504,4.05,4.0504,4.0489,4.0489,4.0489,4.0489,4.0489,4.0489,4.0489,4.0489,4.0489,0.0,0.0,0.0,0.0,0.0,0.0,4.0489,4.0489,4.0489,4.0489,0.0,4.0489,4.0304,4.0022,3.969,3.969,3.9557,3.9205,3.9231,3.909,3.8851,3.9054,3.9054,3.8822,3.9054,3.9407,3.9853,3.9853,4.0246,4.1011,4.1709,4.2095,4.2194,4.2983,4.3314,4.3296,4.3442,4.3497,4.3497,4.3497,4.3497,4.3479,4.3332,4.3314,4.3351,2.8222,0.0,0.0,0.0,0.0,3.1295,3.223,3.2713,3.2965,3.3075,3.3678,3.4204,3.4489,3.4851,3.519,3.5417,3.546,0.0,0.0,0.0,0.0,3.5432,3.546,3.5493,3.5493,3.5446,3.5446,0.0,0.0,0.0,0.0,0.0,0.0,0.0,0.0,0.0,3.5584,3.5577,0.0,3.56,3.5534,3.5493,3.5493,3.5493,3.5528,3.5577,3.5522,3.5493,3.5493,3.5493,3.5493,3.5493,3.5493,3.5968,3.657,3.7055,3.7382,3.7997,3.9954,4.0489,4.0504,4.0504,4.0489,4.0489,4.0489,4.0489,4.0489,4.0489,4.0489,4.0489,4.0489,0.0,0.0,0.0,0.0,0.0,4.0473,4.0489,4.0489,4.0489,4.0489,4.0489,4.0489,4.0457,4.0302,4.0022,4.0212,4.0101,3.9534,3.9775,3.9775,3.9432,3.9481,3.9481,0.0,3.9481,3.9556,3.9658,3.9658,3.9937,4.0428,4.0606,4.091,4.1368,4.2158,4.2396,4.2252,4.3149,4.3497,4.3497,4.3497,4.3497,4.3387,4.2509,4.2307,4.2598,2.9271,0.0,0.0,0.0,0.0,0.0,0.0,3.3225,3.3437,3.3214,3.3729,3.4176,3.4311,3.4924,3.5369,3.5493,3.5493,3.5493,3.5493,3.5493,3.5493,3.5493,3.5493,3.5493,3.5493,3.5493,3.5493,3.5493,0.0,0.0,0.0,0.0,0.0,0.0,0.0,3.5601,0.0,0.0,0.0,3.5646,3.5621,3.5568,3.557,3.559,3.5591,3.5611,3.5591,3.5588,3.5546,3.5515,3.5493,3.5493,3.5493,3.6065,3.6815,3.743,3.78,3.8362,4.0042,4.0504,4.0489,4.0489,4.0489,4.0489,4.0489,4.0489,4.0489,4.0489,4.0489,4.0489,4.0489,4.0389,0.0,0.0,0.0,0.0,4.0489,4.0489,4.0489,4.0489,4.0489,4.0489,4.0489,4.0489,4.0457,4.0321,4.0441,4.0319,3.9861,4.0002,3.9962,0.0,0.0,0.0,3.9599,0.0,3.9775,3.9599,3.9599,3.9712,3.9958,4.0364,4.0689,4.0989,4.1637,4.2038,4.2205,4.2239,4.2268,4.2231,4.1959,4.1834,4.1831,4.1574,4.1556,4.1735,0.0,3.0393,0.0,0.0,3.2196,3.2648,3.3154,3.355,3.368,3.3361,3.3736,3.4032,3.4032,3.4849,3.5398,3.5398,3.5479,3.5493,3.5493,3.5493,3.5493,3.5493,3.5493,3.5493,3.5493,3.5493,3.5493,0.0,0.0,0.0,0.0,0.0,0.0,0.0,0.0,0.0,0.0,0.0,3.5723,3.5723,3.5703,3.5663,3.5601,3.5667,3.5679,3.563,3.5675,3.5687,3.565,3.5574,3.5528,3.556,3.5734,3.6342,3.7161,3.8027,3.8396,3.8819,4.0142,4.0489,4.0489,4.0489,4.0489,4.0489,4.0489,4.0489,4.0489,4.0489,4.0489,4.0489,4.0489,4.0457,0.0,0.0,0.0,0.0,0.0,4.0489,4.0489,4.0489,4.0489,4.0489,4.0489,4.0489,4.0519,4.053,4.0519,4.0406,4.0195,4.0177,0.0,0.0,4.0062,4.0062,3.98,0.0,4.0043,3.98,3.98,3.9757,3.9728,4.0348,4.0604,4.057,4.1199,4.1726,4.2116,4.1038,4.0606,4.0588,4.0482,4.039,4.0335,4.0712,4.0855,4.0836,0.0,0.0,0.0,0.0,0.0,3.2648,3.3154,3.355,3.3807,3.3734,3.4,3.4181,3.4181,3.4756,3.5138,3.5138,3.5369,3.5493,3.5493,3.5493,3.5493,3.5493,3.5493,3.5493,3.5493,3.5493,3.5493,0.0,0.0,3.5493,0.0,0.0,0.0,0.0,0.0,0.0,0.0,3.5762,3.5782,3.5781,3.5723,3.5663,3.5601,3.5667,3.5703,3.5696,3.5703,3.5766,3.586,3.573,3.5629,3.5725,3.6519,3.7283,3.8046,3.8911,3.9681,4.0296,4.045,4.0489,4.0489,4.0489,4.0489,4.0489,4.0489,4.0489,4.0489,4.0489,4.0489,4.0489,4.0489,4.0304,4.0213,0.0,0.0,0.0,0.0,4.0489,4.0489,4.0489,4.0489,4.0489,4.0489,4.0489,4.0545,4.0667,4.0574,4.0489,4.0473,0.0,0.0,4.0422,4.0457,4.0457,4.0422,4.0457,4.0457,4.0422,4.0422,4.0285,4.0061,4.0138,3.9994,3.9769,4.0608,4.1057,4.1118,3.9557,3.8915,3.9057,4.0463,4.0716,4.028,4.007,4.001,3.99,0.0,0.0,0.0,0.0,0.0,0.0,0.0,3.3707,3.3807,3.3807,3.4043,3.42,3.42,3.4595,3.487,3.487,3.4963,3.5088,3.5239,3.5273,3.532,3.5493,3.5493,3.5493,3.5493,3.5493,3.5493,0.0,0.0,0.0,0.0,0.0,0.0,0.0,0.0,3.5652,3.5717,3.5855,3.5927,3.5914,3.5887,3.5849,3.5794,3.5841,3.5861,3.5836,3.5868,3.589,3.5903,3.5874,3.5783,3.5799,3.6701,3.7239,3.7792,3.8868,3.9809,4.0507,4.0507,4.0501,4.0489,4.0489,4.0489,4.0489,4.0489,4.0489,4.0489,4.0489,4.0489,4.0489,4.0489,4.0406,4.0372,4.0489,0.0,0.0,0.0,4.0489,4.0489,4.0489,4.0489,4.0489,4.0489,4.0489,4.0534,4.0588,4.0515,4.0549,0.0,0.0,0.0,4.0489,0.0,4.0489,4.0489,4.0489,4.0489,4.0489,4.0489,4.0438,4.0339,4.0339,4.0138,3.9825,4.0414,4.0273,3.964,3.9219,3.8921,3.8747,3.941,3.952,3.9337,3.9239,3.9184,3.916,3.2382,0.0,3.2648,0.0,3.3214,3.3332,3.3734,3.3807,3.3807,3.3807,3.3961,3.4074,3.4074,3.4357,3.4551,3.4551,3.4653,3.4774,3.4963,3.507,3.5171,3.5311,3.5427,0.0,3.5493,3.5493,3.5493,3.5493,3.5493,0.0,0.0,0.0,0.0,0.0,3.5607,3.5697,3.5811,3.5948,3.5993,3.5999,3.5995,3.5971,3.5926,3.5974,3.5951,3.5887,3.5974,3.5973,3.5942,3.5976,3.5906,3.5943,3.6863,3.7338,3.7855,3.9198,4.0023,4.0507,4.0507,4.0498,4.0494,4.0496,4.0501,4.0506,4.0504,4.0489,4.0489,4.0489,4.0489,4.0489,4.0489,4.0489,4.0489,4.0489,0.0,0.0,0.0,4.0489,4.0489,4.0489,4.0489,4.0489,4.0489,4.0489,4.0519,4.0559,4.0534,0.0,0.0,0.0,0.0,0.0,0.0,0.0,4.0489,4.0489,4.0489,4.0489,4.0489,4.0489,4.0489,4.0489,4.0351,4.008,4.0368,4.003,3.9233,3.9279,3.911,3.8803,3.8719,3.8707,3.8707,3.8707,3.8707,3.875,3.2382,3.2484,3.2648,3.3124,3.3214,3.3332,3.3734,3.3807,3.3807,3.3807,3.3788,3.3788,3.3788,3.4043,3.42,3.42,3.4508,3.4694,3.4694,3.4944,3.5047,0.0,0.0,3.5493,3.5493,3.5493,3.5493,3.5493,0.0,0.0,3.5493,0.0,3.5502,3.5494,3.5504,3.5688,3.6001,3.5993,3.5996,3.5996,3.5996,3.5991,3.6004,3.5994,3.5912,3.5828,3.5955,3.5996,3.5996,3.5996,3.5996,3.6171,3.7178,3.7851,3.8616,4.0282,4.0638,4.0501,4.0501,4.0501,4.0496,4.0494,4.0498,4.05,4.0496,4.0489,4.0489,4.0489,4.0489,4.0489,4.0489,4.0489,4.0489,4.0489,0.0,0.0,0.0,4.0489,4.0489,4.0489,4.0489,4.0489,4.0489,4.0489,4.0559,4.068,0.0,0.0,0.0,0.0,0.0,4.0489,4.0489,0.0,4.0489,4.0489,4.0489,4.0489,4.0489,4.0489,4.0489,4.0489,4.0489,4.0492,4.05,4.0501,4.0404,3.9633,3.9237,3.9072,3.8803,3.8707,3.8707,3.8707,3.8707,3.875,3.3343,3.339,3.3447,3.3578,3.3606,3.3634,3.378,3.3807,3.3807,3.3807,3.3807,3.3807,3.3807,3.3876,3.3928,0.0,3.4012,3.4203,0.0,3.458,3.4821,3.5287,3.5429,3.5506,3.5506,3.5494,3.5493,3.5493,0.0,0.0,0.0,3.5493,3.5502,3.5494,3.5504,3.5688,3.6004,3.5993,3.5996,3.5996,3.5996,3.5995,3.5993,3.5996,3.5976,3.5934,3.5976,3.5996,3.5996,3.5996,3.5993,3.606,3.638,3.6587,3.7295,4.0216,4.1039,4.0983,4.0983,4.0987,4.0988,4.0993,4.0731,4.0505,4.0494,4.0496,4.0489,4.0489,4.0489,4.0489,4.0489,4.0489,4.0489,4.0489,4.0489,0.0,4.0489,4.0489,4.0489,4.0489,4.0489,4.0489,4.0489,4.0489,4.0519,4.0559,0.0,0.0,0.0,0.0,0.0,0.0,4.0489,0.0,4.0489,4.0489,4.0489,4.0489,4.0489,4.0489,4.0489,4.0489,4.0489,4.0489,4.0502,4.0344,4.0081,3.9918,3.9548,3.9099,3.9027,3.8855,3.8707,3.8707,3.8833,3.9027,3.3762,3.368,3.3606,3.3762,3.3807,3.3807,3.3807,3.3807,3.3807,3.3807,3.3807,3.3807,3.3807,3.3807,0.0,3.3807,3.3807,3.3913,3.4154,3.4165,3.4386,3.483,3.5268,3.5494,3.5494,3.549,0.0,3.5488,3.5504,3.5493,3.5493,3.5493,3.5502,3.5516,3.563,3.5801,3.5992,3.6001,3.5994,3.5996,3.5996,3.5996,3.5996,3.5996,3.5996,3.5996,3.5996,3.5996,3.5996,3.5996,3.5993,3.6239,3.7538,3.7949,3.8379,4.0566,4.1207,4.1194,4.1194,4.1195,4.1203,4.1195,4.0984,4.0713,4.0552,4.0501,4.0501,4.0485,4.0489,4.0489,4.0489,4.0489,4.0489,4.0489,4.0489,4.0489,4.0489,4.0489,4.0489,4.0489,4.0489,4.0489,4.0489,4.0489,4.0489,4.0489,0.0,0.0,0.0,0.0,4.0489,4.0489,4.0489,4.0489,4.0489,4.0489,4.0489,4.0489,4.0489,4.0489,4.0489,4.0489,4.0489,4.0489,4.0489,4.0351,4.0117,4.012,3.984,3.9462,3.9339,3.909,3.8855,3.8855,3.8961,3.9152,3.3597,3.339,3.3273,3.368,3.3753,3.3771,3.3798,3.3798,3.3817,3.3808,3.3798,3.3807,3.3798,3.3807,3.3807,3.3807,0.0,0.0,3.3807,3.3815,3.3794,3.3794,3.483,3.5375,3.5375,3.538,3.5427,3.5501,3.5503,3.5512,3.5493,3.5493,3.5507,3.5501,3.5828,3.5978,3.5963,3.5992,3.5999,3.5996,3.5996,3.5996,3.5996,3.5996,3.5996,3.5996,3.5996,3.5996,3.5996,3.5996,3.5996,3.6601,4.0098,4.1191,4.1191,4.1191,4.1191,4.1191,4.1191,4.1191,4.119,4.1205,4.1195,4.1081,4.0645,4.0521,4.0493,4.0501,4.05,4.05,4.05,4.0504,4.0489,4.0489,4.0489,4.0489,4.0489,4.0489,4.0489,4.0489,0.0,0.0,4.0489,4.0489,4.0489,0.0,0.0,0.0,0.0,0.0,4.0489,4.0489,4.0489,4.0489,4.0489,4.0489,4.0489,4.0489,4.0489,4.0489,4.0489,4.0489,4.0489,4.0489,4.0489,4.0489,4.0473,4.0232,4.012,4.0081,3.9754,3.9432,3.9099,3.9099,3.9107,3.916,0.0,0.0,3.2809,3.3273,3.3255,3.3337,3.3742,3.3789,3.3791,3.3786,3.3793,3.3799,3.38,3.3799,3.3807,3.3807,3.3807,3.3807,3.3807,3.3813,3.3784,3.3784,3.4054,3.4199,3.4199,3.4207,3.462,3.5494,3.5484,3.5496,3.5493,3.5493,3.5496,3.5499,3.557,3.562,3.5645,3.5885,3.5992,3.5994,3.5994,3.6009,3.5996,3.5996,3.5996,3.5996,3.5996,3.5996,3.5996,3.5996,3.5996,3.6601,4.0098,4.1191,4.1191,4.1191,4.1191,4.1191,4.1191,4.1191,4.1191,4.1209,4.1197,4.1174,4.1066,4.076,4.0498,4.051,4.0494,4.0507,4.0507,4.0496,4.0489,4.0489,4.0489,4.0489,4.0489,4.0489,4.0489,0.0,4.0489,4.0489,4.0489,4.0489,4.0489,0.0,0.0,4.0489,4.0489,4.0489,4.0489,4.0489,4.0489,4.0489,4.0489,4.0489,4.0489,4.0489,4.0489,4.0489,4.0489,4.0489,4.0489,4.0489,4.0489,4.0489,4.0489,4.0422,4.0267,4.0101,4.0002,3.9622,3.9099,3.9099,3.9264,3.9486,3.2258,3.2071,3.2122,3.2759,3.2944,3.3039,3.319,3.3221,3.3355,3.3761,3.3445,3.3352,3.3743,3.381,3.3811,3.3798,3.3807,3.3807,3.3807,3.3807,3.3807,3.3807,3.3799,3.3808,3.3808,3.3805,3.4112,3.4723,3.5,3.5132,3.5122,3.5122,3.527,3.5495,3.5495,3.5485,3.5519,3.5693,3.5774,3.5788,3.5943,3.5997,3.6007,3.5994,3.5999,3.6007,3.5994,3.5999,3.6009,3.6009,3.5994,3.6601,4.0098,4.1191,4.1191,4.1191,4.1191,4.1191,4.1191,4.1191,4.1191,4.1191,4.1208,4.1192,4.1192,4.1,4.0812,4.0828,4.0829,4.0762,4.0538,4.0505,4.0505,4.0505,4.0492,4.0489,4.0489,4.0489,4.0489,4.0489,4.0489,4.0489,4.0489,4.0489,4.0489,4.0489,4.0489,0.0,4.0489,4.0489,4.0489,4.0489,4.0489,4.0489,4.0489,4.0489,4.0489,4.0489,4.0489,4.0489,4.0489,4.0489,4.0489,4.0489,4.0489,4.0489,4.0489,4.0489,4.0406,4.0267,4.0267,3.9884,3.9339,3.9505,3.9576,3.9622,3.2161,3.1724,3.1424,3.2159,3.2542,3.2701,3.2698,3.247,3.2576,3.3298,3.2767,3.258,3.3319,3.3627,3.3687,3.3413,3.3414,3.3524,3.3788,3.3807,3.3807,3.3807,3.3807,3.3807,3.3807,3.379,3.3799,3.3804,3.4369,3.4653,3.4656,3.4694,3.4946,3.5446,3.5484,3.5499,3.5502,3.5502,3.5495,3.5527,3.5799,3.5911,3.5927,3.5988,3.5961,3.5923,3.5924,3.5928,3.5931,3.599,3.5999,3.6601,4.0097,4.1191,4.1191,4.1191,4.1191,4.1191,4.1191,4.1191,4.1191,4.1191,4.1191,4.119,4.1192,4.1202,4.1191,4.1188,4.1201,4.1077,4.0687,4.0607,4.0571,4.0513,4.0507,4.0496,4.0496,0.0,4.0489,4.0489,4.0489,4.0489,4.0489,4.0489,4.0489,4.0489,4.0489,4.0489,4.0489,4.0489,4.0489,4.0489,4.0489,4.0489,4.0489,4.0489,4.0489,4.0489,4.0489,4.0489,4.0489,4.0489,4.0489,4.0489,4.0489,4.0489,4.0489,4.0489,4.0489,4.0489,4.0489,4.0138,3.9645,3.9982,3.9901,3.9645,3.1389,3.1278,3.1236,3.1389,3.1428,3.1981,3.3387,3.2352,3.1457,3.1606,3.148,3.1459,3.1585,3.2911,3.3214,3.1721,3.1597,3.224,3.3698,3.3807,3.3807,3.3807,3.3807,3.3807,3.3807,3.3805,3.3796,3.3804,3.4233,3.4461,3.4447,3.4619,3.487,3.5162,3.5408,3.55,3.5509,3.5509,3.55,3.5505,3.5563,3.5577,3.5606,3.5885,3.5814,3.5587,3.5574,3.5574,3.5626,3.5898,3.6007,3.6615,4.0096,4.1205,4.1191,4.1191,4.1191,4.1191,4.1191,4.1191,4.1191,4.1191,4.1191,4.1191,4.119,4.119,4.1209,4.1207,4.1208,4.1178,4.11,4.1098,4.0971,4.0555,4.0507,4.05,4.05,0.0,4.0489,4.0489,4.0489,4.0489,4.0489,4.0489,4.0489,4.0489,4.0489,4.0489,4.0489,4.0489,4.0489,4.0489,4.0489,4.0489,4.0489,4.0489,4.0489,4.0489,4.0489,4.0489,4.0489,4.0489,4.0489,4.0489,4.0489,4.0489,4.0489,4.0489,4.0489,4.0489,4.0489,4.0138,3.9645,3.9982,3.9901,3.9645,3.119,3.119,3.1218,3.1185,3.1189,3.1482,3.2273,3.1734,3.1219,3.1213,3.1175,3.1194,3.1214,3.1946,3.2091,3.1282,3.1201,3.1684,3.2811,3.3452,3.3807,3.3807,3.3807,3.3807,3.3807,3.3807,3.3792,3.3812,3.3988,3.4062,3.4078,3.4171,3.4442,3.4889,3.5003,3.5236,3.5493,3.5493,3.5489,3.5507,3.5507,3.5502,3.5512,3.5659,3.5641,3.5493,3.5505,3.5505,3.5521,3.5687,3.5741,3.6376,4.0051,4.1203,4.1191,4.1194,4.1207,4.1191,4.1191,4.1191,4.1191,4.1191,4.1191,4.1191,4.1191,4.1191,4.1191,4.1191,4.1208,4.1203,4.1203,4.1191,4.1128,4.0914,4.0871,4.0791,4.0539,4.0507,4.0498,4.0494,4.0493,4.05,4.05,4.0516,4.0511,4.0504,4.0489,4.0489,4.0489,4.0489,4.0489,4.0489,4.0489,4.0489,4.0489,4.0489,4.0489,4.0489,4.0489,4.0489,4.0489,4.0489,4.0489,4.0489,4.0489,4.0489,4.0489,4.0489,4.0489,4.0489,4.0489,4.0138,3.9668,4.0139,4.0004,3.9668,3.119,3.119,3.119,3.119,3.119,3.119,3.119,3.119,3.119,3.119,3.119,3.1189,3.1185,3.1198,3.1223,3.1203,3.1198,3.1441,3.1984,3.2855,3.3358,3.3494,3.3606,3.3707,3.3807,3.3807,3.3807,3.3807,3.3807,3.3807,3.3807,3.3807,3.4087,3.4572,3.4572,3.4889,3.5417,3.5475,3.5504,3.5493,3.5493,3.5509,3.5508,3.5489,3.5509,3.5508,3.5489,3.5489,3.5499,3.5496,3.6018,3.7175,4.0107,4.1038,4.105,4.1037,4.1111,4.1209,4.1191,4.1191,4.1191,4.1191,4.1191,4.1191,4.1191,4.1191,4.1191,4.1191,4.1191,4.1191,4.1191,4.1205,4.1208,4.1208,0.0,4.1071,4.0714,4.0661,4.0671,4.0662,4.0567,4.049,4.0494,4.0488,4.0488,4.0501,4.05,4.0489,4.0489,4.0489,4.0489,4.0489,4.0489,4.0489,4.0489,4.0489,4.0489,4.0489,4.0489,4.0489,4.0489,4.0489,4.0489,4.0489,4.0489,4.0489,4.0489,4.0489,4.0489,4.0489,4.0489,4.0175,3.9797,4.0319,4.0157,3.9778,3.119,3.119,3.119,3.119,3.119,3.119,3.119,3.119,3.119,3.119,3.119,3.1173,3.1196,3.1213,3.1213,3.1184,3.1218,3.1393,3.179,3.1897,3.2162,3.2583,3.3014,3.3437,3.3788,3.3807,3.3807,3.3807,3.3807,3.3807,3.3807,3.3807,3.3961,3.4242,3.4242,3.4574,3.5141,3.5386,3.55,3.5493,3.5493,3.5507,3.5501,3.5507,3.5507,3.5501,3.5507,3.5507,3.5501,3.5493,3.7559,4.0178,4.0458,4.0548,4.0548,4.0556,4.0855,4.1205,4.119,4.1191,4.1191,4.1191,4.1191,4.1191,4.1191,4.1191,4.1191,4.1191,4.1191,4.1191,4.1191,4.1191,4.1191,4.1191,0.0,0.0,4.1144,4.1149,4.1151,4.1143,4.0754,4.0501,4.0505,4.0498,4.0498,4.0505,4.0496,4.0489,4.0489,4.0489,4.0489,4.0489,4.0489,4.0489,4.0489,4.0489,4.0489,4.0489,4.0489,4.0489,4.0489,4.0489,4.0489,4.0489,4.0489,4.0489,4.0489,4.0489,4.0489,4.0489,4.0489,4.0321,4.0101,4.0389,4.0302,4.012,3.119,3.119,3.119,3.119,3.119,3.119,3.119,3.119,3.119,3.119,3.119,3.119,3.119,3.119,3.119,3.119,3.119,3.1252,3.1411,3.1411,3.1878,3.2872,3.3105,3.339,3.3788,3.3807,3.3807,3.3807,3.3807,3.3807,3.3807,3.3807,3.3935,3.42,3.4423,3.4735,3.5124,3.5385,3.5494,3.5493,3.5493,3.5493,3.5493,3.5493,3.5493,3.5498,3.5511,3.5503,3.5487,3.5512,3.7728,4.0496,4.0496,4.0507,4.0513,4.0507,4.0622,4.0824,4.1114,4.1207,4.1191,4.1191,4.1191,4.1191,4.1191,4.1191,4.1191,4.1191,4.1191,4.1191,4.1191,4.1191,4.1191,4.1191,0.0,4.1205,4.1205,4.1197,4.1199,4.1198,4.1035,4.0929,4.0926,4.094,4.0867,4.0703,4.0683,4.0637,4.052,4.0506,4.053,4.0623,4.0545,4.0489,4.0489,4.0489,4.0489,4.0489,4.0489,4.0489,4.0489,4.0489,4.0489,4.0489,4.0489,4.0489,4.0489,4.0489,4.0489,4.0489,4.0489,4.0339,4.0139,4.0389,4.0339,4.0139,3.1217,3.1196,3.119,3.119,3.119,3.119,3.119,3.119,3.119,3.119,3.119,3.119,3.119,3.119,3.119,3.119,3.119,3.119,3.119,3.119,3.1657,3.2695,3.2777,3.2965,3.3372,3.355,3.3606,3.3606,3.3734,3.3807,3.3807,3.3807,3.3902,3.4074,3.4307,3.4572,3.4832,3.5015,3.5155,3.5239,3.5239,3.5258,3.5334,3.5465,3.5407,3.5261,3.5432,3.5266,3.4982,3.4984,3.7433,4.0498,4.0509,4.0499,4.05,4.0494,4.049,4.0604,4.1075,4.1202,4.1208,4.1191,4.1191,4.1191,4.1191,4.1191,4.1191,4.1191,4.1191,4.1191,4.1191,4.1191,4.1191,4.1191,4.1191,4.1191,4.1191,4.1191,4.119,4.1194,4.1207,4.1206,4.1203,4.1198,4.1115,4.0948,4.0875,4.0768,4.0595,4.0559,4.0596,4.0692,4.0574,4.0489,4.0489,4.0489,4.0489,4.0489,4.0489,4.0489,4.0489,4.0489,4.0489,4.0489,4.0489,4.0489,4.0489,4.0489,4.0489,4.0489,4.0489,4.0389,4.025,4.0422,4.0372,4.025,3.1191,3.118,3.1207,3.119,3.119,3.119,3.119,3.119,3.119,3.119,3.119,3.119,3.119,3.119,3.119,3.119,3.119,3.119,3.119,3.119,3.1389,3.1789,3.1789,3.2022,3.2484,3.2952,3.3214,3.3214,3.3606,3.3807,3.3807,3.3807,3.3807,3.3807,3.3788,3.3961,3.42,3.42,3.4401,3.4694,3.4694,3.4769,3.4941,3.5339,3.5148,3.4769,3.532,3.4766,3.3792,3.3827,3.68,4.0482,4.0501,4.0496,4.0489,4.0489,4.0486,4.0591,4.106,4.1201,4.1202,4.119,4.1191,4.1191,4.1191,4.1191,4.1191,4.1191,4.1191,4.1191,4.1191,4.1191,4.1191,4.1191,4.1191,4.1191,4.1191,4.1191,4.1191,4.1191,4.1191,4.1191,4.1191,4.1197,4.1191,4.1191,4.1013,4.0879,4.0801,4.0742,4.0703,4.0703,4.0574,4.0489,4.0489,4.0489,4.0489,4.0489,4.0489,4.0489,4.0489,4.0489,4.0489,4.0489,4.0489,4.0489,4.0489,4.0489,4.0489,4.0489,4.0489,4.0489,4.0489,4.0489,4.0489,4.0489,3.0882,3.1196,3.1212,3.12,3.1191,3.1189,3.1202,3.119,3.119,3.119,3.119,3.119,3.119,3.119,3.119,3.119,3.119,3.119,3.119,3.119,3.1252,3.1372,3.1968,3.235,3.2484,3.2952,3.3214,3.3214,3.3302,3.3522,3.3807,3.3807,3.3807,3.3807,3.4012,3.4123,3.42,3.4445,3.4612,3.4694,3.4694,3.4713,3.4769,3.4997,3.4922,3.4768,3.5296,3.4764,3.4162,3.6451,3.8126,3.9364,4.0231,4.0501,4.0498,4.0495,4.0486,4.0529,4.0671,4.0953,4.1202,4.119,4.1191,4.1191,4.1191,4.1191,4.1191,4.1191,4.1191,4.1191,4.1191,4.1191,4.1191,4.1191,4.1191,4.1191,4.1191,4.1191,4.1191,4.1191,4.1191,4.1191,4.1191,4.1209,4.1207,4.1207,4.1062,4.1007,4.108,4.0835,4.0729,4.0761,4.0584,4.0489,4.0489,4.0489,4.0489,4.0489,4.0489,4.0489,4.0489,4.0489,4.0489,4.0489,4.0489,4.0489,4.0489,4.0489,4.0489,4.0489,4.0489,4.0489,4.0489,4.0489,4.0489,4.0489,2.9589,2.9778,2.9758,2.9786,3.058,3.0889,2.9938,3.0203,3.0444,3.0286,3.041,3.0576,3.0838,3.0838,3.0935,3.119,3.119,3.119,3.119,3.119,3.119,3.119,3.1842,3.2144,3.1986,3.2417,3.2745,3.2903,3.3105,3.3408,3.3807,3.3807,3.3807,3.3807,3.3961,3.4043,3.4068,3.426,3.433,3.433,3.433,3.433,3.4348,3.4423,3.4404,3.4381,3.4705,3.4382,3.4315,3.7586,3.8697,3.882,3.9542,4.0131,4.0497,4.0497,4.0495,4.0501,4.05,4.0704,4.0968,4.1156,4.1205,4.1191,4.1191,4.1191,4.1191,4.1191,4.1191,4.1191,4.1191,4.1191,4.1191,4.1191,4.1191,4.1191,4.1191,4.1191,4.1191,4.1191,4.1191,4.1191,4.1191,4.1191,4.1191,4.1191,4.1126,4.1105,4.1191,4.0909,4.0762,4.0793,4.0591,4.0489,4.0489,4.0489,4.0489,4.0489,4.0489,4.0489,4.0489,4.0489,4.0489,4.0489,4.0489,4.0489,4.0489,4.0489,4.0489,4.0489,4.0489,4.0489,4.0489,4.0489,4.0489,4.0489,2.7808,2.7628,2.7619,2.7604,2.9516,3.0263,2.7934,2.8578,2.9188,2.886,2.9157,2.9629,3.0166,3.0208,3.0435,3.1015,3.1095,3.1151,3.119,3.119,3.119,3.119,3.1528,3.1565,3.119,3.1603,3.2022,3.2484,3.2921,3.3361,3.3807,3.3807,3.3807,3.3807,3.3807,3.3807,3.3807,3.3807,3.3807,3.3807,3.3807,3.3807,3.3807,3.3807,3.3807,3.3807,3.3807,3.3799,3.4287,3.7606,3.8692,3.8681,3.8694,3.9439,4.0329,4.0346,4.0425,4.05,4.0494,4.0486,4.0591,4.1032,4.1139,4.1151,4.1191,4.1191,4.1191,4.1191,4.1191,4.1191,4.1191,4.1191,4.1191,4.1191,4.1191,4.1191,4.1191,4.1191,4.1191,4.1191,4.1191,4.1191,4.1191,4.1191,4.1191,4.1191,4.1191,4.1191,4.1191,4.0959,4.0809,4.0801,4.0623,4.0519,4.0489,4.0489,4.0489,4.0489,4.0489,4.0489,4.0489,4.0489,4.0489,4.0489,4.0489,4.0489,4.0489,4.0489,4.0489,4.0489,4.0489,4.0489,4.0489,4.0489,4.0489,4.0489,2.7666,2.7598,2.7628,2.7612,2.8795,2.9311,2.7803,2.8345,2.8891,2.8783,2.9157,2.9451,2.9585,2.9585,2.9629,2.9761,3.0208,3.0699,3.119,3.119,3.119,3.119,3.1291,3.1291,3.119,3.1603,3.2022,3.2484,3.2616,3.3045,3.3807,3.3807,3.3807,3.3807,3.3807,3.3807,3.3807,3.3807,3.3807,3.3807,3.3807,3.3807,3.3807,3.3807,3.3807,3.3807,3.379,3.3797,3.4306,3.7576,3.8707,3.8704,3.8699,3.8887,3.9108,3.9102,3.9757,4.0501,4.0489,4.0507,4.0529,4.0621,4.0652,4.0758,4.1121,4.1205,4.1191,4.1191,4.1191,4.1191,4.1191,4.1191,4.1191,4.1191,4.1191,4.1191,4.1191,4.1191,4.1191,4.1191,4.1191,4.1191,4.1191,4.1191,4.1191,4.1191,4.1191,4.1191,4.1191,4.1049,4.0914,4.0801,4.071,4.061,4.0504,4.0489,4.0489,4.0489,4.0489,4.0489,4.0489,4.0489,4.0489,4.0489,4.0489,4.0489,4.0489,4.0489,4.0489,4.0489,4.0489,4.0489,4.0489,4.0489,4.0489,4.0489,2.7603,2.7575,2.7605,2.7588,2.8097,2.8301,2.7705,2.7953,2.8247,2.8247,2.8403,2.8638,2.8966,2.8966,2.9088,2.9361,2.9673,3.0123,3.074,3.0781,3.0878,3.119,3.119,3.119,3.119,3.1411,3.1842,3.2484,3.2484,3.284,3.3522,3.3707,3.3707,3.3522,3.3707,3.3807,3.3807,3.3807,3.3807,3.3807,3.3807,3.3807,3.3807,3.3807,3.3807,3.3807,3.378,3.3796,3.432,3.7589,3.8707,3.8701,3.8707,3.8693,3.8712,3.8701,3.9543,4.0501,4.0499,4.0487,4.05,4.05,4.049,4.0624,4.1091,4.1208,4.1205,4.1191,4.1191,4.1191,4.1191,4.1191,4.1191,4.1191,4.1191,4.1191,4.1191,4.1191,4.1191,4.1191,4.1191,4.1191,4.1191,4.1191,4.1191,4.1191,4.1191,4.1191,4.1191,4.1077,4.0964,4.0908,4.0772,4.0674,4.0596,4.0515,4.0489,4.0489,4.0489,4.0489,4.0489,4.0489,4.0489,4.0489,4.0489,4.0489,4.0489,4.0489,4.0489,4.0489,4.0489,4.0489,4.0489,4.0489,4.0489,4.0489,2.7625,2.7625,2.762,2.7583,2.7599,2.762,2.7583,2.7614,2.7625,2.7625,2.7625,2.781,2.8286,2.8334,2.8606,2.918,2.9225,2.954,3.0251,3.0293,3.0559,3.119,3.119,3.119,3.119,3.119,3.16,3.2384,3.2384,3.2616,3.3075,3.3419,3.3447,3.3214,3.355,3.3734,3.3807,3.3807,3.3807,3.3807,3.3807,3.3807,3.3807,3.3807,3.3807,3.3844,3.4027,3.4353,3.5048,3.7772,3.8707,3.8707,3.8707,3.8718,3.8734,3.8954,3.9724,4.0501,4.0499,4.0489,4.0489,4.0489,4.0491,4.0602,4.0987,4.1139,4.1202,4.1207,4.1191,4.1191,4.1191,4.1191,4.1191,4.1191,4.1191,4.1191,4.1191,4.1191,4.1191,4.1191,4.1191,4.1191,4.1191,4.1191,4.1191,4.1191,4.1191,4.1191,4.1191,4.1082,4.1023,4.0996,4.0827,4.0707,4.0703,4.0574,4.0489,4.0489,4.0489,4.0489,4.0489,4.0489,4.0489,4.0489,4.0489,4.0489,4.0489,4.0489,4.0489,4.0489,4.0489,4.0489,4.0489,4.0489,4.0489,4.0489,2.7625,2.7625,2.761,2.76,2.758,2.7595,2.76,2.758,2.7625,2.7625,2.7625,2.7625,2.771,2.771,2.7944,2.8559,2.8606,2.9088,3.0208,3.0293,3.0559,3.119,3.119,3.119,3.119,3.119,3.1411,3.188,3.188,3.2127,3.2583,3.2648,3.2872,3.3214,3.3243,3.3465,3.3807,3.3807,3.3807,3.3807,3.3807,3.3807,3.3807,3.3807,3.3807,3.3935,3.4916,3.6454,3.8096,3.853,3.8707,3.8707,3.8707,3.8718,3.891,3.9967,4.0374,4.0501,4.0499,4.0489,4.0489,4.0489,4.05,4.0516,4.0579,4.0901,4.1191,4.1199,4.1205,4.1191,4.1191,4.1191,4.1191,4.1191,4.1191,4.1191,4.1191,4.1191,4.1191,4.1191,4.1191,4.1191,4.1191,4.1191,4.1191,4.1191,4.1191,4.1191,4.1191,4.1171,4.1126,4.0996,4.0857,4.0762,4.0703,4.0574,4.0489,4.0489,4.0489,4.0489,4.0489,4.0489,4.0489,4.0489,4.0489,4.0489,4.0489,4.0489,4.0489,4.0489,4.0489,4.0489,4.0489,4.0489,4.0489,4.0489,2.7625,2.7625,2.7625,2.7625,2.7625,2.7625,2.7625,2.7625,2.7625,2.7625,2.7625,2.7625,2.7625,2.7625,2.771,2.7944,2.7993,2.8496,2.9717,2.9805,3.0208,3.1151,3.119,3.119,3.119,3.119,3.1291,3.147,3.1696,3.1933,3.2092,3.2384,3.2616,3.2809,3.3075,3.3419,3.3807,3.3807,3.3807,3.3807,3.3807,3.3807,3.3807,3.3807,3.4082,3.4651,3.5915,3.7393,3.8707,3.8707,3.8707,3.8701,3.8689,3.8699,3.8939,4.0138,4.0502,4.049,4.0511,4.0489,4.0489,4.0489,4.0489,4.05,4.0496,4.0671,4.0875,4.1159,4.1208,4.1203,4.1191,4.1191,4.1191,4.1191,4.1191,4.1191,4.1191,4.1191,4.1191,4.1191,4.1191,4.1191,4.1191,4.1191,4.1191,4.1191,4.1191,4.1191,4.1191,4.1191,4.1171,4.1105,4.0914,4.0796,4.0762,4.059,4.0489,4.0489,4.0489,4.0489,4.0489,4.0489,4.0489,4.0489,4.0489,4.0489,4.0489,4.0489,4.0489,4.0489,4.0489,4.0489,4.0489,4.0489,4.0489,4.0489]}]]